[[[{"header":{"parameterUnit":"kt","parameterCategory":2,"dx":1,"dy":1,"la1":29.285339999999998,"la2":30.599998999999997,"lo1":-89.70041500000002,"lo2":-87.6738589999976,"nx":112,"ny":82,"refTime":"2022-10-20T00:00:00:Z","depth":0,"parameterNumber":1,"parameterNumberName":"U-component_of_WINDS"},"data":[-13.2906,-13.281,-13.0467,-12.6683,-12.1326,-11.6122,-11.2286,-10.268,-9.4257,-9.3041,-9.03,-8.6802,-8.2823,-8.0618,-7.8476,0.0,0.0,0.0,0.0,-7.4814,-7.5138,0.0,0.0,0.0,0.0,0.0,0.0,0.0,0.0,0.0,0.0,-12.2186,-13.0054,-13.1817,-13.8616,-14.2456,-14.277,-14.3274,-14.4029,-14.4974,-14.5918,-14.7438,-14.9304,-14.9439,-14.9801,-15.0064,-14.9692,-14.8654,-14.7051,-14.5603,-14.4218,-14.2896,-14.1448,-14.0378,-13.9434,-13.8049,-13.6664,-13.5531,-13.5972,-13.7105,-13.8553,-13.9875,-14.2204,-14.4659,-14.554,-14.6799,-14.7932,-14.7806,-14.8499,-14.9065,-14.7995,-14.8499,-14.9254,-14.9254,-14.9254,-14.9254,-14.9254,-14.9254,-14.9254,-14.9254,-14.9254,-14.9254,-14.9254,-14.8876,-14.8562,-14.8562,-14.7743,-14.7303,-14.768,-14.6988,-14.6421,-14.6421,-14.5981,-14.5351,-14.4344,-14.4722,-14.4974,-14.4974,-14.4974,-14.4596,-14.3777,-14.1952,-13.9875,-13.7608,-13.5657,-13.3957,-13.2572,-13.2572,-13.2572,-13.2572,-13.2572,-13.2572,-12.2667,-12.2238,-11.9844,-11.5645,-11.0076,-10.4648,-10.0957,-9.1002,-8.2398,-8.2004,-7.9361,-7.6987,-7.6433,-7.5391,-7.4344,0.0,0.0,0.0,0.0,0.0,-7.6211,0.0,0.0,0.0,0.0,0.0,0.0,0.0,-11.2743,0.0,-11.6142,-12.6655,-13.3768,-13.6035,-14.1008,-14.4092,-14.4974,-14.5477,-14.6233,-14.7177,-14.7177,-14.8086,-14.9801,-14.9473,-14.9473,-14.9738,-14.886,-14.7743,-14.6358,-14.4911,-14.3526,-14.2204,-14.1259,-14.0063,-13.8616,-13.679,-13.5216,-13.3957,-13.3957,-13.5216,-13.7168,-13.893,-14.1134,-14.3211,-14.4092,-14.5666,-14.7366,-14.831,-14.8939,-14.9191,-14.8688,-14.8939,-14.9191,-14.8688,-14.8939,-14.9254,-14.9254,-14.9254,-14.9254,-14.9254,-14.9254,-14.9254,-14.9254,-14.9254,-14.9254,-14.9254,-14.8499,-14.8247,-14.9191,-14.8436,-14.7869,-14.7869,-14.7492,-14.6988,-14.6484,-14.6044,-14.5918,-14.6421,-14.6421,-14.5855,-14.447,-14.2644,-14.0315,-13.7608,-13.5657,-13.3957,-13.2572,-13.2572,-13.2572,-13.2572,-13.2572,-13.2572,-11.1172,-10.9596,-10.6753,-9.8941,-9.4711,-9.0683,-8.3736,-8.0812,-7.9163,-7.7486,-7.7114,-7.6623,-7.4965,-7.4721,-7.3949,-7.1394,-7.3396,0.0,0.0,-7.5647,-7.8458,-8.1621,-9.1415,0.0,0.0,-11.1799,-11.7024,0.0,-12.5585,-13.125,-12.8732,-13.6412,-14.1574,-14.3022,-14.4344,-14.5036,-14.5162,-14.6547,-14.724,-14.724,-14.724,-14.7995,-14.9254,-14.9254,-14.9254,-14.9128,-14.7806,-14.6358,-14.4848,-14.3589,-14.2204,-14.0945,-14.0882,-14.0,-13.8427,-13.5657,-13.3768,-13.2572,-13.2572,-13.4398,-13.7231,-14.0,-14.1826,-14.2959,-14.3022,-14.4974,-14.7114,-14.7177,-14.8184,-14.9002,-14.7617,-14.8247,-14.8939,-14.7554,-14.831,-14.9254,-14.9254,-14.9254,-14.9254,-14.9254,-14.9254,-14.9254,-14.9254,-14.9254,-14.9254,-14.9254,-14.9254,-14.9254,-14.9254,-14.9254,-14.9254,-14.9254,-14.8058,-14.7806,-14.9191,-14.8058,-14.7806,-14.9191,-14.9254,-14.8625,-14.7177,-14.447,-14.17,-13.8804,-13.6098,-13.3957,-13.2572,-13.2572,-13.2572,-13.2572,-13.2572,-13.2572,-10.0019,-9.9681,-9.7623,-9.4578,-9.265,-9.0988,-8.8581,-8.2614,-7.7516,-7.724,-7.6188,0.0,0.0,0.0,-7.6559,-7.6931,0.0,-7.8008,-7.7684,-7.897,-8.4603,-9.7527,-10.4322,-11.0225,-11.6017,-11.5702,-11.7339,-12.2473,-12.6152,-12.867,-12.9929,-13.5972,-14.0945,-14.4344,-14.4785,-14.5981,-14.8121,-14.8499,-14.8688,-14.8688,-14.8688,-14.8939,-14.9254,-14.9254,-14.8751,-14.7743,-14.7366,-14.5792,-14.3526,-14.3148,-14.2204,-14.0819,-13.9812,-13.8616,-13.7168,-13.5342,-13.3768,-13.2572,-13.2572,-13.3768,-13.572,-13.849,-14.0378,-14.17,-14.2707,-14.4218,-14.5792,-14.6862,-14.8184,-14.9191,-14.8813,-14.9002,-14.9191,-14.8813,-14.9002,-14.9254,-14.9254,-14.9254,-14.9254,-14.9254,-14.9254,-14.9254,-14.9254,-14.9254,-14.9254,-14.9254,-14.9254,-14.9254,-14.9254,-14.9254,-14.9254,-14.9254,-14.8939,-14.8876,-14.9254,-14.8939,-14.8876,-14.9254,-14.9254,-14.8184,-14.5666,-14.3966,-14.1259,-13.7482,-13.5594,-13.3957,-13.2572,-13.2572,-13.2572,-13.2572,-13.2572,-13.2572,-8.9337,-8.8577,-8.7116,-8.6596,-8.5285,-8.4223,-8.3947,-7.9723,-7.591,-7.6069,0.0,0.0,0.0,0.0,0.0,0.0,-7.9458,-8.0925,-8.3266,-8.599,-9.1911,-10.2885,-10.9298,-11.438,-11.8409,-12.0108,-12.3445,-12.9425,-13.2069,-13.358,-13.402,-13.8238,-14.1952,-14.4911,-14.5603,-14.6988,-14.9254,-14.9254,-14.9254,-14.9254,-14.9254,-14.9254,-14.9254,-14.9254,-14.8499,-14.7177,-14.6547,-14.5036,-14.2959,-14.2393,-14.17,-14.0756,-13.8741,-13.7168,-13.5783,-13.4335,-13.3643,-13.3391,-13.2761,-13.3894,-13.5783,-13.6727,-13.8427,-14.0315,-14.17,-14.3085,-14.447,-14.5855,-14.7303,-14.8436,-14.8436,-14.8813,-14.9128,-14.8562,-14.8876,-14.9254,-14.9254,-14.9254,-14.9254,-14.9254,-14.9254,-14.9254,-14.9254,-14.9254,-14.9254,-14.9254,-14.9254,-14.9254,-14.9254,-14.9254,-14.9254,-14.9254,-14.9254,-14.9254,-14.9254,-14.9254,-14.9254,-14.9254,-14.9254,-14.8247,-14.5981,-14.2896,-14.0126,-13.7734,-13.572,-13.4587,-13.4335,-13.3768,-13.3139,-13.2572,-13.3202,-13.3139,-8.0281,-7.8447,-7.7364,-7.7527,-7.6146,-7.4713,-7.5176,0.0,-7.6162,-7.6288,0.0,-7.9705,-7.9255,0.0,0.0,-7.9863,-8.1666,-8.4848,-8.9716,-9.6077,-10.1424,-10.488,-11.1837,-11.6183,-11.5994,-12.5144,-13.2195,-13.4902,-13.9749,-14.1574,-13.9434,-14.17,-14.3715,-14.5162,-14.6484,-14.7869,-14.9254,-14.9254,-14.9254,-14.9254,-14.9128,-14.9128,-14.9254,-14.8939,-14.8121,-14.6862,-14.5414,-14.4029,-14.2707,-14.1448,-14.0819,-14.0441,-13.8175,-13.6412,-13.4964,-13.358,-13.3768,-13.4524,-13.3265,-13.4398,-13.6161,-13.5027,-13.6475,-13.8867,-14.0252,-14.1763,-14.3274,-14.4596,-14.6044,-14.724,-14.7366,-14.8373,-14.9002,-14.7743,-14.8373,-14.9254,-14.9254,-14.9254,-14.9254,-14.9254,-14.9254,-14.9254,-14.9254,-14.9254,-14.9254,-14.9254,-14.9254,-14.9254,-14.9254,-14.9254,-14.9254,-14.9254,-14.9254,-14.9254,-14.9254,-14.9254,-14.9254,-14.9254,-14.9254,-14.8625,-14.724,-14.2267,-13.9308,-13.8804,-13.6223,-13.5468,-13.6601,-13.5468,-13.4335,-13.3328,-13.4209,-13.402,-7.8413,-7.709,-7.5791,-7.5638,-7.5122,-7.491,0.0,0.0,0.0,-8.6681,-9.1561,-9.4869,-9.2088,-9.1576,-9.1763,-9.2654,-9.4051,-9.5377,-9.6174,-10.8575,-11.9353,-12.448,-12.8449,-13.0243,-12.911,-13.1943,-13.5027,-13.7797,-13.9056,-14.0378,-14.2141,-14.2707,-14.4155,-14.6673,-14.7051,-14.7869,-14.9254,-14.9254,-14.9254,-14.9254,-14.8121,-14.8184,-14.9191,-14.6862,-14.5666,-14.5351,-14.3966,-14.2644,-14.1322,-14.1071,-14.0252,-13.9308,-13.9875,-13.9245,-13.786,-13.6538,-13.5468,-13.465,-13.4335,-13.3894,-13.3517,-13.4398,-13.5846,-13.7482,-13.8804,-14.1008,-14.3274,-14.4596,-14.6044,-14.7429,-14.8562,-14.9065,-14.9191,-14.8939,-14.9065,-14.9254,-14.9254,-14.9254,-14.9254,-14.9254,-14.9254,-14.9254,-14.9254,-14.9254,-14.9254,-14.9254,-14.9254,-14.9254,-14.9254,-14.9254,-14.9254,-14.9254,-14.9254,-14.9254,-14.9254,-14.9254,-14.9254,-14.9254,-14.9254,-14.8625,-14.724,-14.5036,-14.2267,-13.8867,-13.7231,-13.5972,-13.509,-13.6035,-13.6853,-13.7545,-13.5594,-13.4524,-7.6889,-7.6079,-7.5345,-7.5248,-7.4923,0.0,0.0,-7.9896,-8.3764,-8.8646,-9.3152,-9.6584,-9.8254,-9.9654,-10.091,-10.2162,-10.2913,-10.474,-10.8528,-11.9063,-12.6718,-12.7411,-13.1754,-13.4398,-13.3706,-13.4902,-13.6802,-13.9325,-14.0883,-14.2133,-14.3064,-14.4344,-14.5729,-14.7114,-14.7869,-14.8562,-14.9254,-14.9254,-14.9254,-14.9254,-14.8562,-14.8247,-14.8184,-14.7492,-14.6358,-14.4974,-14.4281,-14.3589,-14.2896,-14.2267,-14.1134,-13.9875,-13.9875,-13.9056,-13.7671,-13.6286,-13.5783,-13.5594,-13.4146,-13.3643,-13.3643,-13.3643,-13.4587,-13.6035,-13.742,-13.9308,-14.1385,-14.34,-14.5036,-14.6421,-14.7869,-14.8751,-14.9254,-14.9254,-14.8751,-14.8247,-14.8247,-14.8247,-14.8247,-14.8247,-14.8813,-14.9065,-14.8373,-14.8813,-14.9254,-14.9254,-14.9254,-14.9254,-14.9254,-14.9254,-14.9254,-14.9254,-14.9254,-14.9254,-14.9254,-14.9254,-14.9254,-14.9254,-14.9254,-14.831,-14.617,-14.5414,-14.3022,-13.893,-13.8175,-13.786,-13.7797,-13.8553,-13.8175,-13.6727,-13.6098,-13.5342,-7.6048,-7.5505,-7.5399,-7.5399,-7.5276,0.0,-7.7351,-8.0074,-8.4205,-9.1054,-9.5944,-10.033,-10.4677,-10.7415,-10.9254,-11.0157,-11.0267,-11.3093,-12.099,-12.7033,-12.9551,-12.6781,-13.1758,-13.5487,-13.5487,-13.6713,-13.8476,-14.0488,-14.2927,-14.4152,-14.3883,-14.5981,-14.7303,-14.7554,-14.8688,-14.9254,-14.9254,-14.9254,-14.9254,-14.9254,-14.9002,-14.831,-14.7177,-14.7806,-14.6925,-14.4974,-14.4722,-14.4785,-14.4911,-14.3589,-14.2393,-14.1259,-14.0063,-13.8804,-13.7482,-13.6035,-13.6035,-13.6475,-13.3894,-13.3517,-13.4083,-13.295,-13.3706,-13.5342,-13.6475,-13.7986,-13.9686,-14.1952,-14.3777,-14.5351,-14.6799,-14.8247,-14.9254,-14.9254,-14.8184,-14.724,-14.7554,-14.7366,-14.7114,-14.6799,-14.768,-14.8184,-14.7366,-14.8121,-14.8939,-14.9254,-14.9254,-14.9254,-14.9254,-14.9254,-14.9254,-14.9254,-14.9254,-14.9254,-14.9254,-14.9254,-14.9254,-14.9254,-14.9002,-14.768,-14.5099,-14.4722,-14.2896,-13.9308,-13.9245,-13.9686,-14.0504,-14.0819,-13.9182,-13.5909,-13.6853,-13.6601,-7.6266,-7.5887,-7.5399,-7.5399,-7.6137,0.0,-7.8356,-8.9661,-10.0545,-10.2343,-11.3674,-12.2126,-11.8131,-11.7371,-11.7285,-11.7411,-11.7475,-12.0208,-12.8386,-13.0117,-13.1313,-13.3328,-13.6232,-13.8027,-13.8027,-13.9137,-14.0523,-14.1793,-14.2787,-14.4198,-14.661,-14.7051,-14.7743,-14.9002,-14.9191,-14.9254,-14.9254,-14.9254,-14.9254,-14.9254,-14.7995,-14.7366,-14.7114,-14.4785,-14.4155,-14.4911,-14.3777,-14.3903,-14.4911,-14.3589,-14.2959,-14.277,-14.2644,-14.17,-14.0315,-13.8867,-13.7734,-13.6601,-13.5027,-13.3706,-13.2761,-13.2635,-13.4398,-13.6664,-13.679,-13.8679,-14.0756,-14.1071,-14.3022,-14.5351,-14.6799,-14.8247,-14.9254,-14.9254,-14.8184,-14.7554,-14.8813,-14.8058,-14.6799,-14.5477,-14.5351,-14.5855,-14.6988,-14.7303,-14.7806,-14.9128,-14.9254,-14.9254,-14.9254,-14.9254,-14.9254,-14.9254,-14.9254,-14.9254,-14.9254,-14.9254,-14.9254,-14.9254,-14.8121,-14.6673,-14.5036,-14.3903,-14.2456,-14.0756,-14.0693,-14.0189,-13.9056,-14.0315,-14.0693,-14.0189,-13.9119,-13.8553,-7.5578,-7.5675,-7.5536,-7.6318,0.0,0.0,-8.1211,-8.9472,-9.7473,-10.1283,-11.152,-11.9585,-11.8802,-12.1092,-12.3122,-12.3122,-12.3122,-12.4817,-12.9642,-13.113,-13.2932,-13.6152,-13.8286,-13.9822,-14.0473,-14.2494,-14.4237,-14.5313,-14.2721,-14.3422,-14.8779,-14.869,-14.8688,-14.9254,-14.9254,-14.9254,-14.9254,-14.9254,-14.9254,-14.9254,-14.7869,-14.6736,-14.5855,-14.4722,-14.4029,-14.384,-14.3274,-14.3777,-14.4911,-14.3589,-14.3022,-14.2959,-14.2141,-14.1448,-14.0756,-13.9371,-13.849,-13.7797,-13.6412,-13.5594,-13.509,-13.509,-13.5909,-13.6979,-13.7797,-13.8804,-13.9875,-14.0693,-14.1763,-14.3148,-14.5351,-14.6988,-14.8058,-14.8058,-14.6358,-14.5162,-14.6484,-14.5729,-14.5036,-14.6107,-14.6925,-14.7429,-14.724,-14.7869,-14.8625,-14.9191,-14.9254,-14.9254,-14.9254,-14.9254,-14.9254,-14.9254,-14.9254,-14.9254,-14.9254,-14.9254,-14.9254,-14.9254,-14.7995,-14.6547,-14.5036,-14.3715,-14.2393,-14.0945,-14.0945,-14.063,-14.0063,-14.063,-14.0945,-14.0882,-13.9497,-13.8427,-7.474,0.0,0.0,0.0,0.0,0.0,-8.304,-9.0425,-9.7517,-10.1201,-11.0726,-11.8796,-12.0171,-12.3696,-12.631,-12.631,-12.6589,-12.7591,-12.9892,-13.2208,-13.4715,-13.7556,-14.0055,-14.2011,-14.3535,-14.5506,-14.7257,-14.8718,-14.5087,-14.5014,-15.023,-14.9947,-14.9583,-14.9254,-14.9254,-14.9254,-14.9254,-14.9254,-14.9254,-14.9254,-14.7869,-14.6421,-14.4974,-14.4596,-14.3903,-14.3022,-14.3022,-14.3337,-14.3777,-14.2833,-14.2456,-14.233,-14.1322,-14.0945,-14.0756,-13.9371,-13.8804,-13.8616,-13.7294,-13.6853,-13.6853,-13.6853,-13.7105,-13.7608,-13.8553,-13.9119,-13.9623,-14.063,-14.0945,-14.1448,-14.384,-14.5792,-14.7177,-14.7177,-14.5666,-14.4407,-14.5414,-14.4533,-14.4281,-14.6736,-14.768,-14.7932,-14.7303,-14.7995,-14.8813,-14.9254,-14.9254,-14.9254,-14.9254,-14.9254,-14.9254,-14.9254,-14.9254,-14.9254,-14.9254,-14.9254,-14.9254,-14.9254,-14.7617,-14.6107,-14.5036,-14.3337,-14.1952,-14.0945,-14.0945,-14.0945,-14.0945,-14.0945,-14.0945,-14.0882,-13.9875,-13.8867,0.0,0.0,0.0,-7.686,-7.9439,-8.191,-8.2649,-9.6117,-10.7873,-10.5974,-11.759,-12.7662,-12.6403,-12.6184,-12.631,-12.631,-12.7234,-12.8461,-13.0372,-13.3857,-13.6724,-13.8223,-14.1724,-14.4891,-14.7291,-14.7583,-14.8783,-15.1346,-15.0602,-15.023,-15.0487,-15.0626,-15.0388,-14.9254,-14.9254,-14.9254,-14.9254,-14.9254,-14.9254,-14.9254,-14.7869,-14.6421,-14.4974,-14.3652,-14.3085,-14.3022,-14.3022,-14.2267,-14.1071,-14.1008,-14.1008,-14.1008,-14.0945,-14.0945,-14.0756,-13.9371,-13.8804,-13.8616,-13.7294,-13.6853,-13.6853,-13.6853,-13.7734,-13.8741,-13.8804,-13.9812,-14.0882,-14.0945,-14.0945,-14.1259,-14.2707,-14.5099,-14.7177,-14.7177,-14.7114,-14.7051,-14.7114,-14.5981,-14.5351,-14.6862,-14.6044,-14.554,-14.6925,-14.724,-14.7743,-14.9065,-14.9254,-14.9254,-14.9254,-14.9254,-14.9254,-14.9254,-14.9254,-14.9254,-14.9254,-14.9254,-14.9254,-14.9254,-14.661,-14.5036,-14.4974,-14.2393,-14.0945,-14.0945,-14.0945,-14.0945,-14.0945,-14.0945,-14.0945,-14.0945,-14.0882,-14.0819,-7.9927,-7.9241,-7.8881,-8.8582,-8.6872,-8.5349,-9.5046,-10.3093,-10.8527,-10.8797,-11.8583,-12.5837,-12.1682,-12.3193,-12.558,-12.7108,-12.8454,-13.0094,-13.2221,-13.602,-13.8997,-14.0178,-14.3922,-14.7127,-14.8675,-15.0539,-15.2108,-15.302,-15.0049,-14.9632,-15.2772,-14.8583,-14.7392,-15.0261,-14.9692,-14.9254,-14.9254,-14.9254,-14.9254,-14.9254,-14.6862,-14.5477,-14.4911,-14.2644,-14.1637,-14.1637,-14.1637,-14.1385,-14.0945,-14.0945,-14.0945,-14.0945,-14.0945,-14.0945,-14.0882,-14.0378,-14.0252,-14.0189,-13.9686,-13.956,-13.956,-13.956,-13.9875,-14.0252,-14.0252,-14.0567,-14.0945,-14.0945,-14.0945,-14.1259,-14.2644,-14.4344,-14.5981,-14.6925,-14.6421,-14.5981,-14.6988,-14.7554,-14.7995,-14.8499,-14.8184,-14.7995,-14.8499,-14.8562,-14.8436,-14.7995,-14.8688,-14.8939,-14.7995,-14.8688,-14.9254,-14.9254,-14.9254,-14.9254,-14.9254,-14.9254,-14.8876,-14.7932,-14.6044,-14.4596,-14.3715,-14.1889,-14.0945,-14.0945,-14.0945,-14.0945,-14.0945,-14.0945,-14.0945,-14.0882,-14.0,-14.0,-8.2305,-8.2503,-8.3076,-9.5403,-9.2887,-9.0485,-10.2828,-10.7894,-11.0633,-11.3122,-12.0839,-12.5866,-12.1622,-12.3544,-12.6319,-12.8354,-13.0149,-13.2206,-13.4775,-13.8083,-14.0943,-14.2733,-14.5792,-14.8587,-15.082,-15.2691,-15.4006,-15.4466,-15.1902,-15.1421,-15.3993,-14.9978,-14.8546,-15.0734,-15.0172,-14.9692,-14.9254,-14.9254,-14.9254,-14.9254,-14.6358,-14.4974,-14.4911,-14.2141,-14.0945,-14.0945,-14.0945,-14.0945,-14.0945,-14.0945,-14.0945,-14.0945,-14.0945,-14.0945,-14.0945,-14.0945,-14.0945,-14.0945,-14.0945,-14.0945,-14.0945,-14.0945,-14.0945,-14.1008,-14.1511,-14.17,-14.17,-14.17,-14.17,-14.1763,-14.2141,-14.3274,-14.4659,-14.6044,-14.5666,-14.554,-14.7492,-14.8625,-14.9254,-14.9254,-14.9254,-14.9254,-14.9254,-14.9254,-14.8813,-14.7366,-14.8373,-14.8751,-14.7366,-14.8436,-14.9254,-14.9254,-14.9254,-14.9254,-14.9254,-14.9254,-14.8688,-14.7303,-14.5792,-14.4407,-14.3085,-14.17,-14.0945,-14.0945,-14.0945,-14.0945,-14.0945,-14.0945,-14.0945,-14.0882,-14.0,-14.0063,-8.1325,-8.4475,-8.7885,-9.8022,-9.77,-9.7155,-10.6479,-11.1043,-11.4591,-11.9084,-12.4546,-12.8067,-12.6254,-12.7134,-12.8536,-12.9938,-13.2169,-13.4674,-13.7538,-13.9965,-14.2566,-14.5432,-14.706,-14.9467,-15.3383,-15.3875,-15.4466,-15.5782,-15.5913,-15.5354,-15.4289,-15.4188,-15.3168,-15.0968,-15.0861,-15.0388,-14.9317,-14.9254,-14.9254,-14.9128,-14.6358,-14.4974,-14.4891,-14.2141,-14.0945,-14.1048,-14.0945,-14.0945,-14.0945,-14.0945,-14.0945,-14.0945,-14.0945,-14.0945,-14.0945,-14.0945,-14.0945,-14.0945,-14.0945,-14.0945,-14.0945,-14.0945,-14.0945,-14.1197,-14.2581,-14.3022,-14.3022,-14.3085,-14.3085,-14.2707,-14.1385,-14.2015,-14.3337,-14.4596,-14.4974,-14.5855,-14.8562,-14.9191,-14.9191,-14.9254,-14.9254,-14.9254,-14.9254,-14.9254,-14.8813,-14.7366,-14.8373,-14.8751,-14.7366,-14.8436,-14.9254,-14.9254,-14.9254,-14.9254,-14.9364,-14.9364,-14.8734,-14.7285,-14.6006,-14.4556,-14.3064,-14.1741,-14.1048,-14.0945,-14.1048,-14.1048,-14.0945,-14.0945,-14.0945,-14.0945,-14.0945,-14.0945,-8.991,-9.0406,-9.1222,-11.0162,-10.8291,-10.4918,-11.7362,-11.9232,-11.9676,-12.4776,-12.7531,-12.8912,-12.8474,-12.9526,-13.0939,-13.2416,-13.4742,-13.693,-13.8528,-14.1828,-14.4485,-14.5657,-14.8645,-15.1483,-15.3515,-15.4729,-15.5519,-15.5847,-15.5913,-15.5749,-15.5453,-15.4591,-15.3579,-15.2235,-15.1287,-15.0388,-14.9317,-14.9254,-14.8751,-14.768,-14.5855,-14.4894,-14.4654,-14.2116,-14.1295,-14.2012,-14.1192,-14.0945,-14.0945,-14.0945,-14.0945,-14.0945,-14.0945,-14.0945,-14.0945,-14.0945,-14.0945,-14.0945,-14.0945,-14.0945,-14.0945,-14.0945,-14.0945,-14.1197,-14.2581,-14.3022,-14.3211,-14.4218,-14.3777,-14.2959,-14.2581,-14.277,-14.3085,-14.3463,-14.5099,-14.6799,-14.7554,-14.7743,-14.7995,-14.9065,-14.9254,-14.9254,-14.9254,-14.9254,-14.8813,-14.7366,-14.8373,-14.8751,-14.7366,-14.8436,-14.9254,-14.9254,-14.9254,-14.9583,-15.0388,-15.0496,-14.9736,-14.8149,-14.774,-14.5987,-14.2749,-14.2304,-14.1706,-14.0945,-14.1706,-14.1706,-14.0945,-14.0945,-14.0945,-14.0945,-14.0945,-14.0945,-8.8773,-9.1612,-9.5691,-11.2531,-11.044,-10.821,-12.3381,-12.3327,-12.2016,-12.8651,-13.0216,-13.0478,-13.0779,-13.1985,-13.3215,-13.4056,-13.6411,-13.8684,-14.0572,-14.3188,-14.5865,-14.8085,-15.0301,-15.2428,-15.4532,-15.5453,-15.5913,-15.5913,-15.5913,-15.5913,-15.5913,-15.5255,-15.4188,-15.2652,-15.1921,-15.0861,-14.9317,-14.9254,-14.9095,-14.8753,-14.6728,-14.5334,-14.4557,-14.203,-14.1706,-14.3058,-14.2114,-14.1295,-14.0945,-14.0945,-14.0945,-14.0945,-14.0945,-14.0945,-14.0945,-14.0945,-14.0945,-14.0945,-14.0945,-14.0945,-14.0945,-14.0945,-14.0945,-14.1322,-14.3274,-14.3903,-14.4155,-14.554,-14.5414,-14.4596,-14.3337,-14.3022,-14.3022,-14.3022,-14.4218,-14.5351,-14.5351,-14.5792,-14.6484,-14.724,-14.7366,-14.7366,-14.7366,-14.7932,-14.7869,-14.6421,-14.7429,-14.8058,-14.7303,-14.7869,-14.8625,-14.9254,-14.9692,-15.0172,-15.0754,-15.1287,-15.0959,-14.9393,-14.8684,-14.703,-14.4181,-14.3477,-14.2657,-14.1603,-14.2215,-14.2215,-14.1603,-14.1152,-14.0945,-14.0945,-14.0945,-14.063,-8.3245,-9.0479,-9.9849,-11.0124,-10.9524,-11.0396,-12.5338,-12.4872,-12.3487,-13.1235,-13.2661,-13.2712,-13.2949,-13.449,-13.5686,-13.5662,-13.8097,-14.0743,-14.2869,-14.4405,-14.6904,-15.1113,-15.1573,-15.2691,-15.565,-15.5913,-15.5913,-15.5913,-15.5913,-15.5913,-15.5913,-15.5749,-15.4757,-15.2652,-15.2548,-15.1733,-14.9726,-14.9945,-15.038,-15.1116,-14.8314,-14.6125,-14.4506,-14.2173,-14.2317,-14.4146,-14.2958,-14.2012,-14.1152,-14.1048,-14.0945,-14.0945,-14.1152,-14.1048,-14.0945,-14.1152,-14.1048,-14.0945,-14.0945,-14.0945,-14.0945,-14.0945,-14.0945,-14.1448,-14.4155,-14.4974,-14.5351,-14.6988,-14.7366,-14.661,-14.3966,-14.3148,-14.2959,-14.277,-14.277,-14.277,-14.3022,-14.3903,-14.4785,-14.4974,-14.4974,-14.4974,-14.4974,-14.6044,-14.6484,-14.5162,-14.6107,-14.6862,-14.6862,-14.6862,-14.7429,-14.9095,-14.9963,-15.0777,-15.1223,-15.2235,-15.2149,-15.0739,-14.9605,-14.8184,-14.6178,-14.5082,-14.4044,-14.2857,-14.2857,-14.2857,-14.2657,-14.1808,-14.1295,-14.1295,-14.1295,-14.0664,-8.2991,-9.0479,-10.0101,-11.1342,-11.644,-11.9297,-12.1785,-12.4816,-12.8231,-13.243,-13.4513,-13.5468,-13.4643,-13.7303,-13.9402,-13.8619,-14.1644,-14.4158,-14.4603,-14.5918,-14.7956,-15.1179,-15.1573,-15.2691,-15.565,-15.5913,-15.5913,-15.5913,-15.5913,-15.5913,-15.5913,-15.4957,-15.3884,-15.2652,-15.2548,-15.2498,-15.2319,-15.329,-15.3397,-15.258,-14.9884,-14.6984,-14.4074,-14.2784,-14.3356,-14.5214,-14.3356,-14.2418,-14.2215,-14.1295,-14.0945,-14.1048,-14.191,-14.1706,-14.0985,-14.191,-14.1706,-14.0945,-14.0945,-14.0945,-14.0945,-14.0945,-14.0945,-14.1448,-14.4155,-14.4974,-14.554,-14.8184,-14.8058,-14.6799,-14.5099,-14.384,-14.2707,-14.1574,-14.1259,-14.1637,-14.277,-14.3211,-14.3715,-14.4785,-14.4974,-14.4974,-14.4974,-14.5225,-14.5288,-14.5036,-14.5225,-14.5351,-14.5351,-14.5351,-14.6346,-14.876,-14.91,-15.0389,-15.3347,-15.3783,-15.3182,-15.1521,-15.2242,-15.061,-14.5926,-14.6609,-14.6447,-14.5118,-14.5021,-14.4634,-14.3753,-14.3555,-14.3456,-14.3456,-14.3456,-14.3327,-8.6738,-9.1128,-9.5327,-10.0087,-10.4879,-11.184,-12.4529,-12.6189,-12.6816,-13.2875,-13.2947,-13.2945,-13.6236,-13.8334,-13.9692,-13.9968,-14.2228,-14.4142,-14.4931,-14.6247,-14.8219,-15.1244,-15.1573,-15.2691,-15.565,-15.5913,-15.5913,-15.5913,-15.5913,-15.5913,-15.5913,-15.5354,-15.4556,-15.3476,-15.3374,-15.3569,-15.393,-15.4462,-15.4778,-15.4778,-15.0732,-14.7918,-14.6173,-14.479,-14.4634,-14.5501,-14.4537,-14.3456,-14.2455,-14.2455,-14.2215,-14.1808,-14.2857,-14.2657,-14.1808,-14.2317,-14.1808,-14.0945,-14.0945,-14.0945,-14.0945,-14.0945,-14.0945,-14.1448,-14.4155,-14.4974,-14.5603,-14.8499,-14.8813,-14.7743,-14.554,-14.4533,-14.3526,-14.1448,-14.0945,-14.1134,-14.1763,-14.1952,-14.2141,-14.277,-14.2896,-14.2896,-14.2896,-14.2896,-14.3148,-14.384,-14.3966,-14.443,-14.5695,-14.5188,-14.5733,-14.8341,-14.9729,-15.1192,-15.2916,-15.4299,-15.4666,-15.394,-15.3809,-15.2301,-14.8871,-14.9364,-14.8645,-14.642,-14.5882,-14.531,-14.4828,-14.4342,-14.4048,-14.4048,-14.4048,-14.3662,-8.9217,-9.0808,-9.1061,-9.3025,-9.4996,-10.2178,-12.3896,-12.4776,-12.3645,-13.3231,-13.2196,-13.1451,-13.7501,-13.8619,-13.9211,-14.092,-14.2367,-14.3814,-14.526,-14.6444,-14.8154,-15.085,-15.1376,-15.2625,-15.519,-15.5716,-15.5913,-15.5913,-15.5913,-15.5913,-15.5913,-15.5651,-15.5287,-15.4644,-15.4383,-15.4756,-15.5997,-15.5949,-15.6237,-15.6857,-15.2226,-14.9459,-14.827,-14.6415,-14.5597,-14.5597,-14.5597,-14.4634,-14.3157,-14.3851,-14.3555,-14.2958,-14.395,-14.3555,-14.2455,-14.2757,-14.2012,-14.0945,-14.0945,-14.0945,-14.0945,-14.0945,-14.0945,-14.1448,-14.4155,-14.4974,-14.5603,-14.8499,-14.9254,-14.8625,-14.5729,-14.4974,-14.4407,-14.1952,-14.1134,-14.0945,-14.0945,-14.0945,-14.0945,-14.0945,-14.0945,-14.0945,-14.0945,-14.1152,-14.1571,-14.281,-14.3145,-14.3939,-14.5781,-14.5118,-14.5397,-14.7883,-15.0242,-15.1945,-15.273,-15.4961,-15.611,-15.5453,-15.4993,-15.348,-15.0718,-15.1244,-15.0192,-14.7233,-14.6355,-14.5882,-14.5882,-14.5118,-14.4731,-14.4731,-14.4731,-14.4149,-8.5749,-8.7801,-9.1577,-10.4786,-10.24,-9.9763,-11.1186,-11.5624,-12.0985,-13.3734,-13.5988,-13.6251,-13.8224,-13.8619,-13.9474,-14.2235,-14.3879,-14.5326,-14.6773,-14.7102,-14.7759,-14.9469,-15.0784,-15.2231,-15.3809,-15.5124,-15.5913,-15.5913,-15.5913,-15.5913,-15.5913,-15.4957,-15.494,-15.6308,-15.4904,-15.6038,-16.0136,-15.9832,-15.928,-15.8354,-15.5323,-15.1921,-14.8233,-14.6415,-14.5597,-14.5597,-14.5597,-14.5501,-14.5214,-14.4439,-14.395,-14.4048,-14.5021,-14.4244,-14.2556,-14.3555,-14.2657,-14.0945,-14.0945,-14.0945,-14.0945,-14.0945,-14.0945,-14.1448,-14.4155,-14.4974,-14.5603,-14.8499,-14.9254,-14.8625,-14.5729,-14.4974,-14.4596,-14.3211,-14.1889,-14.0945,-14.0945,-14.0945,-14.0945,-14.0945,-14.0945,-14.0945,-14.0945,-14.1706,-14.2418,-14.2545,-14.3349,-14.401,-14.4173,-14.4207,-14.5116,-14.7518,-14.9307,-15.1753,-15.5257,-15.6965,-15.6702,-15.4138,-15.6308,-15.4598,-14.7825,-15.0126,-15.0192,-14.7233,-14.7075,-14.7075,-14.7075,-14.6982,-14.6823,-14.6823,-14.6823,-14.6757,-8.2119,-8.329,-8.4864,-9.35,-9.6649,-9.8465,-10.1767,-10.7652,-11.5688,-12.7491,-13.0596,-13.053,-12.8558,-13.3884,-13.8093,-13.658,-14.046,-14.4208,-14.5655,-14.6641,-14.7693,-14.9272,-15.0718,-15.2165,-15.3612,-15.5058,-15.5913,-15.5913,-15.5913,-15.5913,-15.5913,-15.5453,-15.591,-15.7351,-15.5976,-15.6893,-16.0365,-16.0248,-15.9526,-15.8269,-15.5635,-15.2956,-15.0284,-14.7729,-14.6543,-14.6543,-14.6543,-14.6543,-14.6449,-14.6072,-14.5597,-14.5118,-14.6072,-14.5692,-14.4342,-14.4146,-14.3157,-14.1808,-14.1089,-14.0945,-14.0945,-14.0945,-14.0945,-14.1448,-14.4155,-14.4974,-14.5603,-14.8499,-14.9254,-14.8813,-14.6862,-14.5666,-14.4659,-14.3337,-14.1952,-14.0945,-14.0945,-14.0945,-14.1152,-14.1706,-14.191,-14.2114,-14.2657,-14.3157,-14.3456,-14.3456,-14.3753,-14.4244,-14.4925,-14.5021,-14.5991,-14.8448,-15.0932,-15.3289,-15.5716,-15.7228,-15.7491,-15.6373,-15.6571,-15.3809,-14.743,-14.9206,-14.9337,-14.7167,-14.7167,-14.7167,-14.7167,-14.7167,-14.7167,-14.7167,-14.7167,-14.7167,-7.8668,-7.9546,-8.0248,-8.6184,-9.0923,-9.5752,-10.1535,-10.513,-11.0442,-12.1971,-12.6782,-12.79,-12.4481,-12.9807,-13.4147,-13.2306,-13.6317,-14.092,-14.4537,-14.5918,-14.7102,-14.8614,-15.0455,-15.1968,-15.302,-15.4795,-15.5913,-15.5913,-15.5913,-15.5913,-15.5913,-15.5913,-15.6571,-15.7952,-15.6636,-15.7294,-16.0187,-15.9727,-15.9004,-15.7952,-15.5418,-15.3257,-15.1507,-14.8482,-14.7167,-14.7167,-14.7167,-14.7167,-14.7167,-14.7167,-14.6543,-14.5692,-14.673,-14.6355,-14.5021,-14.4342,-14.3356,-14.2354,-14.1295,-14.0945,-14.0945,-14.0945,-14.0945,-14.1448,-14.4155,-14.4974,-14.5603,-14.8499,-14.9254,-14.8939,-14.7554,-14.6107,-14.4765,-14.3757,-14.1845,-14.0441,-14.0819,-14.0774,-14.1097,-14.229,-14.2757,-14.3157,-14.395,-14.4342,-14.4537,-14.4537,-14.4828,-14.5344,-14.663,-14.6725,-14.7663,-14.9835,-15.2691,-15.4795,-15.5847,-15.7623,-15.8149,-15.6834,-15.6242,-15.348,-14.8088,-14.8877,-14.8745,-14.7167,-14.7167,-14.7167,-14.7167,-14.7167,-14.7167,-14.7167,-14.7167,-14.7167,-7.5391,-7.7018,-7.9755,-8.8988,-8.8081,-9.065,-11.2876,-10.9596,-10.5674,-11.8628,-12.6979,-13.1517,-13.007,-12.7571,-12.7045,-13.132,-13.2043,-13.5133,-14.3814,-14.5063,-14.5589,-14.697,-14.9798,-15.1573,-15.1639,-15.4203,-15.5913,-15.5913,-15.5913,-15.5913,-15.5913,-15.5913,-15.6571,-15.7952,-15.6636,-15.7294,-16.0187,-15.8741,-15.8017,-15.7952,-15.5124,-15.302,-15.1507,-14.8482,-14.7167,-14.7167,-14.7167,-14.7167,-14.7167,-14.7167,-14.6543,-14.5692,-14.673,-14.5882,-14.4048,-14.4048,-14.3356,-14.2354,-14.1295,-14.0945,-14.0945,-14.0945,-14.0945,-14.1448,-14.4155,-14.4974,-14.5603,-14.8499,-14.9254,-14.8939,-14.7554,-14.6107,-14.4977,-14.463,-14.1642,-13.9245,-14.063,-14.0629,-14.0799,-14.22,-14.3356,-14.4048,-14.4048,-14.4925,-14.5597,-14.5597,-14.6449,-14.7693,-14.9272,-14.9469,-14.9995,-15.1442,-15.4138,-15.5847,-15.5913,-15.8543,-15.8346,-15.4072,-15.5124,-15.394,-14.9666,-14.9469,-14.8745,-14.7167,-14.7167,-14.7167,-14.7167,-14.7167,-14.7167,-14.7167,-14.7167,-14.7167,-7.5443,-7.6366,-7.9584,-9.3091,-9.0161,-8.9505,-11.0478,-10.6713,-10.3569,-12.0732,-11.8168,-11.3631,-11.6064,-12.31,-12.8952,-13.0333,-13.4739,-13.9276,-14.3025,-14.4405,-14.5523,-14.697,-14.8943,-15.0521,-15.1507,-15.3349,-15.4861,-15.5847,-15.5913,-15.5913,-15.5913,-15.5913,-15.7031,-15.9398,-15.8083,-15.828,-16.0187,-15.9727,-15.8543,-15.6505,-15.3677,-15.2033,-15.1507,-14.8482,-14.7167,-14.7167,-14.7167,-14.7167,-14.7167,-14.7167,-14.6916,-14.6636,-14.7075,-14.673,-14.5977,-14.4537,-14.3851,-14.3257,-14.1501,-14.0945,-14.0945,-14.0945,-14.0945,-14.1448,-14.4155,-14.5568,-14.6666,-14.8717,-14.9738,-14.9855,-14.7771,-14.5947,-14.4256,-14.2512,-13.9702,-13.7608,-13.8049,-13.9236,-14.068,-14.1981,-14.3019,-14.4206,-14.5876,-14.5663,-14.5522,-14.6505,-14.6982,-14.7299,-14.7825,-14.8811,-14.9666,-15.0126,-15.3612,-15.6308,-15.7228,-15.7294,-15.6702,-15.5321,-15.3809,-15.1442,-14.8022,-14.7891,-14.7628,-14.7167,-14.7167,-14.7167,-14.7167,-14.7167,-14.7167,-14.7167,-14.7167,-14.7167,-7.5495,-7.6097,-7.8933,-9.1927,-8.8349,-8.6913,-10.6815,-10.1603,-9.7941,-11.6779,-11.329,-10.8293,-11.2836,-11.9417,-12.5204,-12.8492,-13.2832,-13.7238,-14.1446,-14.3288,-14.4734,-14.6181,-14.8219,-15.0061,-15.1442,-15.2954,-15.4401,-15.5782,-15.5913,-15.5913,-15.5913,-15.6373,-15.7491,-15.9333,-15.9004,-15.9004,-15.9333,-15.9333,-15.8215,-15.5847,-15.3546,-15.2099,-15.1507,-14.914,-14.7693,-14.7167,-14.7167,-14.7167,-14.7167,-14.7167,-14.7167,-14.7167,-14.673,-14.6543,-14.6355,-14.4634,-14.4342,-14.4342,-14.2253,-14.1501,-14.1398,-14.1048,-14.1255,-14.2007,-14.4788,-14.6136,-14.719,-14.9304,-15.0388,-15.0309,-14.8083,-14.5819,-14.3559,-14.1695,-13.8957,-13.6858,-13.776,-13.8962,-14.0443,-14.2275,-14.342,-14.4719,-14.6812,-14.6444,-14.6115,-14.7036,-14.7167,-14.7365,-14.7956,-14.9337,-15.0455,-15.1047,-15.4006,-15.6439,-15.7886,-15.6702,-15.565,-15.5124,-15.1836,-14.9074,-14.7233,-14.7167,-14.7167,-14.7167,-14.7167,-14.7167,-14.7167,-14.7167,-14.7167,-14.7167,-14.7167,-14.7167,-7.5418,-7.6085,-7.8109,-8.7436,-8.414,-8.3608,-10.257,-9.5299,-8.9797,-10.8489,-11.09,-11.1536,-11.7428,-11.5998,-11.6787,-12.5664,-12.7703,-13.0925,-13.9013,-14.1249,-14.263,-14.4208,-14.697,-14.9272,-15.0784,-15.2559,-15.4269,-15.5782,-15.5913,-15.5913,-15.5913,-15.7228,-15.8017,-15.8149,-15.9596,-15.9661,-15.8149,-15.8149,-15.7163,-15.5256,-15.4138,-15.2691,-15.0916,-14.9798,-14.8548,-14.7102,-14.6838,-14.6838,-14.7102,-14.6838,-14.6904,-14.7075,-14.6072,-14.5692,-14.5597,-14.4439,-14.4634,-14.5214,-14.3157,-14.2354,-14.2215,-14.1295,-14.1603,-14.2927,-14.5894,-14.6762,-14.7272,-15.0139,-15.0904,-15.0351,-14.847,-14.5551,-14.2805,-14.2045,-13.8966,-13.6854,-13.9062,-13.939,-13.9934,-14.2668,-14.4065,-14.5326,-14.6773,-14.697,-14.7036,-14.7102,-14.7167,-14.7693,-14.9272,-15.0718,-15.2165,-15.3612,-15.5058,-15.6373,-15.7623,-15.6505,-15.5124,-15.3743,-14.9666,-14.7233,-14.7167,-14.7167,-14.7167,-14.7167,-14.7167,-14.7167,-14.7167,-14.7167,-14.7167,-14.7167,-14.7167,-14.7167,-7.4497,-7.5623,-7.9193,-9.1603,-8.6856,-8.3619,-10.0933,-9.2847,-8.7084,-10.6371,-10.0429,-9.5988,-10.9875,-10.9225,-10.9751,-11.9549,-12.7703,-13.3095,-13.3884,-13.4344,-13.5528,-13.8158,-14.0065,-14.217,-14.4668,-14.9272,-15.3151,-15.5716,-15.5913,-15.5913,-15.5913,-15.7228,-15.8543,-15.9661,-16.1042,-16.1108,-15.9727,-15.9661,-15.6176,-14.9206,-15.1179,-14.96,-14.4931,-14.6838,-14.7496,-14.697,-14.3682,-14.4077,-14.6904,-14.3616,-14.4142,-14.7167,-14.6823,-14.673,-14.6543,-14.4731,-14.4244,-14.4244,-14.2958,-14.2012,-14.1398,-14.191,-14.1706,-14.1967,-14.5687,-14.7278,-14.8508,-15.14,-15.14,-14.9715,-14.6345,-14.3889,-14.204,-14.0942,-13.8198,-13.6234,-13.7931,-13.877,-13.9349,-14.0065,-14.1932,-14.3814,-14.526,-14.5523,-14.5918,-14.697,-14.7167,-14.7693,-14.9272,-15.0718,-15.2165,-15.3612,-15.5058,-15.5584,-15.4861,-15.4466,-15.3677,-15.2165,-15.0126,-14.8417,-14.7167,-14.7167,-14.7167,-14.7167,-14.7167,-14.7167,-14.7167,-14.7167,-14.7167,-14.7167,-14.7167,-14.7167,-7.4784,-7.6086,-7.8803,-8.7501,-8.3511,-8.0363,-9.1317,-8.6069,-8.3425,-9.9386,-9.7694,-9.5939,-10.4418,-11.0855,-11.4019,-11.1239,-11.9529,-12.6453,-12.6979,-13.053,-13.2635,-13.1583,-13.8027,-14.2367,-14.1907,-14.7759,-15.2494,-15.4729,-15.5519,-15.5913,-15.5913,-15.7886,-15.9398,-16.0187,-16.2226,-16.2292,-16.0187,-16.0187,-15.5782,-14.7167,-15.085,-14.9206,-14.2959,-14.6575,-14.7825,-14.7036,-14.4668,-14.4997,-14.697,-14.4668,-14.5063,-14.7167,-14.7167,-14.6823,-14.6355,-14.5692,-14.5214,-14.4634,-14.3555,-14.2455,-14.1603,-14.1706,-14.1706,-14.2188,-14.5476,-14.7378,-14.8721,-15.0776,-15.0896,-14.9908,-14.7783,-14.4681,-14.2045,-14.1086,-13.8986,-13.7474,-13.8061,-13.8513,-13.9069,-13.9722,-14.0957,-14.2564,-14.4668,-14.5063,-14.5523,-14.6904,-14.7167,-14.7693,-14.9272,-15.0718,-15.2165,-15.3612,-15.5058,-15.5321,-15.3875,-15.4401,-15.3875,-15.1705,-14.96,-14.8022,-14.7167,-14.7167,-14.7167,-14.7167,-14.7167,-14.7167,-14.7167,-14.7167,-14.7167,-14.7167,-14.7167,-14.7167,-7.5237,-7.6487,-7.7755,-8.0855,-7.8527,-7.6545,-8.0697,-7.8964,-7.9636,-9.1135,-9.6659,-9.9507,-9.9777,-11.2079,-11.7541,-10.3235,-10.8679,-11.6261,-12.0338,-12.7506,-13.0662,-12.6125,-13.658,-14.3222,-14.0986,-14.7299,-15.2231,-15.3677,-15.5058,-15.5913,-15.5913,-15.8609,-16.0187,-16.0187,-16.3015,-16.3081,-16.0187,-16.0187,-15.5782,-14.7233,-15.1442,-14.9732,-14.2959,-14.7167,-14.8417,-14.7102,-14.6444,-14.651,-14.7102,-14.6444,-14.651,-14.7167,-14.7167,-14.6543,-14.5977,-14.6823,-14.6355,-14.5214,-14.4537,-14.3456,-14.2418,-14.1603,-14.191,-14.2912,-14.5623,-14.7404,-14.8736,-14.9274,-14.9918,-15.0223,-14.9566,-14.589,-14.2139,-14.1744,-14.0352,-13.9085,-13.8969,-13.875,-13.8947,-14.0197,-14.0591,-14.1512,-14.3945,-14.4734,-14.5392,-14.6312,-14.7102,-14.7956,-14.9337,-15.0916,-15.2494,-15.394,-15.519,-15.5256,-15.3612,-15.4532,-15.4072,-15.1442,-14.868,-14.7167,-14.7167,-14.7167,-14.7167,-14.7167,-14.7167,-14.7167,-14.7167,-14.7167,-14.7167,-14.7167,-14.7167,-14.7167,-7.4069,-7.5082,-7.6901,-8.0684,-7.8527,-7.6545,-8.0697,-7.8204,-7.7605,-8.6921,-8.763,-8.8369,-9.425,-9.6455,-9.8213,-10.0494,-10.3765,-10.9159,-11.8234,-12.1653,-12.3823,-12.5401,-12.8558,-13.3292,-14.0065,-14.7299,-15.2231,-15.3677,-15.5058,-15.5913,-15.5913,-15.8609,-16.0187,-16.0187,-16.3015,-16.3081,-16.0187,-16.0187,-15.5782,-14.7167,-15.0389,-14.8745,-14.2959,-14.6049,-14.7365,-14.697,-14.3288,-14.3748,-14.6838,-14.3222,-14.3879,-14.7167,-14.7167,-14.7075,-14.6982,-14.7075,-14.5882,-14.4439,-14.5118,-14.4146,-14.2556,-14.3356,-14.3058,-14.3113,-14.6413,-14.8591,-14.9437,-14.7918,-14.878,-14.9501,-14.6964,-14.3976,-14.1773,-14.29,-14.0808,-13.9035,-14.0197,-13.9474,-13.8684,-13.8882,-13.9934,-14.0854,-14.1315,-14.3419,-14.4668,-14.3682,-14.6707,-14.9206,-14.9469,-15.1836,-15.4006,-15.5387,-15.5782,-15.4795,-15.2165,-15.2099,-15.1573,-14.9929,-14.8154,-14.7167,-14.7167,-14.7167,-14.7167,-14.7167,-14.7167,-14.7167,-14.7167,-14.7167,-14.7167,-14.7167,-14.7167,-14.7167,-7.4734,-7.5059,-7.5638,-7.7708,-7.659,-7.5593,-7.7772,-7.637,-7.6725,-8.4009,-8.5315,-8.5941,-8.8642,-9.3744,-9.7632,-9.8021,-10.3282,-10.9559,-11.5851,-12.2048,-12.5862,-12.5599,-13.2372,-13.7764,-13.9408,-14.6838,-15.1902,-15.2559,-15.4664,-15.5913,-15.5913,-15.7886,-15.9398,-16.0187,-16.2226,-16.1897,-15.907,-15.9004,-15.4993,-14.7167,-15.0126,-14.7299,-13.9539,-14.48,-14.5852,-14.3682,-14.4077,-14.5326,-14.697,-14.4997,-14.5326,-14.7167,-14.7167,-14.7167,-14.7167,-14.7167,-14.6543,-14.5597,-14.5021,-14.4537,-14.4048,-14.3456,-14.3257,-14.3683,-14.5214,-14.768,-14.946,-14.7925,-14.8131,-14.8265,-14.6118,-14.4035,-14.2371,-14.2076,-14.0826,-13.9737,-13.9605,-13.9079,-13.8619,-13.8619,-13.9145,-13.9802,-14.0591,-14.1841,-14.2761,-14.2827,-14.5918,-14.8548,-14.9337,-15.2033,-15.4335,-15.5716,-15.519,-15.4203,-15.2888,-15.1376,-14.9798,-14.8285,-14.7562,-14.7167,-14.7167,-14.7167,-14.7167,-14.7167,-14.7167,-14.7167,-14.7167,-14.7167,-14.7167,-14.7167,-14.7167,-14.7167,-7.7328,0.0,-7.9241,-7.9802,-7.8336,-7.6995,0.0,-7.6091,-7.6036,-8.0873,-8.3533,-8.4616,-8.3354,-9.1439,-9.7368,-9.4141,-10.2143,-10.9738,-11.2544,-12.0427,-12.5886,-12.5664,-13.5923,-14.2367,-14.0789,-14.7299,-15.1573,-15.1573,-15.4269,-15.5913,-15.5913,-15.7228,-15.8543,-15.9661,-16.0714,-16.0253,-15.8017,-15.8017,-15.5058,-14.9206,-15.085,-14.697,-13.8684,-14.4471,-14.48,-14.0986,-14.526,-14.7167,-14.7167,-14.7167,-14.7167,-14.7167,-14.7167,-14.7167,-14.7167,-14.7167,-14.6982,-14.6543,-14.5214,-14.5021,-14.5021,-14.3654,-14.3753,-14.4439,-14.4731,-14.6991,-14.9215,-14.7931,-14.7935,-14.787,-14.6369,-14.4933,-14.3329,-14.1662,-14.0986,-14.0328,-13.8947,-13.8619,-13.8619,-13.8619,-13.8619,-13.8947,-14.0065,-14.0526,-14.1117,-14.217,-14.5392,-14.8088,-14.9337,-15.2296,-15.4598,-15.5321,-15.4401,-15.348,-15.2823,-15.0389,-14.8417,-14.7233,-14.7167,-14.7167,-14.7167,-14.7167,-14.7167,-14.7167,-14.7167,-14.7167,-14.7167,-14.7167,-14.7167,-14.7167,-14.7167,-14.697,0.0,-8.8561,-9.2522,-9.3012,-8.827,-8.3647,-8.4162,-7.9276,0.0,-7.6471,-7.9092,-8.0555,-7.8519,-8.303,-8.7229,-8.7635,-9.7044,-10.5059,-10.7326,-11.1695,-11.7406,-12.4731,-13.2372,-13.9539,-14.5918,-14.96,-15.1573,-15.1573,-15.4269,-15.5913,-15.5913,-15.7228,-15.8017,-15.8149,-15.828,-15.8215,-15.8017,-15.8017,-15.7097,-15.5256,-15.2757,-14.9074,-14.4471,-14.6312,-14.48,-14.0986,-14.526,-14.7167,-14.7167,-14.7167,-14.7167,-14.7167,-14.7167,-14.7167,-14.7167,-14.7167,-14.6543,-14.5787,-14.6636,-14.5692,-14.4342,-14.5118,-14.5406,-14.5692,-14.6636,-14.8126,-14.9206,-14.76,-14.8257,-14.898,-14.7469,-14.6023,-14.4512,-14.309,-14.1709,-14.0328,-13.8947,-13.8619,-13.8619,-13.8619,-13.8619,-13.8684,-13.875,-13.9868,-14.0789,-14.0854,-14.5721,-14.9337,-14.9469,-15.3151,-15.5256,-15.4072,-15.3875,-15.2691,-14.9995,-14.8285,-14.7233,-14.7167,-14.7167,-14.7167,-14.7167,-14.7167,-14.7167,-14.7167,-14.7167,-14.7167,-14.7167,-14.7167,-14.7167,-14.7167,-14.7167,-14.6444,-8.4505,-8.9349,-9.3811,-9.4371,-9.1235,-8.7481,-8.5444,-8.1627,-7.8198,-7.703,-7.6889,-7.6947,-7.673,-7.9291,-8.3622,-9.0144,-9.5289,-10.324,-11.6708,-11.8391,-12.2071,-13.2467,-13.7698,-14.217,-14.6707,-14.6575,-14.7693,-15.131,-15.0916,-15.2033,-15.5716,-15.6373,-15.7097,-15.7952,-15.7163,-15.7097,-15.8017,-15.7097,-15.6439,-15.5847,-15.2954,-14.9272,-14.5063,-14.651,-14.48,-14.0986,-14.526,-14.5655,0.0,-14.6049,-14.5589,-14.3419,-14.6115,-14.7167,-14.7167,-14.7167,-14.6823,-14.6543,-14.6261,-14.6072,-14.5882,-14.5692,-14.5597,-14.5787,-14.6823,-14.7562,-14.76,-14.5504,-14.5784,-14.5996,-14.3018,-14.2965,-14.3288,-14.1841,-14.046,-13.9474,-13.9868,-13.9211,-13.8619,-13.8619,-13.8619,-13.8619,-13.8619,-13.9079,-13.9737,-14.0591,-14.4142,-14.7036,-14.7891,-15.1047,-15.302,-15.2494,-15.1639,-15.0258,-14.8219,-14.7496,-14.7167,-14.7167,-14.7167,-14.7167,-14.7167,-14.7167,-14.7167,-14.7167,-14.7167,-14.7167,-14.7167,-14.7167,-14.6707,-14.5852,-14.5852,-14.5063,-9.0486,-9.5225,-9.9777,-10.0101,-9.7242,-9.3178,-8.8657,-8.4675,-8.0899,-7.7166,-7.5462,-7.4869,-7.5558,-7.7359,-8.1744,-9.106,-9.4111,-10.1563,-11.9524,-12.0272,-12.3498,-13.5406,-13.886,-14.1841,-14.6049,-14.5523,-14.6773,-15.1244,-15.0126,-15.1179,-15.565,-15.5913,-15.6308,-15.7294,-15.6373,-15.6373,-15.736,-15.6373,-15.565,-15.519,-15.2757,-14.9009,-14.4405,-14.6312,-14.48,-14.0986,-14.526,-14.4668,-14.1052,-14.5392,-14.4603,-14.1183,-14.5458,-14.7167,-14.7167,-14.7167,-14.7167,-14.7075,-14.6355,-14.6543,-14.7075,-14.6355,-14.6072,-14.6166,-14.6982,-14.7167,-14.6785,-14.5084,-14.5101,-14.4946,-14.188,-14.2612,-14.3748,-14.1841,-14.0657,-14.0,-14.0065,-13.9342,-13.8619,-13.8619,-13.8619,-13.8619,-13.8619,-13.9013,-13.9802,-14.1183,-14.3879,-14.6247,-14.7693,-15.0061,-15.1442,-15.0981,-15.0061,-14.8811,-14.7299,-14.7167,-14.7167,-14.7167,-14.7167,-14.7167,-14.7167,-14.7167,-14.7167,-14.7167,-14.7167,-14.7167,-14.7167,-14.7167,-14.6444,-14.5063,-14.5063,-14.4011,-10.2257,-10.8107,-11.2513,-11.2578,-10.7827,-10.147,-9.4978,-8.8745,-8.2398,-7.5959,-7.4659,-7.4659,-7.4659,-7.6925,-8.1254,-8.8963,-9.3073,-9.9861,-11.2805,-11.4569,-11.9224,-13.171,-13.3919,-13.7172,-14.4208,-14.7628,-14.9995,-15.1376,-15.2888,-15.4335,-15.5847,-15.5913,-15.5913,-15.5913,-15.5913,-15.5913,-15.5913,-15.5847,-15.5124,-15.3743,-15.2296,-14.8548,-14.3025,-14.5852,-14.48,-14.1052,-14.5326,-14.4668,-14.0986,-14.5326,-14.4603,-14.1117,-14.5458,-14.7167,-14.7167,-14.7167,-14.7167,-14.7167,-14.7167,-14.7167,-14.7167,-14.7167,-14.7167,-14.7167,-14.7102,-14.7102,-14.7102,-14.7102,-14.7102,-14.6773,-14.5392,-14.6049,-14.6378,-14.3551,-14.2827,-14.2038,-13.9276,-13.8619,-13.8619,-13.8619,-13.8619,-13.8619,-13.8619,-13.9802,-14.1249,-14.263,-14.526,-14.7693,-14.9272,-15.0652,-15.0981,-14.96,-14.9469,-14.8811,-14.7299,-14.7167,-14.7167,-14.7167,-14.7167,-14.7167,-14.7167,-14.7167,-14.7167,-14.7167,-14.7167,-14.7167,-14.7167,-14.7167,-14.6444,-14.5063,-14.4997,-14.3419,-9.8006,-10.4751,-11.2776,-11.3828,-11.149,-10.6476,-9.7243,-9.2788,-8.766,-7.7327,-7.5955,-7.6708,-7.6708,-7.9058,-8.3482,-9.1251,-9.594,-10.4459,-12.1389,-12.2536,-12.6188,-13.8531,-13.932,-13.8487,-13.7567,-14.0131,-14.2827,-14.526,-14.6773,-15.0061,-15.5584,-15.5913,-15.6373,-15.736,-15.5453,-15.5387,-15.736,-15.4401,-15.3151,-15.3743,-15.131,-14.9206,-14.7496,-14.7233,-14.6444,-14.5326,-14.6575,-14.2959,-13.6777,-14.4142,-14.2827,-13.6975,-14.4274,-14.7167,-14.7167,-14.7167,-14.7167,-14.7167,-14.7167,-14.7167,-14.7167,-14.7167,-14.7167,-14.6773,-14.4734,-14.4866,-14.5458,-14.4405,-14.4866,-14.5589,-14.5129,-14.4603,-14.3879,-14.3025,-14.1315,-13.9934,-14.0065,-13.9342,-13.8619,-13.8619,-13.8619,-13.8619,-13.8619,-13.9802,-14.1249,-14.263,-14.4471,-14.6181,-14.7628,-14.8219,-14.8285,-14.7891,-14.7825,-14.7628,-14.7167,-14.7167,-14.7167,-14.7167,-14.7167,-14.7167,-14.7167,-14.7167,-14.7167,-14.7167,-14.7167,-14.7167,-14.7167,-14.7167,-14.6444,-14.4997,-14.2959,-14.0986,-10.2062,-10.7443,-11.3762,-11.5209,-11.4516,-11.1,-10.1257,-9.7242,-9.2335,-8.146,-7.8797,-7.8845,-8.0213,-8.3113,-8.7426,-9.4334,-9.8393,-10.593,-12.0774,-12.284,-12.6711,-13.7283,-13.829,-13.8027,-13.7764,-13.829,-14.0263,-14.4274,-14.651,-14.9535,-15.394,-15.4729,-15.519,-15.5453,-15.4401,-15.4335,-15.5453,-15.2888,-15.177,-15.2033,-15.0324,-14.914,-14.8548,-14.7562,-14.7167,-14.7167,-14.7167,-14.3222,-13.7435,-14.434,-14.309,-13.7567,-14.4471,-14.7167,-14.7167,-14.7167,-14.7167,-14.7167,-14.7167,-14.7167,-14.7036,-14.651,-14.5918,-14.5129,-14.3353,-14.3485,-14.3945,-14.309,-14.3485,-14.4142,-14.4142,-14.3485,-14.2827,-14.2827,-14.1512,-14.0394,-14.0657,-13.9605,-13.8619,-13.8619,-13.8619,-13.8816,-13.9342,-14.0657,-14.2038,-14.3485,-14.4931,-14.6181,-14.7036,-14.7167,-14.7167,-14.7167,-14.7167,-14.7167,-14.7167,-14.7167,-14.7167,-14.7167,-14.7167,-14.7167,-14.7167,-14.7167,-14.7167,-14.7167,-14.7167,-14.7167,-14.7167,-14.6575,-14.526,-14.3288,-14.0986,-13.8816,-11.0408,-11.317,-11.5077,-11.6655,-11.705,-11.4721,-10.573,-10.1267,-9.6204,-8.6491,-8.2115,-8.0951,-8.4162,-8.7694,-9.2088,-9.8266,-10.1533,-10.6442,-11.5462,-11.9341,-12.39,-13.1105,-13.3358,-13.6383,-14.1578,-14.0,-14.0789,-14.5984,-14.9009,-15.085,-15.1376,-15.2757,-15.2954,-15.1639,-15.2757,-15.2823,-15.1639,-15.131,-15.0587,-14.9469,-14.9337,-14.8548,-14.7167,-14.7167,-14.7167,-14.7167,-14.7167,-14.4668,-14.1052,-14.5392,-14.4603,-14.1183,-14.5458,-14.7102,-14.697,-14.697,-14.6904,-14.6773,-14.6773,-14.6773,-14.651,-14.526,-14.3748,-14.2367,-14.217,-14.217,-14.2301,-14.2433,-14.263,-14.2893,-14.3025,-14.3025,-14.3025,-14.2893,-14.263,-14.2104,-14.0986,-13.9737,-13.875,-13.8619,-13.875,-13.9211,-14.0526,-14.1907,-14.3353,-14.48,-14.6247,-14.7167,-14.7167,-14.7167,-14.7167,-14.7167,-14.7167,-14.7167,-14.7167,-14.7167,-14.7167,-14.7167,-14.7167,-14.7167,-14.7167,-14.7167,-14.7102,-14.697,-14.697,-14.6904,-14.6773,-14.5458,-14.3419,-14.0723,-13.9276,-13.7106,-10.6397,-11.0145,-11.534,-11.8036,-11.8628,-11.5647,-10.4211,-10.1277,-9.7164,-8.3594,-8.148,-8.224,-8.3151,-8.5651,-9.17,-10.4324,-11.0451,-11.6286,-12.4048,-12.7592,-13.0103,-13.178,-13.3358,-13.4805,-13.6054,-13.7632,-13.9145,-14.0394,-14.2104,-14.5063,-14.9666,-15.1244,-15.1902,-15.1573,-15.085,-15.0784,-15.1573,-14.9272,-14.8548,-14.9469,-14.8219,-14.7496,-14.7167,-14.7167,-14.7167,-14.7167,-14.7167,-14.4668,-14.1052,-14.5392,-14.4603,-14.1183,-14.5458,-14.6444,-14.5523,-14.5523,-14.4734,-14.3748,-14.3748,-14.3748,-14.3748,-14.3419,-14.1578,-13.9145,-13.6843,-13.6909,-13.8027,-13.9211,-14.1117,-14.309,-14.4274,-14.4537,-14.4274,-14.309,-14.1117,-13.9737,-14.0591,-14.0526,-13.9934,-13.8816,-13.9539,-14.0394,-14.0657,-14.1907,-14.3353,-14.48,-14.6247,-14.7167,-14.7167,-14.7167,-14.7167,-14.7167,-14.7167,-14.7167,-14.7167,-14.7167,-14.7167,-14.7167,-14.7167,-14.7167,-14.7167,-14.7167,-14.6641,-14.5523,-14.5523,-14.4931,-14.3748,-14.3485,-14.2433,-14.0723,-13.9276,-13.7106,-10.6133,-10.9998,-11.5819,-11.8488,-11.968,-11.7887,-10.8977,-10.6383,-10.2455,-9.0604,-8.7974,-8.766,-8.7378,-8.9915,-9.5625,-10.6602,-11.3088,-11.7444,-11.9154,-12.6651,-13.0728,-12.7242,-13.1254,-13.5397,-13.8158,-13.8553,-13.9737,-14.2498,-14.3419,-14.5129,-14.8219,-14.9074,-14.9469,-14.9469,-14.9469,-14.9469,-14.9469,-14.7891,-14.7233,-14.7365,-14.651,-14.6115,-14.6115,-14.6115,-14.651,-14.7167,-14.7167,-14.5852,-14.3945,-14.6247,-14.5458,-14.3025,-14.526,-14.526,-14.3945,-14.3945,-14.3485,-14.2827,-14.2827,-14.2827,-14.2367,-13.9671,-13.7764,-13.6251,-13.4805,-13.487,-13.5594,-13.6383,-13.8093,-14.0131,-14.1578,-14.1972,-14.2104,-14.2696,-14.1709,-14.0657,-14.0723,-14.0197,-13.9474,-13.875,-13.9737,-14.092,-14.1644,-14.2959,-14.4405,-14.5852,-14.6641,-14.7167,-14.7167,-14.7167,-14.7167,-14.7167,-14.7167,-14.7167,-14.7167,-14.7167,-14.7167,-14.7167,-14.7167,-14.6838,-14.6181,-14.6115,-14.5458,-14.4011,-14.3945,-14.3616,-14.2827,-14.217,-14.1117,-13.9671,-13.8224,-13.5988,-10.7708,-11.1495,-11.6361,-11.861,-12.0075,-11.9529,-11.4206,-11.1424,-10.7765,-9.9703,-9.6077,-9.4079,-9.3041,-9.5488,-10.0074,-10.7821,-11.348,-11.5998,-11.3762,-12.3955,-12.9413,-12.3494,-12.961,-13.658,-14.2301,-14.1183,-14.2038,-14.6773,-14.6247,-14.5655,-14.5655,-14.5655,-14.6115,-14.7009,-14.8323,-14.8482,-14.7075,-14.6719,-14.5904,-14.4788,-14.4526,-14.4486,-14.4486,-14.4486,-14.4774,-14.5326,-14.6312,-14.6378,-14.5721,-14.6707,-14.6312,-14.5063,-14.5063,-14.4011,-14.2498,-14.2498,-14.217,-14.1709,-14.1709,-14.1578,-14.0526,-13.5528,-13.3884,-13.3884,-13.3621,-13.3555,-13.3621,-13.3884,-13.4936,-13.6449,-13.8158,-13.8619,-13.9276,-14.1841,-14.2498,-14.2104,-14.0657,-13.9671,-13.9013,-13.9013,-14.0328,-14.1841,-14.3025,-14.4208,-14.5523,-14.6904,-14.7167,-14.7167,-14.7167,-14.7167,-14.7167,-14.7167,-14.7167,-14.7167,-14.7167,-14.7167,-14.7036,-14.6773,-14.6773,-14.6115,-14.4734,-14.4668,-14.3945,-14.2498,-14.2498,-14.2367,-14.2104,-14.092,-13.9802,-13.8619,-13.7369,-13.5331,-11.008,-11.4085,-11.7034,-11.876,-11.9286,-11.7971,-11.2108,-10.9682,-10.7049,-10.1536,-9.9507,-9.8124,-9.6303,-9.6834,-10.0651,-11.0541,-11.4785,-11.8825,-12.4612,-12.8163,-12.9807,-12.8821,-13.2043,-13.658,-14.2301,-14.48,-14.6312,-14.7102,-14.2564,-13.9737,-13.9737,-13.9737,-14.1859,-14.6318,-14.7085,-14.7179,-14.6514,-14.4868,-14.4028,-14.3832,-14.2529,-14.2219,-14.2521,-14.2521,-14.0737,-13.8158,-14.3156,-14.3222,-14.0131,-14.5063,-14.6312,-14.5063,-14.5063,-14.3419,-14.1052,-14.1052,-13.9408,-13.7304,-13.7304,-13.6449,-13.5068,-13.2963,-13.2306,-13.2043,-13.0859,-13.0465,-13.0728,-13.1977,-13.3424,-13.5199,-13.7895,-13.8619,-13.9013,-14.0657,-14.1052,-14.0591,-13.9211,-13.9737,-14.046,-14.046,-14.263,-14.4537,-14.4734,-14.4931,-14.5523,-14.6904,-14.7167,-14.7167,-14.7167,-14.7167,-14.7167,-14.7167,-14.7167,-14.7167,-14.7167,-14.7167,-14.6641,-14.5392,-14.5326,-14.4668,-14.3222,-14.3156,-14.2498,-14.1052,-14.1052,-14.0394,-13.9211,-13.9013,-13.8816,-13.8619,-13.8421,-13.7435,-10.3636,-10.9058,-11.4887,-11.7222,-11.8122,-11.7447,-11.3618,-11.2973,-11.1587,-10.6126,-10.3098,-10.0609,-9.821,-9.653,-9.9771,-11.2432,-11.3766,-11.6918,-12.744,-12.7374,-12.7177,-12.961,-13.2503,-13.658,-14.2301,-14.5458,-14.5786,-14.263,-14.3025,-14.3419,-14.3419,-14.3935,-14.5232,-14.7438,-14.8288,-14.8161,-14.7121,-14.478,-14.3189,-14.2343,-14.0911,-14.0443,-14.0561,-14.0561,-14.0703,-14.1089,-14.3581,-14.4197,-14.3616,-14.6115,-14.5852,-14.3814,-14.3814,-14.1578,-13.8356,-13.8356,-13.704,-13.5265,-13.5265,-13.487,-13.4081,-13.2503,-13.1977,-13.1714,-13.0267,-12.9873,-13.0004,-13.0596,-13.132,-13.2503,-13.5462,-13.6186,-13.658,-13.7961,-13.9539,-14.0328,-13.8947,-14.0328,-14.1907,-14.1907,-14.3616,-14.5063,-14.5063,-14.5721,-14.6444,-14.7036,-14.7167,-14.7167,-14.7167,-14.6444,-14.6247,-14.7102,-14.5721,-14.5063,-14.5918,-14.5195,-14.4471,-14.3814,-14.3814,-14.3156,-14.1709,-14.1644,-14.0986,-13.9605,-13.9539,-13.9211,-13.8619,-13.8619,-13.8619,-13.8619,-13.8619,-13.783,-9.8658,-10.4528,-11.1356,-11.5303,-11.6783,-11.6928,-11.5515,-11.6064,-11.5735,-11.1855,-10.8997,-10.6355,-10.3489,-10.147,-10.4075,-11.5689,-11.5426,-11.7905,-12.9873,-12.8821,-12.7506,-12.961,-13.2174,-13.5002,-13.8158,-14.2038,-14.263,-13.8356,-14.2367,-14.4997,-14.4997,-14.568,-14.6645,-14.7895,-14.8749,-14.8525,-14.7096,-14.5111,-14.316,-14.0994,-13.9177,-13.8581,-13.8763,-13.9062,-14.0144,-14.1891,-14.3634,-14.4604,-14.5063,-14.6181,-14.4931,-14.2301,-14.1907,-13.9342,-13.5923,-13.5923,-13.5199,-13.4279,-13.3884,-13.3753,-13.3555,-13.2372,-13.1714,-13.1254,-13.0202,-12.9873,-12.9873,-12.9873,-12.9873,-13.0465,-13.3095,-13.4016,-13.4673,-13.6054,-13.8093,-13.9474,-13.875,-14.0263,-14.1972,-14.2696,-14.4011,-14.5129,-14.5523,-14.6444,-14.7167,-14.7167,-14.7167,-14.6904,-14.6181,-14.5129,-14.4866,-14.5918,-14.4142,-14.3288,-14.4405,-14.3485,-14.2696,-14.2301,-14.2301,-14.1644,-14.0263,-14.0197,-13.9671,-13.8619,-13.8619,-13.8619,-13.8619,-13.8619,-13.8619,-13.8619,-13.8619,-13.8027,-9.9777,-10.401,-10.6876,-11.3218,-11.5278,-11.5884,-11.6574,-11.6787,-11.7181,-11.8365,-11.88,-11.8196,-11.5483,-11.5863,-11.7817,-12.1493,-12.2435,-12.5927,-13.487,-13.5923,-13.4279,-13.0333,-13.1188,-13.0596,-12.6848,-13.2832,-13.6843,-13.658,-13.8093,-13.9079,-13.9079,-13.9057,-14.1375,-14.6355,-14.7085,-14.6616,-14.5184,-14.5536,-14.3755,-14.0022,-13.7187,-13.6293,-13.7266,-13.8241,-13.7291,-13.518,-14.1498,-14.231,-13.9408,-14.3485,-14.3419,-14.0723,-13.9342,-13.704,-13.441,-13.441,-13.441,-13.4081,-13.2635,-13.2109,-13.2109,-13.1977,-13.1056,-13.0004,-12.9873,-12.9873,-12.9873,-12.9873,-12.9873,-13.0202,-13.1714,-13.3226,-13.4673,-13.6054,-13.6514,-13.6975,-13.8356,-13.875,-13.9671,-14.2301,-14.4011,-14.5458,-14.6773,-14.7102,-14.7167,-14.7167,-14.7167,-14.6181,-14.3419,-14.3025,-14.2959,-14.3025,-14.2959,-14.2893,-14.2959,-14.2893,-14.2301,-14.092,-14.0854,-14.0197,-13.8816,-13.875,-13.8684,-13.8619,-13.8619,-13.8619,-13.8619,-13.8619,-13.8619,-13.8619,-13.8619,-13.8619,-9.132,-9.6983,-10.3299,-10.8024,-11.1385,-11.3763,-11.4515,-11.5762,-11.6837,-11.6839,-11.5998,-11.5426,-11.6286,-11.4648,-11.5557,-12.3248,-12.15,-12.356,-13.6054,-13.1385,-12.8886,-13.4805,-13.0202,-12.8821,-13.4739,-13.4279,-13.2832,-13.0925,-13.8224,-14.3156,-14.4077,-14.5641,-14.7329,-14.9168,-14.9891,-14.9665,-14.8233,-14.7453,-14.5471,-14.2298,-14.0382,-13.9659,-13.9934,-14.0271,-14.0574,-14.0933,-14.3306,-14.4211,-14.4077,-14.3748,-14.1972,-13.9211,-13.7764,-13.487,-13.1583,-13.2503,-13.2832,-13.2766,-13.2174,-13.2635,-13.3358,-13.2306,-13.1648,-13.1056,-13.0136,-12.9873,-12.9873,-12.9873,-12.9873,-13.0004,-13.0465,-13.2437,-13.4213,-13.3687,-13.5068,-13.658,-13.7106,-13.7238,-13.8093,-14.092,-14.1907,-14.3025,-14.5392,-14.5786,-14.5786,-14.5786,-14.4997,-14.4011,-14.2959,-14.2038,-14.1841,-14.2761,-14.1249,-14.0371,-14.0933,-14.048,-13.9757,-13.8901,-13.9166,-13.9145,-13.8619,-13.8619,-13.8619,-13.8619,-13.8619,-13.8619,-13.8619,-13.8619,-13.8619,-13.8619,-13.8619,-13.8444,-8.7173,-9.1185,-9.6839,-10.3434,-10.7457,-11.0579,-11.3276,-11.5213,-11.654,-11.6839,-11.5941,-11.5901,-11.8553,-11.751,-11.8562,-12.5862,-12.4612,-12.6256,-13.6449,-13.1648,-12.9215,-13.5002,-12.9741,-12.7308,-13.1583,-13.1977,-13.2043,-13.2043,-13.9671,-14.4668,-14.5655,-14.7742,-14.893,-14.893,-15.038,-15.061,-14.9665,-14.8621,-14.683,-14.436,-14.2863,-14.1952,-14.1496,-14.1952,-14.278,-14.3949,-14.4223,-14.4866,-14.5523,-14.309,-14.0723,-13.8421,-13.6449,-13.3621,-13.0662,-13.1122,-13.1583,-13.1977,-13.1977,-13.2635,-13.3358,-13.2306,-13.1648,-13.1122,-13.0136,-12.9873,-12.9873,-12.9873,-12.9873,-12.9873,-12.9873,-13.1714,-13.3292,-13.224,-13.349,-13.5068,-13.5594,-13.5725,-13.658,-13.9474,-14.0394,-14.1512,-14.3879,-14.4274,-14.4274,-14.4274,-14.3485,-14.2498,-14.1512,-14.0591,-14.0394,-14.1315,-13.9737,-13.8838,-13.9426,-13.8969,-13.8444,-13.8115,-13.8444,-13.8619,-13.8619,-13.8619,-13.8619,-13.8619,-13.8619,-13.8619,-13.8619,-13.8619,-13.8619,-13.8619,-13.8444,-13.8115,-8.8384,-8.7606,-8.7763,-9.9907,-10.3945,-10.6685,-11.3087,-11.5008,-11.6145,-11.8469,-11.9596,-12.0802,-12.2944,-12.5533,-12.7834,-12.961,-13.2174,-13.4542,-13.6186,-13.7632,-13.6449,-13.0793,-13.0004,-12.5993,-11.6129,-12.5467,-13.4476,-14.0065,-14.1907,-14.2827,-14.2827,-14.4274,-14.5063,-14.5063,-14.7825,-14.9149,-14.8609,-14.8544,-14.7539,-14.5692,-14.4325,-14.2957,-14.1654,-14.3022,-14.3357,-14.2959,-14.3817,-14.3686,-14.2761,-14.1315,-13.9802,-13.829,-13.5397,-13.3292,-13.1714,-13.0399,-13.0728,-13.1911,-13.1911,-13.1911,-13.1911,-13.1911,-13.0991,-12.9873,-12.9873,-12.9873,-12.9873,-12.9873,-12.9939,-12.9939,-12.9939,-13.1056,-13.2109,-13.2109,-13.2109,-13.2503,-13.4016,-13.4279,-13.5002,-13.7895,-13.9539,-14.0986,-14.2433,-14.2761,-14.2761,-14.2761,-14.2761,-14.1709,-13.8947,-13.8619,-13.8619,-13.8619,-13.8619,-13.8619,-13.8531,-13.8619,-13.8619,-13.8531,-13.8619,-13.8619,-13.8619,-13.8619,-13.8619,-13.8619,-13.8619,-13.8553,-13.8553,-13.8487,-13.8487,-13.84,-13.7895,-13.7719,-8.6894,-8.972,-9.3051,-9.841,-10.2753,-10.6559,-11.0009,-11.1703,-11.2998,-11.472,-11.7372,-11.9979,-12.1587,-11.9943,-12.0864,-12.8623,-12.7045,-12.7571,-13.5331,-13.6777,-13.6843,-13.6251,-13.2437,-12.8755,-12.5993,-13.2437,-13.612,-13.4542,-13.8684,-14.1775,-14.2761,-14.4274,-14.5063,-14.5063,-14.5852,-14.6154,-14.6062,-14.5011,-14.4197,-14.3712,-14.3319,-14.286,-14.2532,-14.2925,-14.295,-14.2893,-14.3197,-14.3723,-14.4142,-14.0657,-13.8356,-13.6712,-13.3818,-13.1056,-12.8952,-12.961,-13.0136,-13.0465,-13.0465,-13.0465,-13.0465,-13.0465,-13.0202,-12.9873,-12.9873,-12.9873,-12.9873,-12.9873,-13.0596,-13.1385,-13.1385,-13.3292,-13.5199,-13.5199,-13.441,-13.3818,-13.4213,-13.2635,-13.1648,-13.349,-13.5068,-13.6843,-13.9342,-14.0657,-14.1315,-14.1315,-14.046,-13.9474,-13.875,-13.8619,-13.8619,-13.8619,-13.8619,-13.8444,-13.8026,-13.8356,-13.8444,-13.8026,-13.8444,-13.8619,-13.8619,-13.8619,-13.8619,-13.8619,-13.7567,-13.704,-13.704,-13.5988,-13.5291,-13.4968,-13.4796,-13.4362,-8.0735,-8.194,-8.4926,-8.9215,-9.4203,-9.879,-10.1797,-10.589,-10.9316,-11.0289,-11.3839,-11.7335,-11.9079,-11.8365,-11.9417,-12.5335,-12.5467,-12.6914,-13.2832,-13.5265,-13.6777,-13.7632,-13.4673,-13.2832,-13.349,-13.6646,-13.7567,-13.4936,-13.7961,-14.0197,-14.1052,-14.2433,-14.3222,-14.3222,-14.4405,-14.5063,-14.5063,-14.4026,-14.3475,-14.3475,-14.2228,-14.1638,-14.1638,-14.1226,-14.1052,-14.1052,-14.1052,-14.1249,-14.1249,-13.875,-13.7238,-13.612,-13.3161,-13.0991,-12.9478,-12.9807,-12.9873,-12.9873,-12.9873,-12.9873,-12.9873,-12.9873,-12.9873,-13.0004,-13.0596,-13.0728,-13.0925,-13.1583,-13.2306,-13.2963,-13.2963,-13.4279,-13.5528,-13.5528,-13.441,-13.3358,-13.3358,-13.1517,-13.0267,-13.1714,-13.27,-13.4279,-13.7238,-13.8421,-13.8947,-13.8947,-13.875,-13.8619,-13.8619,-13.8619,-13.8619,-13.8619,-13.8619,-13.8444,-13.8115,-13.8444,-13.8444,-13.8115,-13.8444,-13.8356,-13.7764,-13.7698,-13.7435,-13.6843,-13.5988,-13.5528,-13.5528,-13.4503,-13.3788,-13.3552,-13.3122,-13.1366,-7.2572,-7.0321,-7.1575,-7.7454,-8.26,-8.7285,0.0,-9.8086,-10.3637,-10.4421,-10.8138,-11.2037,-11.4137,-11.6918,-11.9154,-12.0141,-12.4612,-12.836,-12.9676,-13.3226,-13.5725,-13.5725,-13.5988,-13.6777,-13.8224,-13.8356,-13.8421,-13.8619,-13.8619,-13.8619,-13.8619,-13.9802,-14.0197,-13.9539,-14.263,-14.4011,-14.3353,-14.3647,-14.3765,-14.3699,-14.108,-13.9706,-13.9509,-13.8903,-13.8553,-13.8356,-13.8553,-13.7895,-13.6646,-13.6514,-13.6449,-13.612,-13.3161,-13.2109,-13.2109,-13.0859,-13.0399,-13.0399,-13.0399,-13.0399,-13.0399,-13.0399,-13.0399,-13.0596,-13.1846,-13.178,-13.1583,-13.2963,-13.3029,-13.2766,-13.3424,-13.3687,-13.4016,-13.4673,-13.3621,-13.2503,-13.2503,-13.1254,-13.0465,-13.1714,-13.1977,-13.2832,-13.5462,-13.6251,-13.6514,-13.6646,-13.7764,-13.8619,-13.8619,-13.8619,-13.8619,-13.8619,-13.8619,-13.8619,-13.8619,-13.8619,-13.8553,-13.8421,-13.8356,-13.7698,-13.6251,-13.6186,-13.5528,-13.3997,-13.38,-13.3668,-13.3387,-13.2851,-13.2465,-13.2465,-13.1604,-12.8147,0.0,0.0,0.0,0.0,0.0,0.0,0.0,-8.757,-8.9519,-9.3547,-9.6392,-9.8667,-10.0232,-10.2324,-10.6068,-11.3104,-11.5143,-11.9154,-12.8558,-13.0596,-13.1122,-13.1122,-13.3292,-13.5265,-13.6712,-13.6843,-13.7369,-13.8553,-13.8619,-13.8619,-13.8619,-13.8882,-13.6843,-13.2109,-13.7106,-13.7567,-13.2898,-13.7414,-13.9692,-13.9692,-13.9101,-13.8247,-13.7217,-13.8137,-13.7961,-13.6909,-13.8093,-13.8487,-13.8093,-13.6909,-13.6449,-13.612,-13.3161,-13.2766,-13.3818,-13.3555,-13.349,-13.349,-13.349,-13.349,-13.349,-13.349,-13.349,-13.349,-13.3753,-13.0596,-12.6848,-12.7177,-12.4809,-12.3165,-12.7769,-12.9873,-13.1911,-13.6646,-13.6646,-13.5594,-13.5594,-13.3424,-13.1648,-13.1911,-13.1977,-13.2174,-13.2766,-13.487,-13.6843,-13.8027,-13.8421,-13.8619,-13.8619,-13.8619,-13.8619,-13.8619,-13.8619,-13.8619,-13.8619,-13.8619,-13.8158,-13.6909,-13.6843,-13.6186,-13.4805,-13.4739,-13.3846,-13.2,-13.082,-12.9475,-12.8032,-12.6775,-12.6006,-12.5526,-12.5359,-12.3215,0.0,0.0,0.0,0.0,0.0,0.0,0.0,0.0,0.0,0.0,0.0,-9.1646,-9.373,0.0,-10.2979,-10.8024,-11.3421,-11.8957,-12.4744,-12.8032,-12.9347,-12.79,-13.0333,-13.2635,-13.4081,-13.4936,-13.5988,-13.7435,-13.7501,-13.783,-13.8619,-13.5857,-13.2898,-13.0004,-13.27,-13.2832,-12.9873,-13.5403,-13.8268,-13.8268,-13.7481,-13.676,-13.6038,-13.6363,-13.6054,-13.5397,-13.6186,-13.6843,-13.7501,-13.6712,-13.6449,-13.6251,-13.4016,-13.3621,-13.395,-13.1056,-13.178,-13.3884,-13.0991,-13.1846,-13.4344,-13.4344,-13.4344,-13.4476,-13.5199,-13.3358,-13.1122,-13.1911,-13.053,-12.9544,-13.2372,-13.3687,-13.5002,-13.7895,-13.7501,-13.6449,-13.6449,-13.4673,-13.3161,-13.3161,-13.3161,-13.3358,-13.4081,-13.6646,-13.8619,-13.8619,-13.9211,-13.9408,-13.875,-13.8619,-13.8619,-13.8619,-13.5988,-13.5462,-13.8356,-13.5265,-13.4081,-13.6317,-13.5791,-13.4325,-13.184,-13.2025,-13.0725,-12.7984,-12.6711,-12.5519,-12.4395,-12.2721,-12.1764,-12.1456,-11.979,-11.8209,0.0,0.0,0.0,0.0,0.0,0.0,0.0,0.0,0.0,0.0,0.0,0.0,0.0,0.0,0.0,-10.2647,-11.1698,-11.8957,-12.0601,-12.4875,-12.7045,-12.5007,-12.7045,-12.9281,-13.0991,-13.2569,-13.4081,-13.5462,-13.612,-13.6843,-13.7764,-13.3555,-13.0596,-12.9478,-13.053,-13.0728,-12.9873,-13.523,-13.7938,-13.7938,-13.676,0.0,-13.5799,-13.5357,-13.441,-13.3095,-13.4542,-13.5133,-13.5265,-13.6383,-13.6712,-13.6383,-13.5462,-13.5002,-13.4147,-12.9413,-13.0465,-13.3621,-12.8886,-13.0333,-13.4344,-13.4344,-13.4344,-13.4542,-13.566,-13.5397,0.0,-13.6186,-13.5923,-13.5528,-13.6646,-13.6909,-13.7238,-13.8356,-13.7698,-13.6843,-13.6843,-13.4805,-13.349,-13.487,-13.4016,-13.3818,-13.6449,-13.7632,-13.7435,-13.5199,-13.5594,-13.5791,-13.4936,-13.5791,-13.6383,-13.612,-13.3161,-13.2963,-13.7435,-13.1583,-13.007,-13.566,-13.3621,-13.0563,-12.7021,-12.7213,-12.507,-12.0436,-11.943,-11.9027,-11.9159,-11.7599,-11.7363,-11.8269,-11.2478,-11.0327,0.0,0.0,0.0,0.0,0.0,0.0,0.0,0.0,0.0,0.0,0.0,0.0,0.0,0.0,0.0,0.0,-10.2521,-11.054,-11.8299,-11.9943,-12.0732,-12.1653,-12.3165,-12.5204,-12.79,-12.9478,-13.0991,-13.2372,-13.4936,-13.5988,-13.487,-13.5397,0.0,0.0,0.0,-13.3818,-12.9939,-13.5574,-13.8531,-13.8531,-13.8334,-13.7611,-13.6363,-13.7632,-13.4607,-12.8821,-13.5331,-13.5265,-13.0991,-13.6251,-13.7632,-13.658,-13.7698,-13.7369,-13.612,-13.5462,-13.4805,-13.4213,-13.3555,0.0,0.0,-13.4344,-13.4344,-13.4344,-13.4542,-13.178,-12.8689,-12.8886,-12.619,-12.4415,-12.9544,-13.0859,-13.2174,-13.7369,-13.8487,-13.8356,-13.8356,-13.3161,-13.0333,-13.6909,-13.2898,-13.053,-13.7238,-13.3226,-12.7374,-12.2113,-12.0338,-11.9943,-12.1193,-12.5796,-12.8426,-12.7177,-13.224,0.0,-13.487,-13.0465,-12.9676,-13.4279,-12.836,-12.2694,-11.8422,-11.8299,-11.4334,-10.5786,-10.532,-10.6146,-10.8112,-10.7692,-11.0059,-11.4698,-9.9571,-9.5234,0.0,0.0,0.0,0.0,0.0,0.0,0.0,0.0,0.0,0.0,0.0,0.0,0.0,0.0,0.0,0.0,-9.6579,-10.5731,-10.9399,-11.0926,-11.3367,-11.8102,-12.0798,-12.2311,-12.2705,-12.4809,-12.7111,-12.9347,-13.1451,-13.3095,-13.4279,-13.1648,-12.9018,-12.6519,-12.8821,-12.9215,-12.7374,-13.3161,-13.6514,-13.7369,-13.7369,-13.7501,-13.7698,-13.8356,-13.6975,-13.4213,-13.7304,-13.7238,-13.5133,-13.7632,-13.7764,-13.6514,0.0,0.0,0.0,0.0,-13.5528,-13.3818,-13.0399,-13.1977,-13.5397,-13.4607,-13.487,-13.5397,-13.4542,-13.3029,-13.1517,-13.1517,-13.0267,-12.9413,-13.1846,-13.2437,-13.3095,-13.5528,-13.612,-13.6034,-13.571,-13.4109,-13.3603,-13.6366,-13.5357,0.0,-14.0263,-13.8553,-13.5133,-13.1122,-12.9873,-12.9149,-12.8097,-13.007,-13.132,-13.0728,-13.1056,-13.2174,-13.4147,-12.9478,0.0,0.0,0.0,-12.4744,-12.1982,-12.0897,0.0,0.0,0.0,-10.5045,-10.3831,-9.9763,0.0,0.0,-9.1934,-8.7525,0.0,0.0,0.0,0.0,0.0,0.0,0.0,0.0,0.0,0.0,0.0,0.0,0.0,0.0,0.0,0.0,-8.8927,-9.6644,-9.6518,-10.1342,-10.679,-11.1911,-11.6976,-11.968,-11.8628,-12.1522,-12.4283,-12.6388,-12.8229,-13.0202,-13.2372,-12.8492,-12.6322,-12.6716,-12.6388,-12.6519,-12.7308,-13.1583,-13.441,-13.5857,-13.5857,-13.6383,-13.7435,-13.7435,-13.658,-13.5133,-13.6712,-13.6514,-13.5133,-13.6777,-13.704,-13.6383,-13.5988,-13.6251,-13.6646,-13.5594,-13.4542,-13.3029,-12.836,-13.0202,-13.4476,-13.3424,-13.3818,-13.441,-13.3424,-13.3358,-13.3687,-13.3687,-13.3687,-13.3753,-13.4213,-13.4016,-13.3818,-13.4213,-13.4344,-13.4325,-13.4398,-13.4241,-13.4654,-13.6672,-13.724,-13.7435,-13.7501,-13.7501,-13.6251,-13.2569,-13.1714,-13.0859,-12.9149,-13.0662,-13.178,-13.1385,-13.0267,-13.0662,-13.3424,-12.836,-12.6388,-12.9676,-12.7045,-12.5401,-12.5599,-12.1936,-11.8735,-11.5972,-10.8983,-10.4341,0.0,0.0,0.0,0.0,0.0,0.0,0.0,0.0,0.0,0.0,0.0,0.0,0.0,0.0,0.0,0.0,0.0,0.0,0.0,0.0,0.0,0.0,0.0,0.0,-7.9556,-9.2272,-10.1604,-10.1604,-11.0654,-11.6918,-11.6918,-12.0864,-12.3494,-12.3626,-12.619,-12.7769,-12.79,-12.7703,-12.8295,-12.9676,-12.836,-12.8952,-13.178,-13.1977,-13.2832,-13.441,-13.441,-13.441,-13.4476,-13.4476,-13.132,-12.6322,-13.1977,-13.1254,-12.6453,-13.2109,-13.5265,-13.6317,-13.4936,-13.349,-13.2174,-13.2174,-13.2109,-13.1846,-13.0267,-12.9873,-13.007,-13.0004,-13.007,-13.007,-13.0004,-13.0991,-13.2043,-13.2043,-13.2043,-13.2437,-13.395,-13.3161,-13.2437,-13.395,-13.4344,-13.4673,-13.6054,-13.1911,-13.0465,-13.8947,-13.7238,-13.224,-12.527,-12.4086,-12.2113,-11.6327,-11.4222,0.0,-11.5143,-12.1456,-12.5335,-12.3955,-13.0004,-13.3555,-13.2174,-12.6782,-12.5335,-12.961,-12.3297,-12.1258,-12.5401,-11.7379,-11.2841,-11.271,-10.3963,-10.0753,-10.337,0.0,0.0,0.0,0.0,0.0,0.0,0.0,0.0,0.0,0.0,0.0,0.0,0.0,0.0,0.0,0.0,0.0,0.0,0.0,0.0,0.0,0.0,0.0,0.0,-8.619,-9.4943,-9.7306,-10.4409,-10.7812,-10.4524,-10.944,-11.3257,-11.4239,-12.0832,-12.5335,-12.6256,-12.6256,-12.6059,-12.5664,-12.5138,-12.5335,-12.6322,-12.6322,-12.7571,-12.9939,-12.9939,-13.0399,-13.1385,-13.2372,-13.1714,-13.0004,-13.3029,-13.2635,-13.007,-13.3095,-13.2898,-13.0596,-13.0136,-13.0202,-13.0382,-12.9216,-12.8905,-12.8952,-12.7183,-12.6804,-12.6965,-12.6724,-12.7071,-12.7479,-12.6564,-12.6564,-12.6956,-12.6956,-12.6956,-12.7087,-12.761,-12.8232,-12.8938,-12.9396,-13.0314,-13.1166,-13.1625,-13.0904,-13.1035,-13.3985,-12.9052,-12.3494,-12.1061,-12.4546,-12.5401,-11.8694,-12.1324,-12.4218,-12.4678,-12.6914,-12.8229,-12.7769,-13.0728,-13.2174,-13.0728,-12.9676,-12.8492,-12.7111,-12.4744,-12.3231,-12.2705,-11.9023,-11.6918,-11.6918,-11.078,-10.3503,-9.5103,0.0,0.0,0.0,0.0,0.0,0.0,0.0,0.0,0.0,0.0,0.0,0.0,0.0,0.0,0.0,0.0,0.0,0.0,0.0,0.0,0.0,0.0,0.0,0.0,0.0,0.0,-9.4775,-10.1143,0.0,-9.9318,-10.205,-10.4007,-10.401,-10.9445,-11.4902,-11.9574,-11.9454,-12.0514,-12.3285,-12.2442,-12.2179,-12.2705,-12.2179,-12.31,-12.5401,-12.5401,-12.5862,-12.6848,-12.7769,-12.8163,-12.8229,-12.9807,-12.9873,-12.9084,-13.0596,-12.8477,-12.4324,-12.3494,-12.2813,-12.2173,-11.975,-12.023,-12.187,-12.0952,-12.2079,-12.4152,-12.4297,-12.347,-12.1664,-11.8124,-11.708,-11.708,-11.708,-11.8505,-12.0123,-12.058,-12.3007,-12.5519,-12.6042,-12.6973,-12.7905,-12.8363,-12.7267,-12.6709,-12.8282,-12.2144,-11.6787,-11.6787,-12.0667,-12.1456,-11.4748,-11.9878,-12.4481,-12.4481,-12.7637,-12.9873,-12.9873,-13.0662,-13.0859,-12.9939,-12.9741,-12.8492,-12.573,-12.5072,-12.3757,-12.139,-11.9878,-11.8168,-11.6064,-11.0392,-10.2061,0.0,0.0,0.0,0.0,0.0,0.0,0.0,0.0,0.0,0.0,0.0,0.0,0.0,0.0,0.0,0.0,0.0,0.0,0.0,0.0,0.0,0.0,0.0,0.0,0.0,0.0,0.0,-9.2864,-9.9646,0.0,0.0,0.0,0.0,-9.3099,-9.3229,-9.7956,-10.8199,-10.7415,-11.1353,-12.1576,-11.9539,-11.9023,-12.0404,-11.9417,-11.9615,-12.1061,-12.1061,-12.1061,-12.1061,-12.1127,-12.1193,-12.1258,-12.2771,-12.3428,-12.3428,-12.4152,-12.1882,-11.7719,-11.5122,-11.1811,-10.8037,-10.4748,-10.6713,-11.1079,-11.1446,-11.5537,-12.0732,-12.1971,-11.8685,-11.2902,-10.5934,-10.3701,0.0,0.0,-10.724,-11.1608,-11.3242,-11.7591,-12.1986,-12.3874,-12.4654,-12.5368,-12.6809,-12.1608,-11.7905,-12.1916,-11.6853,-11.1724,-11.1197,0.0,-10.9882,-10.4096,-10.9751,-11.4617,-11.4748,-12.3494,-12.9676,-12.9676,-12.9676,-12.9676,-12.9676,-12.7177,-12.5533,-12.5467,-12.4152,-12.2639,-12.1127,-11.9549,-11.5866,-10.9751,-10.2649,0.0,0.0,0.0,0.0,0.0,0.0,0.0,0.0,0.0,0.0,0.0,0.0,0.0,0.0,0.0,0.0,0.0,0.0,0.0,0.0,0.0,0.0,0.0,0.0,0.0,0.0,-7.1379,-7.7787,-8.0308,-8.404,-8.3868,0.0,0.0,0.0,0.0,0.0,0.0,-9.6137,-9.5942,-9.7173,-10.0166,-10.4876,-10.7699,-10.8436,-11.3367,-11.659,-11.7971,-11.7971,-11.7971,-11.7971,-11.9154,-11.968,-11.9812,-12.2376,-12.2837,-12.1193,-11.2556,-10.8936,-10.8596,-10.7733,-10.4,-9.9057,-9.7955,-9.8538,-9.9774,-9.8995,-10.3432,-10.9259,-10.8113,-10.7803,-10.7162,-10.3337,0.0,0.0,0.0,0.0,-10.1599,-10.7332,-11.0798,-11.4738,-12.1598,-12.4096,-12.5172,-12.582,-12.0088,-11.4247,-11.2507,-10.712,-10.0479,-9.2917,-9.7848,0.0,-9.3771,-10.4359,-11.3499,-11.4551,-12.1719,-12.6651,-12.6651,-12.6651,-12.6651,-12.6651,-12.5993,-12.5138,-12.4086,-12.2407,-12.0362,-11.8102,-11.4261,-10.8096,-9.9295,0.0,0.0,0.0,0.0,0.0,0.0,0.0,0.0,0.0,0.0,0.0,0.0,0.0,0.0,0.0,0.0,0.0,0.0,0.0,0.0,0.0,0.0,0.0,0.0,0.0,0.0,0.0,-6.319,-6.9948,-7.3988,-7.5018,-7.344,0.0,0.0,0.0,0.0,0.0,0.0,0.0,0.0,0.0,-9.0995,-9.509,-9.7365,-9.7684,-10.501,-10.9145,-10.9998,-11.3362,-11.4946,-11.4946,-11.5866,-11.6261,-11.6195,-11.534,-11.283,-10.9137,-10.5006,-10.2059,-9.9709,0.0,0.0,0.0,0.0,-8.6301,-8.8349,-8.6556,-9.0431,-9.5912,-9.482,0.0,0.0,0.0,0.0,0.0,0.0,0.0,-9.5674,-10.0298,-10.695,-11.361,-11.8505,-11.807,-11.7578,-12.1608,-11.0649,-10.003,-9.9824,-9.5021,-8.9234,-8.3513,-8.7787,0.0,0.0,0.0,-10.6397,-10.791,-11.7773,-12.4678,-12.4678,-12.4678,-12.4678,-12.4678,-12.3864,-12.2616,-12.0667,-12.0023,-11.654,-10.9553,-10.9805,-10.2717,0.0,0.0,0.0,0.0,0.0,0.0,0.0,0.0,0.0,0.0,0.0,0.0,0.0,0.0,0.0,0.0,0.0,0.0,0.0,0.0,0.0,0.0,0.0,0.0,0.0,0.0,0.0,0.0,0.0,-6.3619,-7.0173,0.0,0.0,0.0,0.0,0.0,0.0,0.0,0.0,0.0,0.0,0.0,0.0,0.0,-8.7208,-8.7071,-9.5022,-9.8993,-9.9058,-10.5733,-10.8956,-10.8956,-10.8956,-10.8956,-10.8762,-10.3701,0.0,-9.4566,-9.7952,0.0,0.0,0.0,0.0,0.0,0.0,0.0,0.0,0.0,0.0,0.0,0.0,0.0,0.0,0.0,0.0,0.0,0.0,0.0,0.0,0.0,0.0,-11.0979,-11.2151,-10.8068,-10.5859,-11.2733,-9.6945,-8.2461,-8.6143,-8.3053,-7.937,0.0,0.0,0.0,0.0,0.0,0.0,-9.9098,-11.3104,-12.2968,-12.3165,-12.3165,-12.3165,-12.3165,-12.128,-11.9171,-11.7247,-11.6352,-11.084,-9.9693,-10.4753,0.0,0.0,0.0,0.0,0.0,0.0,0.0,0.0,0.0,0.0,0.0,0.0,0.0,0.0,0.0,0.0,0.0,0.0,0.0,0.0,0.0,0.0,0.0,0.0,0.0,0.0,0.0,0.0,0.0,0.0,0.0,0.0,0.0,0.0,0.0,0.0,0.0,0.0,0.0,0.0,0.0,0.0,0.0,0.0,0.0,0.0,0.0,0.0,0.0,0.0,-8.944,-9.0025,-9.0025,-9.0025,-9.0203,-9.0496,-8.9161,-9.0854,-9.3833,-8.3332,0.0,0.0,0.0,0.0,0.0,0.0,0.0,0.0,0.0,0.0,0.0,0.0,0.0,0.0,0.0,0.0,0.0,0.0,0.0,0.0,0.0,0.0,-8.6374,-9.3594,-9.5235,-9.4704,-9.2661,0.0,0.0,0.0,0.0,0.0,0.0,0.0,0.0,0.0,0.0,0.0,-9.7585,-11.0737,-12.0338,-12.1522,-12.1653,-12.1653,-12.1653,-11.9079,-11.783,-11.8694,-10.8417,-10.1014,0.0,0.0,0.0,0.0,0.0,0.0,0.0,0.0,0.0,0.0,0.0,0.0,0.0,0.0,0.0,0.0,0.0,0.0,0.0,0.0,0.0,0.0,0.0,0.0,0.0,0.0,0.0,0.0,0.0,0.0,0.0,0.0,0.0,0.0,0.0,0.0,0.0,0.0,0.0,0.0,0.0,0.0,0.0,0.0,0.0,0.0,0.0,0.0,0.0,0.0,0.0,0.0,0.0,0.0,0.0,0.0,0.0,0.0,-8.0873,-7.4002,0.0,0.0,0.0,0.0,0.0,0.0,0.0,0.0,0.0,0.0,0.0,0.0,0.0,0.0,0.0,0.0,0.0,0.0,0.0,0.0,0.0,0.0,0.0,0.0,0.0,0.0,0.0,0.0,0.0,0.0,0.0,0.0,0.0,0.0,0.0,0.0,0.0,0.0,0.0,0.0,-9.4955,-10.8296,-11.801,-11.8891,-11.8807,-11.8732,-11.8957,-11.7419,-11.44,-10.9222,-10.2652,0.0,0.0,0.0,0.0,0.0,0.0,0.0,0.0,0.0,0.0,0.0,0.0,0.0,0.0,0.0,0.0,0.0,0.0,0.0,0.0,0.0,0.0,0.0,0.0,0.0,0.0,0.0,0.0,0.0,0.0,0.0,0.0,0.0,0.0,0.0,0.0,0.0,0.0,0.0,0.0,0.0,0.0,0.0,0.0,0.0,0.0,0.0,0.0,0.0,0.0,0.0,0.0,0.0,0.0,0.0,0.0,0.0,0.0,0.0,-7.4246,-6.0389,0.0,0.0,0.0,0.0,0.0,0.0,0.0,0.0,0.0,0.0,0.0,0.0,0.0,0.0,0.0,0.0,0.0,0.0,0.0,0.0,0.0,0.0,0.0,0.0,0.0,0.0,0.0,0.0,0.0,0.0,0.0,0.0,0.0,0.0,0.0,0.0,0.0,0.0,0.0,0.0,-9.1938,-10.58,-11.5762,-11.6787,-11.6557,-11.6557,-11.6853,-11.5704,-11.0583,-10.0153,-9.6236,0.0,0.0,0.0,0.0,0.0,0.0,0.0,0.0,0.0,0.0,0.0,0.0,0.0,0.0,0.0,0.0,0.0,0.0,0.0,0.0,0.0,0.0,0.0,0.0,0.0,0.0,0.0,0.0,0.0,0.0,0.0,0.0,0.0,0.0,0.0,0.0,0.0,0.0,0.0,0.0,0.0,0.0,0.0,0.0,0.0,0.0,0.0,0.0,0.0,0.0,0.0,0.0,0.0,0.0,0.0,0.0,0.0,0.0,0.0,0.0,0.0,0.0,0.0,0.0,0.0,0.0,0.0,0.0,0.0,0.0,0.0,0.0,0.0,0.0,0.0,0.0,0.0,0.0,0.0,0.0,0.0,0.0,0.0,0.0,0.0,0.0,0.0,0.0,0.0,0.0,0.0,0.0,0.0,0.0,0.0,0.0,0.0,0.0,0.0,0.0,0.0,-8.8905,-10.3109,-11.3959,-11.6524,-11.6853,-11.6853,-11.6853,-11.3165,-10.7644,-9.9955,0.0,0.0,0.0,0.0,0.0,0.0,0.0,0.0,0.0,0.0,0.0,0.0,0.0,0.0,0.0,0.0,0.0,0.0,0.0,0.0,0.0,0.0,0.0,0.0,0.0,0.0,0.0,0.0,0.0,0.0,0.0,0.0,0.0,0.0,0.0,0.0,0.0,0.0,0.0,0.0,0.0,0.0,0.0,0.0,0.0,0.0,0.0,0.0,0.0,0.0,0.0,0.0,0.0,0.0,0.0,0.0,0.0,0.0,0.0,0.0,0.0,0.0,0.0,0.0,0.0,0.0,0.0,0.0,0.0,0.0,0.0,0.0,0.0,0.0,0.0,0.0,0.0,0.0,0.0,0.0,0.0,0.0,0.0,0.0,0.0,0.0,0.0,0.0,0.0,0.0,0.0,0.0,0.0,0.0,0.0,0.0,0.0,0.0,0.0,0.0,0.0,0.0,-8.5826,-10.049,-11.1228,-11.277,-11.3546,-11.3678,-11.3039,-11.1395,-10.4095,-8.9328,0.0,0.0,0.0,0.0,0.0,0.0,0.0,0.0,0.0,0.0,0.0,0.0,0.0,0.0,0.0,0.0,0.0,0.0,0.0,0.0,0.0,0.0,0.0,0.0,0.0,0.0,0.0,0.0,0.0,0.0,0.0,0.0,0.0,0.0,0.0,0.0,0.0,0.0,0.0,0.0,0.0,0.0,0.0,0.0,0.0,0.0,0.0,0.0,0.0,0.0,0.0,0.0,0.0,0.0,0.0,0.0,0.0,0.0,0.0,0.0,0.0,0.0,0.0,0.0,0.0,0.0,0.0,0.0,0.0,0.0,0.0,0.0,0.0,0.0,0.0,0.0,0.0,0.0,0.0,0.0,0.0,0.0,0.0,0.0,0.0,0.0,0.0,0.0,0.0,0.0,0.0,0.0,0.0,0.0,0.0,0.0,0.0,0.0,0.0,0.0,0.0,0.0,-8.2278,-9.7221,-10.7881,-10.8433,-10.9543,-10.9932,-10.9225,-10.8764,-10.0489,-8.1652,0.0,0.0,0.0,0.0,0.0,0.0,0.0,0.0,0.0,0.0,0.0,0.0,0.0,0.0,0.0,0.0,0.0,0.0,0.0,0.0,0.0,0.0,0.0,0.0,0.0,0.0,0.0,0.0,0.0,0.0,0.0,0.0,0.0,0.0,0.0,0.0,0.0,0.0,0.0,0.0,0.0,0.0,0.0,0.0,0.0,0.0,0.0,0.0,0.0,0.0,0.0,0.0,0.0,0.0,0.0,0.0,0.0,0.0,0.0,0.0,0.0,0.0,0.0,0.0,0.0,0.0,0.0,0.0,0.0,0.0,0.0,0.0,0.0,0.0,0.0,0.0,0.0,0.0,0.0,0.0,0.0,0.0,0.0,0.0,0.0,0.0,0.0,0.0,0.0,0.0,0.0,0.0,0.0,0.0,0.0,0.0,0.0,0.0,0.0,0.0,0.0,0.0,-7.7792,-9.3245,-10.4096,-10.4096,-10.5345,-10.62,-10.62,-10.4885,-9.6883,0.0,0.0,0.0,0.0,0.0,0.0,0.0,0.0,0.0,0.0,0.0,0.0,0.0,0.0,0.0,0.0,0.0,0.0,0.0,0.0,0.0,0.0,0.0,0.0,0.0,0.0,0.0,0.0,0.0,0.0,0.0,0.0,0.0,0.0,0.0,0.0,0.0,0.0,0.0,0.0,0.0,0.0,0.0,0.0,0.0,0.0,0.0,0.0,0.0,0.0,0.0,0.0,0.0,0.0,0.0,0.0,0.0,0.0,0.0,0.0,0.0,0.0,0.0,0.0,0.0,0.0,0.0,0.0,0.0,0.0,0.0,0.0,0.0,0.0,0.0,0.0,0.0,0.0,0.0,0.0,0.0,0.0,0.0,0.0,0.0,0.0,0.0,0.0,0.0,0.0,0.0,0.0,0.0,0.0,0.0,0.0,0.0,0.0,0.0,0.0,0.0,0.0,0.0,-7.7463,-9.1231,-10.1077,-10.232,-10.3767,-10.4687,-10.4687,-10.3306,-9.4669,-7.6487,0.0,0.0,0.0,0.0,0.0,0.0,0.0,0.0,0.0,0.0,0.0,0.0,0.0,0.0,0.0,0.0,0.0,0.0,0.0,0.0,0.0,0.0,0.0,0.0,0.0,0.0,0.0,0.0,0.0,0.0,0.0,0.0,0.0,0.0,0.0,0.0,0.0,0.0,0.0,0.0,0.0,0.0,0.0,0.0,0.0,0.0,0.0,0.0,0.0,0.0,0.0,0.0,0.0,0.0,0.0,0.0,0.0,0.0,0.0,0.0,0.0,0.0,0.0,0.0,0.0,0.0,0.0,0.0,0.0,0.0,0.0,0.0,0.0,0.0,0.0,0.0,0.0,0.0,0.0,0.0,0.0,0.0,0.0,0.0,0.0,0.0,0.0,0.0,0.0,0.0,0.0,0.0,0.0,0.0,0.0,0.0,0.0,0.0,0.0,0.0,0.0,0.0,0.0,-8.6571,-9.5497,-9.8115,-9.9821,-10.0485,-10.0036,-9.8864,-9.0509,-7.239,0.0,0.0,0.0,0.0,0.0,0.0,0.0,0.0,0.0,0.0,0.0,0.0,0.0,0.0,0.0,0.0,0.0,0.0,0.0,0.0,0.0,0.0,0.0,0.0,0.0,0.0,0.0,0.0,0.0,0.0,0.0,0.0,0.0,0.0,0.0,0.0,0.0,0.0,0.0,0.0,0.0,0.0,0.0,0.0,0.0,0.0,0.0,0.0,0.0,0.0,0.0,0.0,0.0,0.0,0.0,0.0,0.0,0.0,0.0,0.0,0.0,0.0,0.0,0.0,0.0,0.0,0.0,0.0,0.0,0.0,0.0,0.0,0.0,0.0,0.0,0.0,0.0,0.0,0.0,0.0,0.0,0.0,0.0,0.0,0.0,0.0,0.0,0.0,0.0,0.0,0.0,0.0,0.0,0.0,0.0,0.0,0.0,0.0,0.0,0.0,0.0,0.0,0.0,-8.0473,-8.8379,-9.2522,-9.4047,-9.4351,-9.3366,-9.2537,-8.5021,-6.8285,-6.5485,0.0,0.0,0.0,0.0,0.0,0.0,0.0,0.0,0.0,0.0,0.0,0.0,0.0,0.0,0.0,0.0,0.0,0.0,0.0,0.0,0.0,0.0,0.0,0.0,0.0,0.0,0.0,0.0,0.0,0.0,0.0,0.0,0.0,0.0,0.0,0.0,0.0,0.0,0.0,0.0,0.0,0.0,0.0,0.0,0.0,0.0,0.0,0.0,0.0,0.0,0.0,0.0,0.0,0.0,0.0,0.0,0.0,0.0,0.0,0.0,0.0,0.0,0.0,0.0,0.0,0.0,0.0,0.0,0.0,0.0,0.0,0.0,0.0,0.0,0.0,0.0,0.0,0.0,0.0,0.0,0.0,0.0,0.0,0.0,0.0,0.0,0.0,0.0,0.0,0.0,0.0,0.0,0.0,0.0,0.0,0.0,0.0,0.0,0.0,0.0,0.0,0.0,-8.062,-8.9168,-9.1273,-9.0848,-9.1225,-9.2983,-9.0237,-8.2333,-6.817,-6.4923,0.0,0.0,0.0,0.0,0.0,0.0,0.0,0.0,0.0,0.0,0.0,0.0,0.0,0.0,0.0,0.0,0.0,0.0,0.0,0.0,0.0,0.0,0.0,0.0,0.0,0.0,0.0,0.0,0.0,0.0,0.0,0.0,0.0,0.0,0.0,0.0,0.0,0.0,0.0,0.0,0.0,0.0,0.0,0.0,0.0,0.0,0.0,0.0,0.0,0.0,0.0,0.0,0.0,0.0,0.0,0.0,0.0,0.0,0.0,0.0,0.0,0.0,0.0,0.0,0.0,0.0,0.0,0.0,0.0,0.0,0.0,0.0,0.0,0.0,0.0,0.0,0.0,0.0,0.0,0.0,0.0,0.0,0.0,0.0,0.0,0.0,0.0,0.0,0.0,0.0,0.0,0.0,0.0,0.0,0.0,0.0,0.0,0.0,0.0,0.0,0.0,0.0,-7.0756,-8.1738,-8.9168,-8.8797,-8.8681,-9.0109,-8.693,-7.8939,-6.5285,-6.2431,0.0,0.0,0.0,0.0,0.0,0.0,0.0,0.0,0.0,0.0,0.0,0.0,0.0,0.0,0.0,0.0,0.0,0.0,0.0,0.0,0.0,0.0,0.0,0.0,0.0,0.0,0.0,0.0,0.0,0.0,0.0,0.0,0.0,0.0,0.0,0.0,0.0,0.0,0.0,0.0,0.0,0.0,0.0,0.0,0.0,0.0,0.0,0.0,0.0,0.0,0.0,0.0,0.0,0.0,0.0,0.0,0.0,0.0,0.0,0.0,0.0,0.0,0.0,0.0,0.0,0.0,0.0,0.0,0.0,0.0,0.0,0.0,0.0,0.0,0.0,0.0,0.0,0.0,0.0,0.0,0.0,0.0,0.0,0.0,0.0,0.0,0.0,0.0,0.0,0.0,0.0,0.0,0.0,0.0,0.0,0.0,0.0,0.0,0.0,0.0,0.0,0.0,0.0,-7.0756,-8.5617,-8.6783,-8.6454,-8.6242,-8.3511,-7.5805,-6.1675,0.0,0.0,0.0,0.0,0.0,0.0,0.0,0.0,0.0,0.0,0.0,0.0,0.0,0.0,0.0,0.0,0.0,0.0,0.0,0.0,0.0,0.0,0.0,0.0,0.0,0.0,0.0,0.0,0.0,0.0,0.0,0.0,0.0,0.0,0.0,0.0,0.0,0.0,0.0,0.0,0.0,0.0,0.0,0.0,0.0,0.0,0.0,0.0,0.0,0.0,0.0,0.0,0.0,0.0,0.0,0.0,0.0,0.0,0.0,0.0,0.0,0.0,0.0,0.0,0.0,0.0,0.0,0.0,0.0,0.0,0.0,0.0,0.0,0.0,0.0,0.0,0.0,0.0,0.0,0.0,0.0,0.0,0.0,0.0,0.0,0.0,0.0,0.0,0.0,0.0,0.0,0.0,0.0,0.0,0.0,0.0,0.0,0.0,0.0,0.0,0.0,0.0,0.0,0.0,-6.2142,-7.7973,-8.2766,-8.4474,-8.3405,-8.1788,-7.4772,-6.0305,0.0,0.0,0.0,0.0,0.0,0.0,0.0,0.0,0.0,0.0,0.0,0.0,0.0,0.0]}],[{"header":{"parameterUnit":"kt","parameterCategory":2,"dx":1,"dy":1,"la1":29.285339999999998,"la2":30.599998999999997,"lo1":-89.70041500000002,"lo2":-87.6738589999976,"nx":112,"ny":82,"refTime":"2022-10-20T00:00:00:Z","depth":0,"parameterNumber":2,"parameterNumberName":"V-component_of_WINDS"},"data":[8.7552,8.7697,8.6559,8.3057,7.9734,7.6314,7.2745,6.6205,6.0773,6.0277,5.8502,5.6639,5.495,5.374,5.2436,0.0,0.0,0.0,0.0,4.9989,5.0324,0.0,0.0,0.0,0.0,0.0,0.0,0.0,0.0,0.0,0.0,8.2415,8.7723,8.8912,9.3497,9.6087,9.63,9.6639,9.7149,9.7786,9.8423,9.8748,9.8822,9.9852,9.9858,9.9325,10.0021,9.9797,9.9187,9.821,9.7276,9.6385,9.5408,9.4686,9.4049,9.3115,9.2181,9.1417,9.1714,9.2478,9.3455,9.4347,9.5918,9.7574,9.8168,9.9017,9.9782,9.9697,10.0164,10.0546,9.9824,10.0164,10.0673,10.0673,10.0673,10.0673,10.0673,10.0673,10.0673,10.0673,10.0673,10.0673,10.0673,10.0418,10.0206,10.0206,9.9654,9.9357,9.9612,9.9145,9.8762,9.8762,9.8465,9.8041,9.7361,9.7616,9.7786,9.7786,9.7786,9.7531,9.6979,9.5748,9.4347,9.2818,9.1502,9.0355,8.9421,8.9421,8.9421,8.9421,8.9421,8.9421,8.0042,8.0143,7.8947,7.5101,7.1826,6.8611,6.5094,5.8675,5.3382,5.2873,5.1784,5.0836,5.071,5.0494,5.0146,0.0,0.0,0.0,0.0,0.0,5.1043,0.0,0.0,0.0,0.0,0.0,0.0,0.0,7.6046,0.0,7.8339,8.543,9.0228,9.1757,9.5111,9.7191,9.7786,9.8126,9.8635,9.9272,9.9272,9.9416,9.9858,10.0347,10.0347,9.9816,10.0171,9.9654,9.872,9.7743,9.6809,9.5918,9.5281,9.4474,9.3497,9.2266,9.1205,9.0355,9.0355,9.1205,9.2521,9.371,9.5196,9.6597,9.7191,9.8253,9.9399,10.0036,10.0461,10.0631,10.0291,10.0461,10.0631,10.0291,10.0461,10.0673,10.0673,10.0673,10.0673,10.0673,10.0673,10.0673,10.0673,10.0673,10.0673,10.0673,10.0164,9.9994,10.0631,10.0121,9.9739,9.9739,9.9484,9.9145,9.8805,9.8508,9.8423,9.8762,9.8762,9.838,9.7446,9.6215,9.4644,9.2818,9.1502,9.0355,8.9421,8.9421,8.9421,8.9421,8.9421,8.9421,7.2369,7.1172,6.8996,6.3033,6.0628,5.8609,5.4249,5.248,5.1532,5.1044,5.0919,5.0836,5.0446,5.04,4.9645,4.7591,4.8695,0.0,0.0,4.9833,5.2053,5.4152,6.1226,0.0,0.0,7.5409,7.8934,0.0,8.4708,8.853,8.6831,9.2011,9.5493,9.647,9.7361,9.7828,9.7913,9.8847,9.9314,9.9314,9.9314,9.9824,10.0673,10.0673,10.0673,10.0588,9.9697,9.872,9.7701,9.6852,9.5918,9.5068,9.5026,9.4432,9.337,9.1502,9.0228,8.9421,8.9421,9.0653,9.2563,9.4432,9.5663,9.6427,9.647,9.7786,9.923,9.9272,9.9951,10.0503,9.9569,9.9994,10.0461,9.9527,10.0036,10.0673,10.0673,10.0673,10.0673,10.0673,10.0673,10.0673,10.0673,10.0673,10.0673,10.0673,10.0673,10.0673,10.0673,10.0673,10.0673,10.0673,9.9866,9.9697,10.0631,9.9866,9.9697,10.0631,10.0673,10.0249,9.9272,9.7446,9.5578,9.3625,9.1799,9.0355,8.9421,8.9421,8.9421,8.9421,8.9421,8.9421,6.4026,6.4271,6.3397,6.0835,6.0599,6.0224,5.7525,5.4164,5.155,5.1003,5.0667,0.0,0.0,0.0,5.0794,5.092,0.0,5.1632,5.1296,5.2517,5.6797,6.5473,7.02,7.4348,7.8254,7.8042,7.9146,8.2804,8.509,8.6789,8.7638,9.1714,9.5068,9.7361,9.7659,9.8465,9.9909,10.0164,10.0291,10.0291,10.0291,10.0461,10.0673,10.0673,10.0333,9.9654,9.9399,9.8338,9.6809,9.6555,9.5918,9.4984,9.4304,9.3497,9.2521,9.1289,9.0228,8.9421,8.9421,9.0228,9.1544,9.3412,9.4686,9.5578,9.6257,9.7276,9.8338,9.906,9.9951,10.0631,10.0376,10.0503,10.0631,10.0376,10.0503,10.0673,10.0673,10.0673,10.0673,10.0673,10.0673,10.0673,10.0673,10.0673,10.0673,10.0673,10.0673,10.0673,10.0673,10.0673,10.0673,10.0673,10.0461,10.0418,10.0673,10.0461,10.0418,10.0673,10.0673,9.9951,9.8253,9.7107,9.5281,9.2733,9.1459,9.0355,8.9421,8.9421,8.9421,8.9421,8.9421,8.9421,5.7051,5.7111,5.6574,5.57,5.6182,5.6409,5.5038,5.2893,5.1082,5.0708,0.0,0.0,0.0,0.0,0.0,0.0,5.2468,5.369,5.5243,5.7592,6.1849,6.9071,7.3549,7.715,7.9868,8.1014,8.3264,8.7298,8.9082,9.0101,9.0398,9.3243,9.5748,9.7743,9.821,9.9145,10.0673,10.0673,10.0673,10.0673,10.0673,10.0673,10.0673,10.0673,10.0164,9.9272,9.8847,9.7828,9.6427,9.6045,9.5578,9.4941,9.3582,9.2521,9.1587,9.061,9.0143,8.9973,8.9549,9.0313,9.1587,9.2224,9.337,9.4644,9.5578,9.6512,9.7446,9.838,9.9357,10.0121,10.0121,10.0376,10.0588,10.0206,10.0418,10.0673,10.0673,10.0673,10.0673,10.0673,10.0673,10.0673,10.0673,10.0673,10.0673,10.0673,10.0673,10.0673,10.0673,10.0673,10.0673,10.0673,10.0673,10.0673,10.0673,10.0673,10.0673,10.0673,10.0673,9.9994,9.8465,9.6385,9.4516,9.2903,9.1544,9.078,9.061,9.0228,8.9803,8.9421,8.9846,8.9803,5.1762,5.0823,5.0121,4.9867,5.0042,5.0276,4.9994,0.0,5.1251,5.1336,0.0,5.2506,5.2086,0.0,0.0,5.1988,5.367,5.6293,5.9805,6.45,6.825,6.9913,7.5081,7.8551,7.8423,8.4411,8.9166,9.0992,9.4262,9.5493,9.4049,9.5578,9.6937,9.7913,9.8805,9.9739,10.0673,10.0673,10.0673,10.0673,10.0588,10.0588,10.0673,10.0461,9.9909,9.906,9.8083,9.7149,9.6257,9.5408,9.4984,9.4729,9.32,9.2011,9.1035,9.0101,9.0228,9.0737,8.9888,9.0653,9.1841,9.1077,9.2054,9.3667,9.4601,9.562,9.6639,9.7531,9.8508,9.9314,9.9399,10.0079,10.0503,9.9654,10.0079,10.0673,10.0673,10.0673,10.0673,10.0673,10.0673,10.0673,10.0673,10.0673,10.0673,10.0673,10.0673,10.0673,10.0673,10.0673,10.0673,10.0673,10.0673,10.0673,10.0673,10.0673,10.0673,10.0673,10.0673,10.0249,9.9314,9.596,9.3964,9.3625,9.1884,9.1374,9.2139,9.1374,9.061,8.9931,9.0525,9.0398,5.0316,4.9705,4.9337,4.9709,5.0076,5.0528,0.0,0.0,0.0,5.7237,6.0459,6.2199,5.9091,5.9045,5.9734,6.0314,6.137,6.2532,6.3807,7.2719,8.0505,8.3766,8.6436,8.785,8.7086,8.8997,9.1077,9.2945,9.3795,9.4686,9.5875,9.6257,9.7234,9.8932,9.9187,9.9739,10.0673,10.0673,10.0673,10.0673,9.9909,9.9951,10.0631,9.906,9.8253,9.8041,9.7107,9.6215,9.5323,9.5153,9.4601,9.3964,9.4347,9.3922,9.2988,9.2096,9.1374,9.0822,9.061,9.0313,9.0058,9.0653,9.1629,9.2733,9.3625,9.5111,9.6639,9.7531,9.8508,9.9442,10.0206,10.0546,10.0631,10.0461,10.0546,10.0673,10.0673,10.0673,10.0673,10.0673,10.0673,10.0673,10.0673,10.0673,10.0673,10.0673,10.0673,10.0673,10.0673,10.0673,10.0673,10.0673,10.0673,10.0673,10.0673,10.0673,10.0673,10.0673,10.0673,10.0249,9.9314,9.7828,9.596,9.3667,9.2563,9.1714,9.112,9.1757,9.2309,9.2776,9.1459,9.0737,4.9457,4.9171,4.9047,4.9335,4.9826,0.0,0.0,5.2631,5.518,5.8534,6.1218,6.3323,6.396,6.4871,6.6003,6.714,6.7794,6.9162,7.2516,8.012,8.5472,8.5939,8.8869,9.0653,9.0185,9.0992,9.184,9.2436,9.3248,9.4522,9.6271,9.7361,9.8295,9.923,9.9739,10.0206,10.0673,10.0673,10.0673,10.0673,10.0206,9.9994,9.9951,9.9484,9.872,9.7786,9.7319,9.6852,9.6385,9.596,9.5196,9.4347,9.4347,9.3795,9.286,9.1926,9.1587,9.1459,9.0483,9.0143,9.0143,9.0143,9.078,9.1757,9.2691,9.3964,9.5366,9.6724,9.7828,9.8762,9.9739,10.0333,10.0673,10.0673,10.0333,9.9994,9.9994,9.9994,9.9994,9.9994,10.0376,10.0546,10.0079,10.0376,10.0673,10.0673,10.0673,10.0673,10.0673,10.0673,10.0673,10.0673,10.0673,10.0673,10.0673,10.0673,10.0673,10.0673,10.0673,10.0036,9.8593,9.8083,9.647,9.371,9.32,9.2988,9.2945,9.3455,9.32,9.2224,9.1799,9.1289,4.8799,4.88,4.8964,4.8964,4.9706,0.0,5.0835,5.2499,5.5338,6.0124,6.3053,6.5779,6.912,7.076,7.1971,7.3084,7.333,7.5388,8.1609,8.5685,8.7383,8.5515,8.8455,9.0529,9.0529,9.1564,9.1656,9.0799,9.304,9.5186,9.6822,9.8465,9.9357,9.9527,10.0291,10.0673,10.0673,10.0673,10.0673,10.0673,10.0503,10.0036,9.9272,9.9697,9.9102,9.7786,9.7616,9.7659,9.7743,9.6852,9.6045,9.5281,9.4474,9.3625,9.2733,9.1757,9.1757,9.2054,9.0313,9.0058,9.044,8.9676,9.0185,9.1289,9.2054,9.3073,9.4219,9.5748,9.6979,9.8041,9.9017,9.9994,10.0673,10.0673,9.9951,9.9314,9.9527,9.9399,9.923,9.9017,9.9612,9.9951,9.9399,9.9909,10.0461,10.0673,10.0673,10.0673,10.0673,10.0673,10.0673,10.0673,10.0673,10.0673,10.0673,10.0673,10.0673,10.0673,10.0503,9.9612,9.7871,9.7616,9.6385,9.3964,9.3922,9.4219,9.4771,9.4984,9.388,9.1672,9.2309,9.2139,4.7888,4.8345,4.8964,4.8964,4.9917,0.0,5.2479,5.9064,6.5451,6.7418,7.5061,8.0451,7.7266,7.7318,7.7998,7.8082,7.8124,8.0321,8.6394,8.7765,8.8572,8.9931,8.9956,8.985,8.985,9.0789,9.0605,8.9033,9.3393,9.7034,9.889,9.9187,9.9654,10.0503,10.0631,10.0673,10.0673,10.0673,10.0673,10.0673,9.9824,9.9399,9.923,9.7659,9.7234,9.7743,9.6979,9.7064,9.7743,9.6852,9.6427,9.63,9.6215,9.5578,9.4644,9.3667,9.2903,9.2139,9.1077,9.0185,8.9549,8.9464,9.0653,9.2181,9.2266,9.354,9.4941,9.5153,9.647,9.8041,9.9017,9.9994,10.0673,10.0673,9.9951,9.9527,10.0376,9.9866,9.9017,9.8126,9.8041,9.838,9.9145,9.9357,9.9697,10.0588,10.0673,10.0673,10.0673,10.0673,10.0673,10.0673,10.0673,10.0673,10.0673,10.0673,10.0673,10.0673,9.9909,9.8932,9.7828,9.7064,9.6087,9.4941,9.4899,9.4559,9.3795,9.4644,9.4899,9.4559,9.3837,9.3455,4.8265,4.8676,4.9171,4.9918,0.0,0.0,5.3118,5.8521,6.3906,6.6404,7.3639,7.9339,7.9007,8.0911,8.2656,8.2656,8.2656,8.34,8.5605,8.7619,8.8613,8.7996,8.959,9.0152,8.9276,9.0342,9.0567,8.883,9.0268,9.2695,9.6157,9.8649,10.0291,10.0673,10.0673,10.0673,10.0673,10.0673,10.0673,10.0673,9.9739,9.8975,9.838,9.7616,9.7149,9.7022,9.6639,9.6979,9.7743,9.6852,9.647,9.6427,9.5875,9.5408,9.4941,9.4007,9.3412,9.2945,9.2011,9.1459,9.112,9.112,9.1672,9.2393,9.2945,9.3625,9.4347,9.4899,9.562,9.6555,9.8041,9.9145,9.9866,9.9866,9.872,9.7913,9.8805,9.8295,9.7828,9.855,9.9102,9.9442,9.9314,9.9739,10.0249,10.0631,10.0673,10.0673,10.0673,10.0673,10.0673,10.0673,10.0673,10.0673,10.0673,10.0673,10.0673,10.0673,9.9824,9.8847,9.7828,9.6937,9.6045,9.5068,9.5068,9.4856,9.4474,9.4856,9.5068,9.5026,9.4092,9.337,4.8305,0.0,0.0,0.0,0.0,0.0,5.3927,5.9145,6.4392,6.6667,7.3462,7.9564,8.1057,8.3434,8.5398,8.5398,8.4984,8.4851,8.5364,8.7507,8.8533,8.7211,8.9225,9.0253,8.8822,8.9822,9.0018,8.8478,8.8909,9.0615,9.3874,9.7843,10.0184,10.0673,10.0673,10.0673,10.0673,10.0673,10.0673,10.0673,9.9739,9.8762,9.7786,9.7531,9.7064,9.647,9.647,9.6682,9.6979,9.6342,9.6087,9.6003,9.5323,9.5068,9.4941,9.4007,9.3625,9.3497,9.2606,9.2309,9.2309,9.2309,9.2478,9.2818,9.3455,9.3837,9.4177,9.4856,9.5068,9.5408,9.7022,9.8338,9.9272,9.9272,9.8253,9.7404,9.8083,9.7489,9.7319,9.8975,9.9612,9.9782,9.9357,9.9824,10.0376,10.0673,10.0673,10.0673,10.0673,10.0673,10.0673,10.0673,10.0673,10.0673,10.0673,10.0673,10.0673,10.0673,9.9569,9.855,9.7828,9.6682,9.5748,9.5068,9.5068,9.5068,9.5068,9.5068,9.5068,9.5026,9.4347,9.3667,0.0,0.0,0.0,5.0752,5.2082,5.3575,5.5485,6.3618,7.0893,7.1145,7.9316,8.6109,8.526,8.5313,8.5398,8.5398,8.4015,8.4223,8.7524,8.8179,8.8789,8.9549,8.9854,8.9661,8.8939,8.8896,8.8517,8.76,9.1387,9.3874,9.4035,9.6654,9.8833,10.0673,10.0673,10.0673,10.0673,10.0673,10.0673,10.0673,9.9739,9.8762,9.7786,9.6894,9.6512,9.647,9.647,9.596,9.5153,9.5111,9.5111,9.5111,9.5068,9.5068,9.4941,9.4007,9.3625,9.3497,9.2606,9.2309,9.2309,9.2309,9.2903,9.3582,9.3625,9.4304,9.5026,9.5068,9.5068,9.5281,9.6257,9.7871,9.9272,9.9272,9.923,9.9187,9.923,9.8465,9.8041,9.906,9.8508,9.8168,9.9102,9.9314,9.9654,10.0546,10.0673,10.0673,10.0673,10.0673,10.0673,10.0673,10.0673,10.0673,10.0673,10.0673,10.0673,10.0673,9.889,9.7828,9.7786,9.6045,9.5068,9.5068,9.5068,9.5068,9.5068,9.5068,9.5068,9.5068,9.5026,9.4984,5.2029,5.1829,5.1963,5.8631,5.7363,5.6224,6.276,6.8074,7.1832,7.2524,7.9609,8.4878,8.2076,8.3095,8.4307,8.3931,8.3818,8.4081,8.4844,8.6655,8.7489,8.6745,8.8195,8.8622,8.7358,8.8232,8.8707,8.8346,8.8166,8.9465,9.2933,9.307,9.4805,9.875,10.0021,10.0673,10.0673,10.0673,10.0673,10.0673,9.906,9.8126,9.7743,9.6215,9.5535,9.5535,9.5535,9.5366,9.5068,9.5068,9.5068,9.5068,9.5068,9.5068,9.5026,9.4686,9.4601,9.4559,9.4219,9.4134,9.4134,9.4134,9.4347,9.4601,9.4601,9.4814,9.5068,9.5068,9.5068,9.5281,9.6215,9.7361,9.8465,9.9102,9.8762,9.8465,9.9145,9.9527,9.9824,10.0164,9.9951,9.9824,10.0164,10.0206,10.0121,9.9824,10.0291,10.0461,9.9824,10.0291,10.0673,10.0673,10.0673,10.0673,10.0673,10.0673,10.0418,9.9782,9.8508,9.7531,9.6937,9.5705,9.5068,9.5068,9.5068,9.5068,9.5068,9.5068,9.5068,9.5026,9.4432,9.4432,5.4219,5.4608,5.5118,6.3596,6.1481,5.9607,6.8061,7.1413,7.3053,7.452,8.0742,8.4698,8.1074,8.216,8.3609,8.3553,8.3715,8.4022,8.4217,8.5657,8.637,8.5763,8.7601,8.84,8.7296,8.8156,8.8915,8.9181,8.7701,8.8528,9.2528,9.1682,9.3273,9.7888,9.9161,10.0021,10.0673,10.0673,10.0673,10.0673,9.872,9.7786,9.7743,9.5875,9.5068,9.5068,9.5068,9.5068,9.5068,9.5068,9.5068,9.5068,9.5068,9.5068,9.5068,9.5068,9.5068,9.5068,9.5068,9.5068,9.5068,9.5068,9.5068,9.5111,9.5451,9.5578,9.5578,9.5578,9.5578,9.562,9.5875,9.6639,9.7574,9.8508,9.8253,9.8168,9.9484,10.0249,10.0673,10.0673,10.0673,10.0673,10.0673,10.0673,10.0376,9.9399,10.0079,10.0333,9.9399,10.0121,10.0673,10.0673,10.0673,10.0673,10.0673,10.0673,10.0291,9.9357,9.8338,9.7404,9.6512,9.5578,9.5068,9.5068,9.5068,9.5068,9.5068,9.5068,9.5068,9.5026,9.4432,9.4474,5.4596,5.6578,5.8446,6.5961,6.4666,6.3698,7.1483,7.3672,7.4772,7.7334,8.2436,8.537,8.2186,8.2365,8.3273,8.4181,8.3796,8.3949,8.5527,8.5351,8.5451,8.7168,8.8144,8.8703,8.8779,8.884,8.9181,8.9941,9.0016,9.0827,9.2477,9.2646,9.4322,9.7806,9.797,9.8833,10.0716,10.0673,10.0673,10.0588,9.872,9.7786,9.7501,9.5875,9.5068,9.4915,9.5068,9.5068,9.5068,9.5068,9.5068,9.5068,9.5068,9.5068,9.5068,9.5068,9.5068,9.5068,9.5068,9.5068,9.5068,9.5068,9.5068,9.5238,9.6172,9.647,9.647,9.6512,9.6512,9.6257,9.5366,9.579,9.6682,9.7531,9.7786,9.838,10.0206,10.0631,10.0631,10.0673,10.0673,10.0673,10.0673,10.0673,10.0376,9.9399,10.0079,10.0333,9.9399,10.0121,10.0673,10.0673,10.0673,10.0673,10.051,10.051,10.0086,9.9111,9.802,9.7046,9.6271,9.5381,9.4915,9.5068,9.4915,9.4915,9.5068,9.5068,9.5068,9.5068,9.5068,9.5068,5.9651,6.055,6.1241,7.4305,7.2187,6.9444,7.8975,7.8358,7.6978,8.0837,8.2031,8.2126,8.1257,8.1725,8.2616,8.3548,8.2975,8.2887,8.4061,8.4169,8.4896,8.7088,8.7558,8.8121,8.8855,8.9333,8.9789,8.9979,9.0016,9.0148,9.0658,9.1972,9.3653,9.5821,9.7311,9.8833,10.0716,10.0673,10.0333,9.9612,9.838,9.6815,9.4839,9.4959,9.441,9.3329,9.4564,9.5068,9.5068,9.5068,9.5068,9.5068,9.5068,9.5068,9.5068,9.5068,9.5068,9.5068,9.5068,9.5068,9.5068,9.5068,9.5068,9.5238,9.6172,9.647,9.6597,9.7276,9.6979,9.6427,9.6172,9.63,9.6512,9.6767,9.7871,9.9017,9.9527,9.9654,9.9824,10.0546,10.0673,10.0673,10.0673,10.0673,10.0376,9.9399,10.0079,10.0333,9.9399,10.0121,10.0673,10.0673,10.0673,10.0184,9.8833,9.8669,9.7472,9.4609,9.4121,9.3902,9.359,9.3299,9.3793,9.5068,9.3793,9.3793,9.5068,9.5068,9.5068,9.5068,9.5068,9.5068,5.8479,6.1069,6.4393,7.5546,7.3619,7.1623,8.1858,8.0281,7.7546,8.0977,8.0188,7.9176,8.0141,8.1079,8.1834,8.2351,8.2573,8.2918,8.301,8.3505,8.464,8.7012,8.7434,8.8004,8.9219,8.9751,9.0016,9.0016,9.0016,9.0016,9.0016,9.0997,9.2646,9.5156,9.6319,9.797,10.0716,10.0673,10.0093,9.8691,9.7348,9.5739,9.3876,9.4677,9.3793,9.1577,9.3174,9.441,9.5068,9.5068,9.5068,9.5068,9.5068,9.5068,9.5068,9.5068,9.5068,9.5068,9.5068,9.5068,9.5068,9.5068,9.5068,9.5323,9.6639,9.7064,9.7234,9.8168,9.8083,9.7531,9.6682,9.647,9.647,9.647,9.7276,9.8041,9.8041,9.8338,9.8805,9.9314,9.9399,9.9399,9.9399,9.9782,9.9739,9.8762,9.9442,9.9866,9.9357,9.9739,10.0249,10.0673,10.0021,9.9161,9.8135,9.7311,9.5709,9.3351,9.2908,9.2545,9.2075,9.1625,9.22,9.3947,9.3019,9.3019,9.3947,9.4761,9.5068,9.5068,9.5068,9.4856,5.4448,6.0029,6.7191,7.3409,7.2664,7.2723,8.1785,8.0128,7.735,7.9831,7.8338,7.7201,7.9489,8.061,8.1126,8.1313,8.2568,8.3318,8.2693,8.3373,8.4815,8.7245,8.7511,8.8156,8.9865,9.0016,9.0016,9.0016,9.0016,9.0016,9.0016,9.0148,9.1842,9.5156,9.5322,9.6897,10.0517,10.019,9.9535,9.8136,9.6316,9.4668,9.3396,9.4325,9.2863,8.9854,9.1733,9.3329,9.4761,9.4915,9.5068,9.5068,9.4761,9.4915,9.5068,9.4761,9.4915,9.5068,9.5068,9.5068,9.5068,9.5068,9.5068,9.5408,9.7234,9.7786,9.8041,9.9145,9.9399,9.889,9.7107,9.6555,9.6427,9.63,9.63,9.63,9.647,9.7064,9.7659,9.7786,9.7786,9.7786,9.7786,9.8508,9.8805,9.7913,9.855,9.906,9.906,9.906,9.9442,10.0093,9.8788,9.7682,9.727,9.5821,9.4382,9.3053,9.2578,9.1699,9.09,9.0218,9.0446,9.1889,9.1889,9.1889,9.22,9.3638,9.441,9.441,9.441,9.3988,5.4282,6.0029,6.736,7.4045,7.6523,7.7843,8.0417,7.8944,7.8196,8.195,8.0425,7.8805,8.0503,8.108,8.1705,8.2879,8.3435,8.3649,8.3486,8.4246,8.5423,8.7283,8.7511,8.8156,8.9865,9.0016,9.0016,9.0016,9.0016,9.0016,9.0016,9.1504,9.315,9.5156,9.5322,9.6685,9.9627,9.8127,9.796,9.9087,9.7104,9.4317,9.0684,9.2283,9.1108,8.8118,9.1108,9.2708,9.3019,9.441,9.5068,9.4915,9.3484,9.3793,9.4872,9.3484,9.3793,9.5068,9.5068,9.5068,9.5068,9.5068,9.5068,9.5408,9.7234,9.7786,9.8168,9.9951,9.9866,9.9017,9.7871,9.7022,9.6257,9.5493,9.5281,9.5535,9.63,9.6597,9.6937,9.7659,9.7786,9.7786,9.7786,9.7956,9.7998,9.7828,9.7956,9.8041,9.8041,9.8041,9.7785,9.73,9.7058,9.6039,9.3741,9.3318,9.1814,8.8808,8.923,8.9159,8.8115,8.8746,8.8866,8.8276,8.8434,8.9066,9.0482,9.0795,9.0952,9.0952,9.0952,9.0871,5.6598,5.9179,6.2054,6.6561,6.9089,7.2456,8.01,7.847,7.6576,8.1226,7.8899,7.695,8.0049,8.0674,8.1058,8.2242,8.2737,8.3221,8.3676,8.4436,8.5575,8.7321,8.7511,8.8156,8.9865,9.0016,9.0016,9.0016,9.0016,9.0016,9.0016,9.0827,9.2179,9.382,9.3988,9.5263,9.7829,9.6988,9.6482,9.6482,9.649,9.4688,9.1339,9.0256,8.9066,8.7642,8.9224,9.0952,9.2511,9.2511,9.3019,9.3638,9.1889,9.22,9.3638,9.2863,9.3638,9.5068,9.5068,9.5068,9.5068,9.5068,9.5068,9.5408,9.7234,9.7786,9.821,10.0164,10.0376,9.9654,9.8168,9.7489,9.6809,9.5408,9.5068,9.5196,9.562,9.5748,9.5875,9.63,9.6385,9.6385,9.6385,9.6385,9.6555,9.7022,9.7107,9.6961,9.6433,9.6098,9.5547,9.4731,9.4244,9.3332,9.2109,9.1571,9.0651,8.8878,8.8802,8.8375,8.7473,8.7982,8.7558,8.6248,8.7007,8.7959,8.8751,8.9539,9.0011,9.0011,9.0011,8.977,5.78,5.7851,5.7594,6.1135,6.2282,6.5723,7.7984,7.6276,7.3744,7.9461,7.7482,7.5893,7.9386,8.0032,8.0373,8.136,8.2196,8.3031,8.3866,8.4549,8.5537,8.7093,8.7397,8.8118,8.9599,8.9903,9.0016,9.0016,9.0016,9.0016,9.0016,9.0318,9.1243,9.2919,9.2763,9.3908,9.6534,9.6034,9.5274,9.4249,9.5121,9.453,9.2425,8.9065,8.7483,8.7483,8.7483,8.9066,9.1421,9.0325,9.0795,9.1733,9.0168,9.0795,9.2511,9.2045,9.3329,9.5068,9.5068,9.5068,9.5068,9.5068,9.5068,9.5408,9.7234,9.7786,9.821,10.0164,10.0673,10.0249,9.8295,9.7786,9.7404,9.5748,9.5196,9.5068,9.5068,9.5068,9.5068,9.5068,9.5068,9.5068,9.5068,9.4761,9.4818,9.5423,9.5195,9.482,9.422,9.3567,9.2851,9.2184,9.1394,9.1072,9.109,9.0597,9.013,8.9751,8.9485,8.8612,8.7017,8.7321,8.6713,8.5005,8.621,8.7007,8.7007,8.8276,8.8909,8.8909,8.8909,8.8551,5.4628,5.607,5.8904,6.6435,6.5236,6.3862,7.0663,6.999,7.0027,7.7406,7.8513,7.8665,7.9804,8.0032,8.0525,8.212,8.3069,8.3904,8.4739,8.4929,8.5309,8.6296,8.7055,8.789,8.8802,8.9561,9.0016,9.0016,9.0016,9.0016,9.0016,9.1504,9.2868,9.3688,9.3076,9.3989,9.6457,9.4148,9.3589,9.5149,9.3558,9.287,9.2627,8.9065,8.7483,8.7483,8.7483,8.7642,8.8118,8.9382,9.0168,9.0011,8.8434,8.9697,9.2356,9.0795,9.22,9.5068,9.5068,9.5068,9.5068,9.5068,9.5068,9.5408,9.7234,9.7786,9.821,10.0164,10.0673,10.0249,9.8295,9.7786,9.7531,9.6597,9.5705,9.5068,9.5068,9.5068,9.5068,9.5068,9.5068,9.5068,9.5068,9.3793,9.2708,9.2791,9.1544,9.0644,9.0527,9.0329,9.002,8.9296,8.9713,9.0059,9.009,9.0624,9.0472,8.8991,9.0244,8.9257,8.5347,8.6676,8.6713,8.5005,8.5128,8.5128,8.5128,8.5288,8.541,8.541,8.541,8.5372,5.2694,5.2552,5.29,5.9279,6.0834,6.108,6.2669,6.4684,6.7806,7.3792,7.54,7.5362,7.4223,7.7298,7.9728,7.8855,8.1095,8.3259,8.4094,8.4663,8.5271,8.6182,8.7017,8.7852,8.8688,8.9523,9.0016,9.0016,9.0016,9.0016,9.0016,9.0658,9.1381,9.2225,9.1419,9.1956,9.3991,9.2986,9.2567,9.2763,9.2593,9.1452,8.941,8.7019,8.589,8.589,8.589,8.589,8.605,8.6688,8.7483,8.8276,8.6688,8.7325,8.9539,8.9854,9.1421,9.3638,9.4718,9.5068,9.5068,9.5068,9.5068,9.5408,9.7234,9.7786,9.821,10.0164,10.0673,10.0376,9.906,9.8253,9.7574,9.6682,9.5748,9.5068,9.5068,9.5068,9.4761,9.3793,9.3484,9.3174,9.22,9.1421,9.0952,9.0952,9.0482,8.9697,8.8593,8.8434,8.8154,8.7443,8.8463,8.9395,8.9903,9.0776,9.0928,9.0282,9.0396,8.8802,8.5119,8.6144,8.622,8.4967,8.4967,8.4967,8.4967,8.4967,8.4967,8.4967,8.4967,8.4967,5.048,4.9947,4.9538,5.451,5.6815,5.839,6.0858,6.2391,6.4893,7.0597,7.3198,7.3843,7.1869,7.4944,7.745,7.6387,7.8703,8.136,8.3448,8.4246,8.4929,8.5802,8.6865,8.7739,8.8346,8.9371,9.0016,9.0016,9.0016,9.0016,9.0016,9.0016,9.0396,9.1193,9.0434,9.0814,9.2484,9.2219,9.1801,9.1193,9.132,9.005,8.7473,8.5726,8.4967,8.4967,8.4967,8.4967,8.4967,8.4967,8.589,8.7325,8.557,8.621,8.8434,8.9539,9.1108,9.2667,9.441,9.5068,9.5068,9.5068,9.5068,9.5408,9.7234,9.7786,9.821,10.0164,10.0673,10.0461,9.9527,9.855,9.7416,9.6056,9.5226,9.4729,9.4984,9.4507,9.3612,9.2625,9.2045,9.1421,9.0168,8.9539,8.9224,8.9224,8.8751,8.8197,8.7236,8.7076,8.698,8.6725,8.8156,8.9371,8.9979,9.1004,9.1307,9.0548,9.0206,8.8612,8.5499,8.5954,8.5878,8.4967,8.4967,8.4967,8.4967,8.4967,8.4967,8.4967,8.4967,8.4967,4.7568,4.883,5.1177,5.5471,5.4772,5.596,6.7488,6.4235,6.0858,6.849,7.3312,7.5931,7.5096,7.3653,7.335,7.5817,7.6235,7.8019,8.3031,8.3752,8.4056,8.4853,8.6486,8.7511,8.7549,8.9029,9.0016,9.0016,9.0016,9.0016,9.0016,9.0016,9.0396,9.1193,9.0434,9.0814,9.2484,9.1649,9.1231,9.1193,8.9561,8.8346,8.7473,8.5726,8.4967,8.4967,8.4967,8.4967,8.4967,8.4967,8.589,8.7325,8.557,8.7007,9.0011,9.0011,9.1108,9.2667,9.441,9.5068,9.5068,9.5068,9.5068,9.5408,9.7234,9.7786,9.821,10.0164,10.0673,10.0461,9.9527,9.855,9.71,9.4598,9.3751,9.3922,9.4856,9.308,9.1436,9.2346,9.1108,9.0011,9.0011,8.8593,8.7483,8.7483,8.605,8.5271,8.6182,8.6296,8.66,8.7435,8.8991,8.9979,9.0016,9.1535,9.1421,8.8953,8.9561,8.8878,8.641,8.6296,8.5878,8.4967,8.4967,8.4967,8.4967,8.4967,8.4967,8.4967,8.4967,8.4967,4.7486,4.83,5.0457,5.6628,5.4577,5.4046,6.5728,6.2546,5.9796,6.9705,6.8224,6.5605,6.7009,7.1072,7.4451,7.5248,7.7792,8.0411,8.2575,8.3373,8.4018,8.4853,8.5992,8.6903,8.7473,8.8536,8.9409,8.9979,9.0016,9.0016,9.0016,9.0016,9.0662,9.2029,9.1269,9.1383,9.2484,9.2219,9.1535,9.0358,8.8726,8.7777,8.7473,8.5726,8.4967,8.4967,8.4967,8.4967,8.4967,8.4967,8.525,8.573,8.5128,8.557,8.6847,8.9224,9.0325,9.1265,9.4102,9.5068,9.5068,9.5068,9.5068,9.5408,9.7234,9.7036,9.6616,9.9839,9.9816,9.8952,9.9205,9.7289,9.5029,9.4775,9.3787,9.2818,9.3115,9.2158,9.0923,9.0017,8.8503,8.7291,8.6572,8.5588,8.5079,8.5654,8.5288,8.5043,8.5347,8.5916,8.641,8.6676,8.8688,9.0244,9.0776,9.0814,9.0472,8.9675,8.8802,8.7435,8.5461,8.5385,8.5233,8.4967,8.4967,8.4967,8.4967,8.4967,8.4967,8.4967,8.4967,8.4967,4.7404,4.8014,4.9923,5.6057,5.3611,5.2611,6.3864,6.0448,5.7691,6.7592,6.5738,6.3154,6.531,6.8946,7.2287,7.4185,7.6691,7.9234,8.1664,8.2727,8.3562,8.4398,8.5575,8.6638,8.7435,8.8308,8.9143,8.9941,9.0016,9.0016,9.0016,9.0282,9.0928,9.1991,9.1801,9.1801,9.1991,9.1991,9.1345,8.9979,8.865,8.7814,8.7473,8.6106,8.5271,8.4967,8.4967,8.4967,8.4967,8.4967,8.4967,8.4967,8.557,8.589,8.621,8.9066,8.9539,8.9539,9.2822,9.4102,9.4256,9.4915,9.4607,9.4438,9.6288,9.6039,9.5815,9.8822,9.8833,9.7845,9.7087,9.5831,9.457,9.312,9.1755,9.0799,9.0535,8.9383,8.8185,8.7828,8.6389,8.5246,8.4975,8.4549,8.436,8.4891,8.4967,8.5081,8.5423,8.622,8.6865,8.7207,8.8915,9.032,9.1155,9.0472,8.9865,8.9561,8.7663,8.6068,8.5005,8.4967,8.4967,8.4967,8.4967,8.4967,8.4967,8.4967,8.4967,8.4967,8.4967,8.4967,4.7241,4.789,4.9521,5.4371,5.2195,5.1612,6.1936,5.8256,5.5028,6.3269,6.5162,6.6028,6.8139,6.6971,6.7427,7.2552,7.3729,7.559,8.0259,8.155,8.2347,8.3259,8.4853,8.6182,8.7055,8.808,8.9067,8.9941,9.0016,9.0016,9.0016,9.0776,9.1231,9.1307,9.2143,9.2181,9.1307,9.1307,9.0738,8.9637,8.8991,8.8156,8.7131,8.6486,8.5764,8.4929,8.4777,8.4777,8.4929,8.4777,8.4815,8.5128,8.6688,8.7325,8.7483,8.9382,8.9066,8.8118,9.1421,9.2667,9.3019,9.441,9.3947,9.304,9.4745,9.5081,9.5411,9.7269,9.7764,9.6941,9.3678,9.4296,9.4745,9.0058,8.8531,8.8028,8.7529,8.5418,8.4081,8.5724,8.4861,8.3904,8.4739,8.4853,8.4891,8.4929,8.4967,8.5271,8.6182,8.7017,8.7852,8.8688,8.9523,9.0282,9.1004,9.0358,8.9561,8.8764,8.641,8.5005,8.4967,8.4967,8.4967,8.4967,8.4967,8.4967,8.4967,8.4967,8.4967,8.4967,8.4967,8.4967,4.5988,4.6911,4.9365,5.586,5.2705,5.0866,6.1852,5.7316,5.3496,6.3127,5.96,5.6965,6.3756,6.3061,6.3365,6.9022,7.3729,7.6842,7.7298,7.7564,7.8247,7.9766,8.0867,8.2082,8.3524,8.6182,8.8422,8.9903,9.0016,9.0016,9.0016,9.0776,9.1535,9.2181,9.2978,9.3016,9.2219,9.2181,9.0168,8.6144,8.7283,8.6372,8.3676,8.4777,8.5157,8.4853,8.2955,8.3183,8.4815,8.2917,8.3221,8.4967,8.541,8.557,8.589,8.8909,8.9697,8.9697,9.1733,9.3329,9.4256,9.3484,9.3793,9.4635,9.5063,9.4279,9.3475,9.5295,9.5295,9.4692,9.3906,9.2109,9.049,9.0657,8.8042,8.575,8.6189,8.483,8.3729,8.4159,8.3396,8.3031,8.3866,8.4018,8.4246,8.4853,8.4967,8.5271,8.6182,8.7017,8.7852,8.8688,8.9523,8.9827,8.9409,8.9181,8.8726,8.7852,8.6676,8.5688,8.4967,8.4967,8.4967,8.4967,8.4967,8.4967,8.4967,8.4967,8.4967,8.4967,8.4967,8.4967,4.6391,4.674,4.8409,5.4411,5.2057,5.0216,5.7617,5.4832,5.2764,5.9717,5.87,5.7788,6.1507,6.4487,6.5995,6.5035,6.9358,7.3008,7.3312,7.5362,7.6577,7.5969,7.969,8.2196,8.193,8.5309,8.8042,8.9333,8.9789,9.0016,9.0016,9.1155,9.2029,9.2484,9.3661,9.3699,9.2484,9.2484,8.9941,8.4967,8.7093,8.6144,8.2537,8.4625,8.5347,8.4891,8.3524,8.3714,8.4853,8.3524,8.3752,8.4967,8.4967,8.541,8.621,8.7325,8.8118,8.9066,9.0795,9.2511,9.3947,9.3793,9.3793,9.3889,9.3573,9.2989,9.2706,9.2849,9.3377,9.3673,9.2345,9.1287,9.0058,8.8589,8.6217,8.4038,8.3366,8.2611,8.2122,8.2508,8.2204,8.2309,8.3524,8.3752,8.4018,8.4815,8.4967,8.5271,8.6182,8.7017,8.7852,8.8688,8.9523,8.9675,8.884,8.9143,8.884,8.7587,8.6372,8.5461,8.4967,8.4967,8.4967,8.4967,8.4967,8.4967,8.4967,8.4967,8.4967,8.4967,8.4967,8.4967,4.7242,4.7101,4.7648,5.2133,5.1118,4.9709,5.2656,5.2389,5.2336,5.5166,5.8798,6.1127,5.9952,6.5855,6.8548,6.1418,6.3698,6.7123,6.9477,7.3615,7.5438,7.2818,7.8855,8.2689,8.1398,8.5043,8.789,8.8726,8.9523,9.0016,9.0016,9.1573,9.2484,9.2484,9.4117,9.4155,9.2484,9.2484,8.9941,8.5005,8.7435,8.6448,8.2537,8.4967,8.5688,8.4929,8.4549,8.4587,8.4929,8.4549,8.4587,8.4967,8.4967,8.589,8.6847,8.541,8.621,8.8118,8.9224,9.0952,9.2708,9.3947,9.3484,9.2365,9.1216,9.1661,9.1817,8.9915,9.1196,9.2734,9.0313,9.05,9.0335,8.6224,8.4124,8.2542,8.0639,8.0107,8.0221,8.0943,8.1171,8.1702,8.3107,8.3562,8.3942,8.4474,8.4929,8.5423,8.622,8.7131,8.8042,8.8878,8.9599,8.9637,8.8688,8.9219,8.8953,8.7435,8.584,8.4967,8.4967,8.4967,8.4967,8.4967,8.4967,8.4967,8.4967,8.4967,8.4967,8.4967,8.4967,8.4967,4.696,4.7488,4.8874,5.2397,5.1118,4.9709,5.2656,5.1885,5.1001,5.2745,5.4492,5.6027,5.6912,5.7813,5.8721,6.0085,6.0818,6.3023,6.8262,7.0236,7.1489,7.24,7.4223,7.6956,8.0867,8.5043,8.789,8.8726,8.9523,9.0016,9.0016,9.1573,9.2484,9.2484,9.4117,9.4155,9.2484,9.2484,8.9941,8.4967,8.6827,8.5878,8.2537,8.4322,8.5081,8.4853,8.2727,8.2993,8.4777,8.2689,8.3069,8.4967,8.4967,8.5128,8.5288,8.5128,8.7007,8.9382,8.8276,8.9854,9.2356,9.1108,9.1577,9.2053,8.9942,8.9724,8.9791,8.6696,8.8076,9.0274,8.8305,8.6937,8.603,8.6075,8.3357,8.0677,8.0943,8.0525,8.007,8.0183,8.0791,8.1322,8.1588,8.2803,8.3524,8.2955,8.4701,8.6144,8.6296,8.7663,8.8915,8.9713,8.9941,8.9371,8.7852,8.7814,8.7511,8.6562,8.5537,8.4967,8.4967,8.4967,8.4967,8.4967,8.4967,8.4967,8.4967,8.4967,8.4967,8.4967,8.4967,8.4967,4.7611,4.8511,4.9709,5.0706,5.0334,4.9915,5.0747,5.0668,5.0543,5.1103,5.3181,5.4751,5.4587,5.7306,5.9536,5.9627,6.2519,6.5342,6.7224,7.0464,7.2666,7.2514,7.6425,7.9538,8.0487,8.4777,8.7701,8.808,8.9295,9.0016,9.0016,9.1155,9.2029,9.2484,9.3661,9.3471,9.1839,9.1801,8.9485,8.4967,8.6676,8.5043,8.0563,8.36,8.4208,8.2955,8.3183,8.3904,8.4853,8.3714,8.3904,8.4967,8.4967,8.4967,8.4967,8.4967,8.589,8.7483,8.8434,8.9224,9.0011,9.0952,9.1265,9.0877,8.9861,8.8735,8.7819,8.7134,8.8128,8.9087,8.7796,8.6545,8.5334,8.3898,8.2127,8.0677,8.0601,8.0297,8.0032,8.0032,8.0335,8.0715,8.1171,8.1892,8.2423,8.2461,8.4246,8.5764,8.622,8.7777,8.9105,8.9903,8.9599,8.9029,8.827,8.7397,8.6486,8.5612,8.5195,8.4967,8.4967,8.4967,8.4967,8.4967,8.4967,8.4967,8.4967,8.4967,8.4967,8.4967,8.4967,8.4967,4.8909,0.0,5.1829,5.0962,5.0994,5.0962,0.0,5.0125,5.0208,4.9681,5.2451,5.4427,5.2592,5.7137,6.04,5.8256,6.3362,6.7247,6.5963,7.0231,7.323,7.2552,7.8475,8.2196,8.1284,8.5043,8.7511,8.7511,8.9067,9.0016,9.0016,9.0776,9.1535,9.2181,9.2788,9.2522,9.1231,9.1231,8.9523,8.6144,8.7093,8.4853,8.007,8.341,8.36,8.1398,8.3866,8.4967,8.4967,8.4967,8.4967,8.4967,8.4967,8.4967,8.4967,8.4967,8.5288,8.589,8.8118,8.8434,8.8434,9.0639,9.0482,8.9382,8.8909,8.7668,8.6584,8.7573,8.8012,8.7973,8.708,8.6226,8.506,8.2201,8.1398,8.1019,8.0221,8.0032,8.0032,8.0032,8.0032,8.0221,8.0867,8.1133,8.1474,8.2082,8.3942,8.5499,8.622,8.7928,8.9257,8.9675,8.9143,8.8612,8.8232,8.6827,8.5688,8.5005,8.4967,8.4967,8.4967,8.4967,8.4967,8.4967,8.4967,8.4967,8.4967,8.4967,8.4967,8.4967,8.4967,8.4853,0.0,5.4138,5.6975,5.6025,5.4756,5.3546,5.259,5.1359,0.0,4.8133,5.1363,5.3698,5.0991,5.3663,5.5839,5.4627,6.0346,6.4854,6.4488,6.6948,6.9676,7.2195,7.6425,8.0563,8.4246,8.6372,8.7511,8.7511,8.9067,9.0016,9.0016,9.0776,9.1231,9.1307,9.1383,9.1345,9.1231,9.1231,9.07,8.9637,8.8194,8.6068,8.341,8.4474,8.36,8.1398,8.3866,8.4967,8.4967,8.4967,8.4967,8.4967,8.4967,8.4967,8.4967,8.4967,8.589,8.7166,8.573,8.7325,8.9539,8.8276,8.7801,8.7325,8.573,8.5736,8.6144,8.5432,8.5812,8.6231,8.5356,8.4519,8.3644,8.2613,8.1816,8.1019,8.0221,8.0032,8.0032,8.0032,8.0032,8.007,8.0107,8.0753,8.1284,8.1322,8.4132,8.622,8.6296,8.8422,8.9637,8.8953,8.884,8.8156,8.66,8.5612,8.5005,8.4967,8.4967,8.4967,8.4967,8.4967,8.4967,8.4967,8.4967,8.4967,8.4967,8.4967,8.4967,8.4967,8.4967,8.4549,5.2038,5.4887,5.7488,5.6564,5.6458,5.5866,5.3262,5.2757,5.1758,4.7668,4.9457,5.1172,4.9,5.1615,5.4565,5.6055,6.0852,6.5613,6.8918,7.1137,7.371,7.6866,7.95,8.2082,8.4701,8.4625,8.5271,8.7359,8.7131,8.7777,8.9903,9.0282,9.07,9.1193,9.0738,9.07,9.1231,9.07,9.032,8.9979,8.8308,8.6182,8.3752,8.4587,8.36,8.1398,8.3866,8.4094,0.0,8.4322,8.4056,8.2803,8.436,8.4967,8.4967,8.4967,8.541,8.589,8.6369,8.6688,8.7007,8.7325,8.7483,8.7166,8.541,8.5195,8.5432,8.5709,8.5232,8.4716,8.4244,8.3584,8.2727,8.1892,8.1095,8.0525,8.0753,8.0373,8.0032,8.0032,8.0032,8.0032,8.0032,8.0297,8.0677,8.1171,8.3221,8.4891,8.5385,8.7207,8.8346,8.8042,8.7549,8.6751,8.5575,8.5157,8.4967,8.4967,8.4967,8.4967,8.4967,8.4967,8.4967,8.4967,8.4967,8.4967,8.4967,8.4967,8.4701,8.4208,8.4208,8.3752,5.4773,5.75,5.9804,5.9259,5.9153,5.8365,5.4996,5.4335,5.304,4.8453,4.9006,4.9908,4.8717,5.0961,5.4105,5.7455,6.1555,6.6114,7.1463,7.3162,7.531,7.9363,8.0373,8.1892,8.4322,8.4018,8.4739,8.7321,8.6676,8.7283,8.9865,9.0016,9.0244,9.0814,9.0282,9.0282,9.0852,9.0282,8.9865,8.9599,8.8194,8.603,8.3373,8.4474,8.36,8.1398,8.3866,8.3524,8.1436,8.3942,8.3486,8.1512,8.398,8.4967,8.4967,8.4967,8.4967,8.5128,8.621,8.589,8.5128,8.621,8.6688,8.6529,8.5288,8.4967,8.5174,8.5674,8.5045,8.4107,8.3782,8.3586,8.2993,8.1892,8.1208,8.0829,8.0867,8.0449,8.0032,8.0032,8.0032,8.0032,8.0032,8.0259,8.0715,8.1512,8.3069,8.4436,8.5271,8.6638,8.7435,8.7169,8.6638,8.5916,8.5043,8.4967,8.4967,8.4967,8.4967,8.4967,8.4967,8.4967,8.4967,8.4967,8.4967,8.4967,8.4967,8.4967,8.4549,8.3752,8.3752,8.3145,5.9336,6.2415,6.4959,6.4997,6.3198,6.0819,5.8345,5.5859,5.3382,5.0874,5.0358,5.0358,5.0358,5.1886,5.4292,5.7912,6.175,6.594,7.0659,7.1417,7.3419,7.8749,7.8295,7.9196,8.3259,8.5233,8.66,8.7397,8.827,8.9105,8.9979,9.0016,9.0016,9.0016,9.0016,9.0016,9.0016,8.9979,8.9561,8.8764,8.7928,8.5764,8.2575,8.4208,8.36,8.1436,8.3904,8.3524,8.1398,8.3904,8.3486,8.1474,8.398,8.4967,8.4967,8.4967,8.4967,8.4967,8.4967,8.4967,8.4967,8.4967,8.4967,8.4967,8.4929,8.4929,8.4929,8.4929,8.4929,8.4739,8.3942,8.4322,8.4511,8.2879,8.2461,8.2006,8.0411,8.0032,8.0032,8.0032,8.0032,8.0032,8.0032,8.0715,8.155,8.2347,8.3866,8.5271,8.6182,8.6979,8.7169,8.6372,8.6296,8.5916,8.5043,8.4967,8.4967,8.4967,8.4967,8.4967,8.4967,8.4967,8.4967,8.4967,8.4967,8.4967,8.4967,8.4967,8.4549,8.3752,8.3714,8.2803,5.773,6.1089,6.5111,6.5718,6.5509,6.4135,5.959,5.7699,5.5443,5.0457,4.9917,5.0292,5.0292,5.1833,5.4084,5.7436,6.0534,6.4957,7.204,7.3082,7.526,8.0789,8.0639,7.9956,7.9424,8.0905,8.2461,8.3866,8.4739,8.6638,8.9827,9.0016,9.0282,9.0852,8.9751,8.9713,9.0852,8.9143,8.8422,8.8764,8.7359,8.6144,8.5157,8.5005,8.4549,8.3904,8.4625,8.2537,7.8969,8.3221,8.2461,7.9082,8.3297,8.4967,8.4967,8.4967,8.4967,8.4967,8.4967,8.4967,8.4967,8.4967,8.4967,8.4739,8.3562,8.3638,8.398,8.3373,8.3638,8.4056,8.379,8.3486,8.3069,8.2575,8.1588,8.0791,8.0867,8.0449,8.0032,8.0032,8.0032,8.0032,8.0032,8.0715,8.155,8.2347,8.341,8.4398,8.5233,8.5575,8.5612,8.5385,8.5347,8.5233,8.4967,8.4967,8.4967,8.4967,8.4967,8.4967,8.4967,8.4967,8.4967,8.4967,8.4967,8.4967,8.4967,8.4967,8.4549,8.3714,8.2537,8.1398,5.982,6.2502,6.5681,6.6516,6.6952,6.6038,6.205,5.9736,5.7278,5.3154,5.1538,5.1325,5.284,5.4233,5.6234,5.9664,6.1483,6.4596,7.1141,7.272,7.4825,7.946,7.9842,7.969,7.9538,7.9842,8.0981,8.3297,8.4587,8.6334,8.8878,8.9333,8.9599,8.9751,8.9143,8.9105,8.9751,8.827,8.7625,8.7777,8.6789,8.6106,8.5764,8.5195,8.4967,8.4967,8.4967,8.2689,7.9348,8.3335,8.2613,7.9424,8.341,8.4967,8.4967,8.4967,8.4967,8.4967,8.4967,8.4967,8.4891,8.4587,8.4246,8.379,8.2765,8.2841,8.3107,8.2613,8.2841,8.3221,8.3221,8.2841,8.2461,8.2461,8.1702,8.1057,8.1208,8.0601,8.0032,8.0032,8.0032,8.0145,8.0449,8.1208,8.2006,8.2841,8.3676,8.4398,8.4891,8.4967,8.4967,8.4967,8.4967,8.4967,8.4967,8.4967,8.4967,8.4967,8.4967,8.4967,8.4967,8.4967,8.4967,8.4967,8.4967,8.4967,8.4967,8.4625,8.3866,8.2727,8.1398,8.0145,6.3744,6.5339,6.644,6.7351,6.7579,6.6903,6.4633,6.145,5.8522,5.7112,5.4093,5.2822,5.6501,5.7495,5.9233,6.3662,6.3908,6.5068,6.9377,7.1177,7.3165,7.5884,7.6994,7.8741,8.174,8.0829,8.1284,8.4284,8.603,8.7093,8.7397,8.8194,8.8308,8.7549,8.8194,8.8232,8.7549,8.7359,8.6941,8.6296,8.622,8.5764,8.4967,8.4967,8.4967,8.4967,8.4967,8.3524,8.1436,8.3942,8.3486,8.1512,8.398,8.4929,8.4853,8.4853,8.4815,8.4739,8.4739,8.4739,8.4587,8.3866,8.2993,8.2196,8.2082,8.2082,8.2158,8.2234,8.2347,8.2499,8.2575,8.2575,8.2575,8.2499,8.2347,8.2044,8.1398,8.0677,8.0107,8.0032,8.0107,8.0373,8.1133,8.193,8.2765,8.36,8.4436,8.4967,8.4967,8.4967,8.4967,8.4967,8.4967,8.4967,8.4967,8.4967,8.4967,8.4967,8.4967,8.4967,8.4967,8.4967,8.4929,8.4853,8.4853,8.4815,8.4739,8.398,8.2803,8.1246,8.0411,7.9158,6.1428,6.3592,6.6592,6.8148,6.849,6.7274,6.2153,5.9806,5.7663,5.377,5.2284,5.2646,5.5691,5.5623,5.7579,6.5031,6.6365,6.7986,7.2161,7.4223,7.5494,7.6083,7.6994,7.783,7.8551,7.9462,8.0335,8.1057,8.2044,8.3752,8.641,8.7321,8.7701,8.7511,8.7093,8.7055,8.7511,8.6182,8.5764,8.6296,8.5575,8.5157,8.4967,8.4967,8.4967,8.4967,8.4967,8.3524,8.1436,8.3942,8.3486,8.1512,8.398,8.4549,8.4018,8.4018,8.3562,8.2993,8.2993,8.2993,8.2993,8.2803,8.174,8.0335,7.9006,7.9044,7.969,8.0373,8.1474,8.2613,8.3297,8.3448,8.3297,8.2613,8.1474,8.0677,8.1171,8.1133,8.0791,8.0145,8.0563,8.1057,8.1208,8.193,8.2765,8.36,8.4436,8.4967,8.4967,8.4967,8.4967,8.4967,8.4967,8.4967,8.4967,8.4967,8.4967,8.4967,8.4967,8.4967,8.4967,8.4967,8.4663,8.4018,8.4018,8.3676,8.2993,8.2841,8.2234,8.1246,8.0411,7.9158,6.143,6.4149,6.7883,6.8581,6.9097,6.8406,6.4835,6.2508,6.02,5.6753,5.5373,5.5443,5.756,5.7558,5.9464,6.5967,6.728,6.7807,6.8794,7.3122,7.5476,7.3463,7.5779,7.8171,7.9766,7.9994,8.0677,8.2272,8.2803,8.379,8.5575,8.6068,8.6296,8.6296,8.6296,8.6296,8.6296,8.5385,8.5005,8.5081,8.4587,8.436,8.436,8.436,8.4587,8.4967,8.4967,8.4208,8.3107,8.4436,8.398,8.2575,8.3866,8.3866,8.3107,8.3107,8.2841,8.2461,8.2461,8.2461,8.2196,8.0639,7.9538,7.8665,7.783,7.7867,7.8285,7.8741,7.9728,8.0905,8.174,8.1968,8.2044,8.2385,8.1816,8.1208,8.1246,8.0943,8.0525,8.0107,8.0677,8.136,8.1778,8.2537,8.3373,8.4208,8.4663,8.4967,8.4967,8.4967,8.4967,8.4967,8.4967,8.4967,8.4967,8.4967,8.4967,8.4967,8.4967,8.4777,8.4398,8.436,8.398,8.3145,8.3107,8.2917,8.2461,8.2082,8.1474,8.0639,7.9804,7.8513,6.2499,6.5349,6.9056,6.8825,6.9325,6.9358,6.7777,6.547,6.3004,6.1098,5.9744,5.9216,6.0277,6.054,6.223,6.6884,6.7513,6.6971,6.5681,7.1565,7.4716,7.1299,7.483,7.8855,8.2158,8.1512,8.2006,8.4739,8.4436,8.4094,8.4094,8.4094,8.436,8.509,8.585,8.5726,8.5128,8.5135,8.4876,8.4226,8.4074,8.384,8.384,8.384,8.3796,8.3904,8.4474,8.4511,8.4132,8.4701,8.4474,8.3752,8.3752,8.3145,8.2272,8.2272,8.2082,8.1816,8.1816,8.174,8.1133,7.8247,7.7298,7.7298,7.7146,7.7108,7.7146,7.7298,7.7905,7.8779,7.9766,8.0032,8.0411,8.1892,8.2272,8.2044,8.1208,8.0639,8.0259,8.0259,8.1019,8.1892,8.2575,8.3259,8.4018,8.4815,8.4967,8.4967,8.4967,8.4967,8.4967,8.4967,8.4967,8.4967,8.4967,8.4967,8.4891,8.4739,8.4739,8.436,8.3562,8.3524,8.3107,8.2272,8.2272,8.2196,8.2044,8.136,8.0715,8.0032,7.931,7.8133,6.3554,6.6033,6.791,6.8566,6.887,6.811,6.5052,6.3484,6.2273,6.0708,6.1127,6.1912,6.1944,6.1394,6.2741,6.8405,6.829,6.8604,7.1945,7.3995,7.4944,7.4375,7.6235,7.8855,8.2158,8.36,8.4474,8.4929,8.2309,8.0677,8.0677,8.0677,8.2315,8.5973,8.5563,8.5402,8.6088,8.6187,8.6114,8.5997,8.5217,8.4402,8.3742,8.3742,8.2281,7.9766,8.2651,8.2689,8.0905,8.3752,8.4474,8.3752,8.3752,8.2803,8.1436,8.1436,8.0487,7.9272,7.9272,7.8779,7.7981,7.6766,7.6387,7.6235,7.5552,7.5324,7.5476,7.6197,7.7032,7.8057,7.9614,8.0032,8.0259,8.1208,8.1436,8.1171,8.0373,8.0677,8.1095,8.1095,8.2347,8.3448,8.3562,8.3676,8.4018,8.4815,8.4967,8.4967,8.4967,8.4967,8.4967,8.4967,8.4967,8.4967,8.4967,8.4967,8.4663,8.3942,8.3904,8.3524,8.2689,8.2651,8.2272,8.1436,8.1436,8.1057,8.0373,8.0259,8.0145,8.0032,7.9918,7.9348,6.0287,6.44,6.886,6.8191,6.9059,6.9009,6.5929,6.5225,6.4587,6.2046,6.1795,6.1653,6.0626,5.9444,6.0841,6.8225,6.718,6.7503,7.3577,7.3539,7.3426,7.483,7.6501,7.8855,8.2158,8.398,8.417,8.2347,8.2575,8.2803,8.2803,8.373,8.5122,8.7064,8.7566,8.7928,8.7746,8.6778,8.6036,8.5528,8.4668,8.397,8.3625,8.3625,8.3087,8.228,8.3734,8.3883,8.2917,8.436,8.4208,8.3031,8.3031,8.174,7.988,7.988,7.912,7.8095,7.8095,7.7867,7.7412,7.6501,7.6197,7.6045,7.521,7.4982,7.5058,7.54,7.5817,7.6501,7.8209,7.8627,7.8855,7.9652,8.0563,8.1019,8.0221,8.1019,8.193,8.193,8.2917,8.3752,8.3752,8.4132,8.4549,8.4891,8.4967,8.4967,8.4967,8.4549,8.4436,8.4929,8.4132,8.3752,8.4246,8.3828,8.341,8.3031,8.3031,8.2651,8.1816,8.1778,8.1398,8.0601,8.0563,8.0373,8.0032,8.0032,8.0032,8.0032,8.0032,7.9576,5.7969,6.2807,6.8239,6.7411,6.879,6.9737,6.7198,6.7009,6.682,6.458,6.4204,6.3747,6.2029,6.0819,6.238,6.8998,6.7652,6.8072,7.4982,7.4375,7.3615,7.483,7.6311,7.7943,7.9766,8.2006,8.2347,7.988,8.2196,8.3714,8.3714,8.4958,8.6165,8.7334,8.8277,8.8802,8.8821,8.7407,8.6232,8.5557,8.4455,8.368,8.3377,8.3764,8.3584,8.3164,8.4396,8.4542,8.3752,8.4398,8.3676,8.2158,8.193,8.0449,7.8475,7.8475,7.8057,7.7526,7.7298,7.7222,7.7108,7.6425,7.6045,7.5779,7.5172,7.4982,7.4982,7.4982,7.4982,7.5324,7.6842,7.7374,7.7754,7.8551,7.9728,8.0525,8.0107,8.0981,8.1968,8.2385,8.3145,8.379,8.4018,8.4549,8.4967,8.4967,8.4967,8.4815,8.4398,8.379,8.3638,8.4246,8.3221,8.2727,8.3373,8.2841,8.2385,8.2158,8.2158,8.1778,8.0981,8.0943,8.0639,8.0032,8.0032,8.0032,8.0032,8.0032,8.0032,8.0032,8.0032,7.969,5.9508,6.2341,6.4059,6.5862,6.7904,6.9115,6.7643,6.7427,6.7655,6.8338,7.0153,7.1019,6.9047,6.9446,7.0617,7.246,7.1761,7.2704,7.7867,7.8475,7.7526,7.5248,7.5741,7.54,7.3236,7.6691,7.9006,7.8855,7.9728,8.0297,8.0297,8.0487,8.2241,8.621,8.5563,8.6364,8.8751,8.7879,8.7448,8.7283,8.5516,8.393,8.2478,8.4093,8.2289,7.8243,8.2934,8.3201,8.0487,8.2841,8.2803,8.1246,8.0449,7.912,7.7602,7.7602,7.7602,7.7412,7.6577,7.6273,7.6273,7.6197,7.5665,7.5058,7.4982,7.4982,7.4982,7.4982,7.4982,7.5172,7.6045,7.6918,7.7754,7.8551,7.8817,7.9082,7.988,8.0107,8.0639,8.2158,8.3145,8.398,8.4739,8.4929,8.4967,8.4967,8.4967,8.4398,8.2803,8.2575,8.2537,8.2575,8.2537,8.2499,8.2537,8.2499,8.2158,8.136,8.1322,8.0943,8.0145,8.0107,8.007,8.0032,8.0032,8.0032,8.0032,8.0032,8.0032,8.0032,8.0032,8.0032,5.5007,5.9577,6.4235,6.3314,6.6431,6.9543,6.8298,6.768,6.7796,6.8995,6.8328,6.7652,6.7986,6.7028,6.7729,7.1876,7.0502,7.1337,7.8551,7.5855,7.4413,7.783,7.5172,7.4375,7.7792,7.7526,7.6691,7.559,7.9804,8.2651,8.3183,8.4723,8.6351,8.7867,8.8733,8.9262,8.9729,8.8818,8.784,8.6774,8.5396,8.4539,8.4081,8.47,8.4048,8.2396,8.4203,8.4312,8.3183,8.2993,8.1968,8.0373,7.9538,7.7867,7.5969,7.6501,7.6691,7.6653,7.6311,7.6577,7.6994,7.6387,7.6007,7.5665,7.5134,7.4982,7.4982,7.4982,7.4982,7.5058,7.5324,7.6463,7.7488,7.7184,7.7981,7.8855,7.9158,7.9234,7.9728,8.136,8.193,8.2575,8.3942,8.417,8.417,8.417,8.3714,8.3145,8.2537,8.2006,8.1892,8.2423,8.155,8.1248,8.2396,8.1515,8.1096,8.1208,8.0753,8.0335,8.0032,8.0032,8.0032,8.0032,8.0032,8.0032,8.0032,8.0032,8.0032,8.0032,8.0032,8.0334,5.4076,5.7256,6.1101,6.1231,6.4566,6.7763,6.7559,6.7865,6.8305,6.8995,6.8124,6.7592,6.8619,6.7845,6.8452,7.2666,7.1945,7.2894,7.8779,7.6007,7.4602,7.7943,7.4906,7.3501,7.5969,7.6197,7.6235,7.6235,8.0639,8.3524,8.4094,8.5945,8.7071,8.7071,8.8802,8.9604,8.9262,8.864,8.7789,8.674,8.5841,8.5293,8.502,8.5293,8.4945,8.4159,8.4742,8.4695,8.4018,8.2613,8.1246,7.9918,7.8779,7.7146,7.5438,7.5703,7.5969,7.6197,7.6197,7.6577,7.6994,7.6387,7.6007,7.5703,7.5134,7.4982,7.4982,7.4982,7.4982,7.4982,7.4982,7.6045,7.6956,7.6349,7.707,7.7981,7.8285,7.8361,7.8855,8.0525,8.1057,8.1702,8.3069,8.3297,8.3297,8.3297,8.2841,8.2272,8.1702,8.1171,8.1057,8.1588,8.0677,8.0562,8.1515,8.0639,8.0334,8.0748,8.0334,8.0032,8.0032,8.0032,8.0032,8.0032,8.0032,8.0032,8.0032,8.0032,8.0032,8.0032,8.0334,8.0748,5.685,5.5811,5.4708,6.003,6.2302,6.3786,6.5785,6.7914,6.9271,6.8916,7.0448,7.1691,7.134,7.2476,7.3805,7.483,7.6311,7.7678,7.8627,7.9462,7.8779,7.5514,7.5058,7.2742,6.7047,7.2438,7.764,8.0867,8.193,8.2461,8.2461,8.3297,8.3752,8.3752,8.5347,8.6546,8.7319,8.7281,8.7341,8.7325,8.6505,8.5685,8.4904,8.5724,8.4865,8.2537,8.4082,8.4006,8.2423,8.1588,8.0715,7.9842,7.8171,7.6956,7.6045,7.5286,7.5476,7.6159,7.6159,7.6159,7.6159,7.6159,7.5628,7.4982,7.4982,7.4982,7.4982,7.4982,7.502,7.502,7.502,7.5665,7.6273,7.6273,7.6273,7.6501,7.7374,7.7526,7.7943,7.9614,8.0563,8.1398,8.2234,8.2423,8.2423,8.2423,8.2423,8.1816,8.0221,8.0032,8.0032,8.0032,8.0032,8.0032,8.0183,8.0032,8.0032,8.0183,8.0032,8.0032,8.0032,8.0032,8.0032,8.0032,8.0032,7.9994,7.9994,7.9956,7.9956,8.0107,8.0822,8.1123,5.5092,5.7158,5.8995,5.9717,6.2659,6.5459,6.5774,6.6787,6.7728,6.8251,6.9137,6.9794,7.0198,6.9249,6.9781,7.4261,7.335,7.3653,7.8133,7.8969,7.9006,7.8665,7.6463,7.4337,7.2742,7.6463,7.8589,7.7678,8.007,8.1854,8.2423,8.3297,8.3752,8.3752,8.4208,8.4595,8.4754,8.4145,8.3883,8.3811,8.3581,8.3313,8.3122,8.3352,8.3157,8.2499,8.2883,8.3188,8.3221,8.1208,7.988,7.8931,7.726,7.5665,7.4451,7.483,7.5134,7.5324,7.5324,7.5324,7.5324,7.5324,7.5172,7.4982,7.4982,7.4982,7.4982,7.4982,7.54,7.5855,7.5855,7.6956,7.8057,7.8057,7.7602,7.726,7.7488,7.6577,7.6007,7.707,7.7981,7.9006,8.0449,8.1208,8.1588,8.1588,8.1095,8.0525,8.0107,8.0032,8.0032,8.0032,8.0032,8.0334,8.0899,8.0485,8.0334,8.0899,8.0334,8.0032,8.0032,8.0032,8.0032,8.0032,7.9424,7.912,7.912,7.8513,7.8505,7.8909,7.9203,7.9937,5.218,5.2832,5.4365,5.4671,5.8011,6.1133,6.0864,6.3783,6.6335,6.5452,6.7056,6.8599,6.8924,6.8338,6.8946,7.2362,7.2438,7.3274,7.6691,7.8095,7.8969,7.9462,7.7754,7.6691,7.707,7.8893,7.9424,7.7905,7.9652,8.0943,8.1436,8.2234,8.2689,8.2689,8.3373,8.3752,8.3752,8.3573,8.3463,8.3463,8.2737,8.2394,8.2394,8.1742,8.1436,8.1436,8.1436,8.155,8.155,8.0107,7.9234,7.8589,7.688,7.5628,7.4754,7.4944,7.4982,7.4982,7.4982,7.4982,7.4982,7.4982,7.4982,7.5058,7.54,7.5476,7.559,7.5969,7.6387,7.6766,7.6766,7.7526,7.8247,7.8247,7.7602,7.6994,7.6994,7.5931,7.521,7.6045,7.6615,7.7526,7.9234,7.9918,8.0221,8.0221,8.0107,8.0032,8.0032,8.0032,8.0032,8.0032,8.0032,8.0334,8.0748,8.0334,8.0334,8.0748,8.0334,7.988,7.9538,7.95,7.9348,7.9006,7.8513,7.8247,7.8247,7.8047,7.8219,7.8472,7.9199,7.9323,4.8835,4.6324,4.5928,4.8281,5.1364,5.375,0.0,5.9374,6.3977,6.1202,6.4016,6.682,6.6396,6.7503,6.8794,6.9363,7.1945,7.4109,7.4868,7.6918,7.8361,7.8361,7.8513,7.8969,7.9804,7.988,7.9918,8.0032,8.0032,8.0032,8.0032,8.0715,8.0943,8.0563,8.2347,8.3145,8.2765,8.3772,8.4473,8.4434,8.2896,8.2088,8.1972,8.0601,7.9994,7.988,7.9994,7.9614,7.8893,7.8817,7.8779,7.8589,7.688,7.6273,7.6273,7.5552,7.5286,7.5286,7.5286,7.5286,7.5286,7.5286,7.5286,7.54,7.6121,7.6083,7.5969,7.6766,7.6804,7.6653,7.7032,7.7184,7.7374,7.7754,7.7146,7.6501,7.6501,7.5779,7.5324,7.6045,7.6197,7.6691,7.8209,7.8665,7.8817,7.8893,7.9538,8.0032,8.0032,8.0032,8.0032,8.0032,8.0032,8.0032,8.0032,8.0032,7.9994,7.9918,7.988,7.95,7.8665,7.8627,7.8247,7.7558,7.7444,7.7368,7.7399,7.7865,7.8223,7.8223,7.9663,7.8914,0.0,0.0,0.0,0.0,0.0,0.0,0.0,5.4587,5.6482,5.7046,5.7918,5.8701,5.9336,5.9673,6.1239,6.5301,6.6478,6.8794,7.4223,7.54,7.5703,7.5703,7.6956,7.8095,7.8931,7.9006,7.931,7.9994,8.0032,8.0032,8.0032,8.0183,7.9006,7.6273,7.9158,7.9424,7.6729,7.9536,8.1058,8.1058,8.0715,8.0219,7.9422,7.9954,7.9652,7.9044,7.9728,7.9956,7.9728,7.9044,7.8779,7.8589,7.688,7.6653,7.726,7.7108,7.707,7.707,7.707,7.707,7.707,7.707,7.707,7.707,7.7222,7.54,7.3236,7.3426,7.2059,7.111,7.3767,7.4982,7.6159,7.8893,7.8893,7.8285,7.8285,7.7032,7.6007,7.6159,7.6197,7.6311,7.6653,7.7867,7.9006,7.969,7.9918,8.0032,8.0032,8.0032,8.0032,8.0032,8.0032,8.0032,8.0032,8.0032,7.9766,7.9044,7.9006,7.8627,7.783,7.7792,7.7666,7.7366,7.6675,7.6267,7.6171,7.561,7.5712,7.6359,7.6632,7.6062,0.0,0.0,0.0,0.0,0.0,0.0,0.0,0.0,0.0,0.0,0.0,5.5202,5.6598,0.0,6.0357,6.3314,6.5814,6.868,7.2021,7.3919,7.4678,7.3843,7.5248,7.6577,7.7412,7.7905,7.8513,7.9348,7.9386,7.9576,8.0032,7.8437,7.6729,7.5058,7.6615,7.6691,7.4982,7.8767,8.0636,8.0636,8.0177,7.9756,7.9335,7.8927,7.8551,7.8171,7.8627,7.9006,7.9386,7.8931,7.8779,7.8665,7.7374,7.7146,7.7336,7.5665,7.6083,7.7298,7.5628,7.6121,7.7564,7.7564,7.7564,7.764,7.8057,7.6994,7.5703,7.6159,7.5362,7.4792,7.6425,7.7184,7.7943,7.9614,7.9386,7.8779,7.8779,7.7754,7.688,7.688,7.688,7.6994,7.7412,7.8893,8.0032,8.0032,8.0373,8.0487,8.0107,8.0032,8.0032,8.0032,7.8513,7.8209,7.988,7.8095,7.7412,7.8703,7.8399,7.7748,7.6887,7.6417,7.6237,7.5954,7.4825,7.4306,7.456,7.4103,7.407,7.4428,7.3948,7.3329,0.0,0.0,0.0,0.0,0.0,0.0,0.0,0.0,0.0,0.0,0.0,0.0,0.0,0.0,0.0,6.1069,6.5304,6.868,6.9629,7.2097,7.335,7.2173,7.335,7.464,7.5628,7.6539,7.7412,7.8209,7.8589,7.9006,7.9538,7.7108,7.54,7.4754,7.5362,7.5476,7.4982,7.9062,8.1049,8.1049,8.0357,0.0,7.9593,7.8543,7.7602,7.6842,7.7678,7.8019,7.8095,7.8741,7.8931,7.8741,7.8209,7.7943,7.745,7.4716,7.5324,7.7146,7.4413,7.5248,7.7564,7.7564,7.7564,7.7678,7.8323,7.8171,0.0,7.8627,7.8475,7.8247,7.8893,7.9044,7.9234,7.988,7.95,7.9006,7.9006,7.783,7.707,7.7867,7.7374,7.726,7.8779,7.9462,7.9348,7.8057,7.8285,7.8399,7.7905,7.8399,7.8741,7.8589,7.688,7.6766,7.9348,7.5969,7.5096,7.8323,7.7146,7.5761,7.4448,7.3817,7.3122,7.2008,7.0877,7.0813,7.1775,7.1712,7.2097,7.2653,6.9603,6.8606,0.0,0.0,0.0,0.0,0.0,0.0,0.0,0.0,0.0,0.0,0.0,0.0,0.0,0.0,0.0,0.0,5.9938,6.382,6.83,6.9249,6.9705,7.0236,7.111,7.2287,7.3843,7.4754,7.5628,7.6425,7.7905,7.8513,7.7867,7.8171,0.0,0.0,0.0,7.726,7.502,7.8471,8.0183,8.0183,8.0069,7.965,7.8927,7.9462,7.7716,7.4375,7.8133,7.8095,7.5628,7.8665,7.9462,7.8855,7.95,7.931,7.8589,7.8209,7.783,7.7488,7.7108,0.0,0.0,7.7564,7.7564,7.7564,7.7678,7.6083,7.4299,7.4413,7.2856,7.1831,7.4792,7.5552,7.6311,7.931,7.9956,7.988,7.988,7.688,7.5248,7.9044,7.6729,7.5362,7.9234,7.6918,7.3539,7.0502,6.9477,6.9249,6.9971,7.2628,7.4147,7.3426,7.6349,0.0,7.7867,7.5324,7.4868,7.7526,7.4109,7.1016,6.8543,6.83,6.6511,6.2624,6.2814,6.4094,6.6413,6.6804,6.8606,7.1498,6.1167,5.8217,0.0,0.0,0.0,0.0,0.0,0.0,0.0,0.0,0.0,0.0,0.0,0.0,0.0,0.0,0.0,0.0,5.7458,6.197,6.412,6.4366,6.5453,6.8186,6.9743,7.0616,7.0844,7.2059,7.3388,7.4678,7.5893,7.6842,7.7526,7.6007,7.4489,7.3046,7.4375,7.4602,7.3539,7.688,7.8817,7.931,7.931,7.9386,7.95,7.988,7.9082,7.7488,7.9272,7.9234,7.8019,7.9462,7.9538,7.8817,0.0,0.0,0.0,0.0,7.8247,7.726,7.5286,7.6197,7.8171,7.7716,7.7867,7.8171,7.7678,7.6804,7.5931,7.5931,7.521,7.4716,7.6121,7.6463,7.6842,7.8247,7.8589,7.8737,7.9144,7.7819,7.733,7.9526,7.8543,0.0,8.0981,7.9994,7.8019,7.5703,7.4982,7.4564,7.3957,7.5096,7.5817,7.5476,7.5665,7.6311,7.745,7.4754,0.0,0.0,0.0,7.2021,7.0426,7.0329,0.0,0.0,0.0,6.3273,6.4096,6.1435,0.0,0.0,5.6337,5.3504,0.0,0.0,0.0,0.0,0.0,0.0,0.0,0.0,0.0,0.0,0.0,0.0,0.0,0.0,0.0,0.0,5.3829,5.7497,5.7708,5.9397,6.1811,6.4938,6.7706,6.9097,6.849,7.016,7.1755,7.297,7.4033,7.5172,7.6425,7.4185,7.2932,7.316,7.297,7.3046,7.3501,7.5969,7.7602,7.8437,7.8437,7.8741,7.9348,7.9348,7.8855,7.8019,7.8931,7.8817,7.8019,7.8969,7.912,7.8741,7.8513,7.8665,7.8893,7.8285,7.7678,7.6804,7.4109,7.5172,7.764,7.7032,7.726,7.7602,7.7032,7.6994,7.7184,7.7184,7.7184,7.7222,7.7488,7.7374,7.726,7.7488,7.7564,7.7748,7.8379,7.7895,7.7938,7.9905,7.9836,7.9348,7.9386,7.9386,7.8665,7.6539,7.6045,7.5552,7.4564,7.5438,7.6083,7.5855,7.521,7.5438,7.7032,7.4109,7.297,7.4868,7.335,7.24,7.2514,7.1111,7.0115,6.9855,6.4677,6.2231,0.0,0.0,0.0,0.0,0.0,0.0,0.0,0.0,0.0,0.0,0.0,0.0,0.0,0.0,0.0,0.0,0.0,0.0,0.0,0.0,0.0,0.0,0.0,0.0,4.8633,5.4896,5.9551,5.9999,6.4531,6.7503,6.7503,6.9781,7.1299,7.1375,7.2856,7.3767,7.3843,7.3729,7.4071,7.4868,7.4109,7.4451,7.6083,7.6197,7.6691,7.7602,7.7602,7.7602,7.764,7.764,7.5817,7.2932,7.6197,7.5779,7.3008,7.6273,7.8095,7.8703,7.7905,7.707,7.6311,7.6311,7.6273,7.6121,7.521,7.4982,7.5096,7.5058,7.5096,7.5096,7.5058,7.5628,7.6235,7.6235,7.6235,7.6463,7.7336,7.688,7.6463,7.7336,7.7564,7.7754,7.8551,7.6159,7.5324,8.0221,7.9234,7.6349,7.2325,7.1641,7.0502,6.7161,6.5946,0.0,6.6478,7.0123,7.2362,7.1565,7.5058,7.7108,7.6311,7.3198,7.2362,7.483,7.1186,7.0009,7.24,6.7769,6.5149,6.5073,6.063,5.92,6.1041,0.0,0.0,0.0,0.0,0.0,0.0,0.0,0.0,0.0,0.0,0.0,0.0,0.0,0.0,0.0,0.0,0.0,0.0,0.0,0.0,0.0,0.0,0.0,0.0,5.2045,5.6345,5.8902,6.2117,6.3823,6.296,6.4948,6.6547,6.7124,7.0291,7.2362,7.2894,7.2894,7.278,7.2552,7.2249,7.2362,7.2932,7.2932,7.3653,7.502,7.502,7.5286,7.5855,7.6425,7.6045,7.5058,7.6804,7.6577,7.5096,7.6842,7.6729,7.54,7.5134,7.5172,7.5466,7.5357,7.4987,7.4451,7.4171,7.3765,7.3488,7.3903,7.4664,7.5466,7.4924,7.4924,7.5157,7.5157,7.5157,7.5234,7.5543,7.5535,7.5383,7.5651,7.6188,7.6686,7.6954,7.6532,7.6609,7.8334,7.4884,7.1299,6.9895,7.1907,7.24,6.8528,7.0047,7.1717,7.1983,7.3274,7.4033,7.3767,7.5476,7.6311,7.5476,7.4868,7.4185,7.3388,7.2021,7.1148,7.0844,6.8718,6.7503,6.7503,6.4767,6.0664,5.5324,0.0,0.0,0.0,0.0,0.0,0.0,0.0,0.0,0.0,0.0,0.0,0.0,0.0,0.0,0.0,0.0,0.0,0.0,0.0,0.0,0.0,0.0,0.0,0.0,0.0,0.0,5.7511,6.0773,0.0,6.0416,6.1622,6.2494,6.2341,6.479,6.7345,6.9734,6.9489,6.993,7.1358,7.0692,7.054,7.0844,7.054,7.1072,7.24,7.24,7.2666,7.3236,7.3767,7.3995,7.4033,7.4944,7.4982,7.4527,7.54,7.4363,7.214,7.1299,7.1264,7.1607,7.0186,7.0116,7.1073,7.0537,7.1016,7.1679,7.2488,7.2548,7.2023,7.0102,6.9482,6.9482,6.9482,7.0503,7.1643,7.1916,7.3182,7.4306,7.4615,7.4979,7.5342,7.5612,7.4779,7.408,7.5,7.1054,6.7427,6.7427,6.9667,7.0123,6.625,6.9211,7.1869,7.1869,7.3691,7.4982,7.4982,7.5438,7.5552,7.502,7.4906,7.4185,7.259,7.2211,7.1451,7.0085,6.9211,6.8224,6.7009,6.4378,5.952,0.0,0.0,0.0,0.0,0.0,0.0,0.0,0.0,0.0,0.0,0.0,0.0,0.0,0.0,0.0,0.0,0.0,0.0,0.0,0.0,0.0,0.0,0.0,0.0,0.0,0.0,0.0,5.5385,5.9578,0.0,0.0,0.0,0.0,5.7051,5.7131,5.9295,6.4212,6.3747,6.5592,7.0369,6.919,6.8718,6.9515,6.8946,6.9059,6.9895,6.9895,6.9895,6.9895,6.9933,6.9971,7.0009,7.0882,7.1261,7.1261,7.1679,7.0901,6.8996,6.6969,6.5861,6.5075,6.1394,6.2546,6.5757,6.4831,6.6706,6.9705,7.0597,6.8695,6.5348,6.147,6.0174,0.0,0.0,6.2698,6.5906,6.6871,6.9959,7.3115,7.4247,7.3977,7.3664,7.451,7.092,6.8072,7.0388,6.7465,6.4504,6.42,0.0,6.3441,6.01,6.3365,6.6174,6.625,7.1299,7.4868,7.4868,7.4868,7.4868,7.4868,7.3426,7.2476,7.2438,7.1679,7.0806,6.9933,6.9022,6.6895,6.3365,5.9264,0.0,0.0,0.0,0.0,0.0,0.0,0.0,0.0,0.0,0.0,0.0,0.0,0.0,0.0,0.0,0.0,0.0,0.0,0.0,0.0,0.0,0.0,0.0,0.0,0.0,0.0,4.4819,4.8607,5.0304,5.2642,5.2917,0.0,0.0,0.0,0.0,0.0,0.0,5.8194,5.8076,5.8387,5.915,6.1776,6.2966,6.2605,6.5453,6.7313,6.811,6.811,6.811,6.811,6.8794,6.9097,6.9173,7.0654,7.092,6.9971,6.5641,6.4008,6.4287,6.4253,6.2799,6.0553,6.0027,6.0237,6.0544,5.9482,6.1383,6.4359,6.4801,6.4136,6.3281,6.3015,0.0,0.0,0.0,0.0,6.1047,6.4332,6.6081,6.7923,7.1985,7.3281,7.3548,7.3192,7.0209,6.6961,6.512,6.1846,5.8011,5.3645,5.6493,0.0,5.4139,6.0251,6.5529,6.6136,7.0274,7.3122,7.3122,7.3122,7.3122,7.3122,7.2742,7.2249,7.1641,7.1207,7.0193,6.8186,6.6635,6.304,5.7328,0.0,0.0,0.0,0.0,0.0,0.0,0.0,0.0,0.0,0.0,0.0,0.0,0.0,0.0,0.0,0.0,0.0,0.0,0.0,0.0,0.0,0.0,0.0,0.0,0.0,0.0,0.0,3.987,4.3814,4.6233,4.7447,4.7238,0.0,0.0,0.0,0.0,0.0,0.0,0.0,0.0,0.0,5.4811,5.7136,5.8214,5.7828,6.1548,6.3652,6.4149,6.5614,6.6364,6.6364,6.6895,6.7123,6.7085,6.6592,6.5471,6.3966,6.1854,6.087,6.0505,0.0,0.0,0.0,0.0,5.2885,5.3611,5.1879,5.3534,5.6497,5.6552,0.0,0.0,0.0,0.0,0.0,0.0,0.0,5.7345,6.0116,6.3787,6.7591,7.0503,6.9896,6.9086,7.092,6.469,5.8482,5.7779,5.486,5.1519,4.8216,5.0684,0.0,0.0,0.0,6.1428,6.2302,6.7996,7.1983,7.1983,7.1983,7.1983,7.1983,7.1874,7.1149,6.9667,7.0171,6.8305,6.3251,6.3876,5.9753,0.0,0.0,0.0,0.0,0.0,0.0,0.0,0.0,0.0,0.0,0.0,0.0,0.0,0.0,0.0,0.0,0.0,0.0,0.0,0.0,0.0,0.0,0.0,0.0,0.0,0.0,0.0,0.0,0.0,3.889,4.2582,0.0,0.0,0.0,0.0,0.0,0.0,0.0,0.0,0.0,0.0,0.0,0.0,0.0,5.3441,5.3227,5.6954,5.8895,5.8934,6.1816,6.3223,6.3223,6.3223,6.3223,6.2952,6.0174,0.0,5.6681,5.8565,0.0,0.0,0.0,0.0,0.0,0.0,0.0,0.0,0.0,0.0,0.0,0.0,0.0,0.0,0.0,0.0,0.0,0.0,0.0,0.0,0.0,0.0,6.6518,6.7221,6.4134,6.2201,6.624,5.6537,4.7609,4.9735,4.7951,4.5825,0.0,0.0,0.0,0.0,0.0,0.0,5.7214,6.5301,7.0996,7.111,7.111,7.111,7.111,7.0728,6.9673,6.7693,6.8025,6.4965,5.7703,6.0632,0.0,0.0,0.0,0.0,0.0,0.0,0.0,0.0,0.0,0.0,0.0,0.0,0.0,0.0,0.0,0.0,0.0,0.0,0.0,0.0,0.0,0.0,0.0,0.0,0.0,0.0,0.0,0.0,0.0,0.0,0.0,0.0,0.0,0.0,0.0,0.0,0.0,0.0,0.0,0.0,0.0,0.0,0.0,0.0,0.0,0.0,0.0,0.0,0.0,0.0,5.4007,5.436,5.436,5.436,5.4066,5.3573,5.3441,5.4456,5.5687,5.1191,0.0,0.0,0.0,0.0,0.0,0.0,0.0,0.0,0.0,0.0,0.0,0.0,0.0,0.0,0.0,0.0,0.0,0.0,0.0,0.0,0.0,0.0,5.0246,5.4446,5.54,5.4953,5.3633,0.0,0.0,0.0,0.0,0.0,0.0,0.0,0.0,0.0,0.0,0.0,5.6341,6.3934,6.9477,7.016,7.0236,7.0236,7.0236,6.8924,6.8201,6.8528,6.3544,5.9205,0.0,0.0,0.0,0.0,0.0,0.0,0.0,0.0,0.0,0.0,0.0,0.0,0.0,0.0,0.0,0.0,0.0,0.0,0.0,0.0,0.0,0.0,0.0,0.0,0.0,0.0,0.0,0.0,0.0,0.0,0.0,0.0,0.0,0.0,0.0,0.0,0.0,0.0,0.0,0.0,0.0,0.0,0.0,0.0,0.0,0.0,0.0,0.0,0.0,0.0,0.0,0.0,0.0,0.0,0.0,0.0,0.0,0.0,4.9681,4.6354,0.0,0.0,0.0,0.0,0.0,0.0,0.0,0.0,0.0,0.0,0.0,0.0,0.0,0.0,0.0,0.0,0.0,0.0,0.0,0.0,0.0,0.0,0.0,0.0,0.0,0.0,0.0,0.0,0.0,0.0,0.0,0.0,0.0,0.0,0.0,0.0,0.0,0.0,0.0,0.0,5.4822,6.2998,6.8649,6.8642,6.8939,6.9069,6.868,6.8305,6.6549,6.3218,6.0165,0.0,0.0,0.0,0.0,0.0,0.0,0.0,0.0,0.0,0.0,0.0,0.0,0.0,0.0,0.0,0.0,0.0,0.0,0.0,0.0,0.0,0.0,0.0,0.0,0.0,0.0,0.0,0.0,0.0,0.0,0.0,0.0,0.0,0.0,0.0,0.0,0.0,0.0,0.0,0.0,0.0,0.0,0.0,0.0,0.0,0.0,0.0,0.0,0.0,0.0,0.0,0.0,0.0,0.0,0.0,0.0,0.0,0.0,0.0,4.6394,3.9593,0.0,0.0,0.0,0.0,0.0,0.0,0.0,0.0,0.0,0.0,0.0,0.0,0.0,0.0,0.0,0.0,0.0,0.0,0.0,0.0,0.0,0.0,0.0,0.0,0.0,0.0,0.0,0.0,0.0,0.0,0.0,0.0,0.0,0.0,0.0,0.0,0.0,0.0,0.0,0.0,5.3214,6.1701,6.768,6.7427,6.7974,6.7974,6.7465,6.7477,6.4652,5.7969,5.6546,0.0,0.0,0.0,0.0,0.0,0.0,0.0,0.0,0.0,0.0,0.0,0.0,0.0,0.0,0.0,0.0,0.0,0.0,0.0,0.0,0.0,0.0,0.0,0.0,0.0,0.0,0.0,0.0,0.0,0.0,0.0,0.0,0.0,0.0,0.0,0.0,0.0,0.0,0.0,0.0,0.0,0.0,0.0,0.0,0.0,0.0,0.0,0.0,0.0,0.0,0.0,0.0,0.0,0.0,0.0,0.0,0.0,0.0,0.0,0.0,0.0,0.0,0.0,0.0,0.0,0.0,0.0,0.0,0.0,0.0,0.0,0.0,0.0,0.0,0.0,0.0,0.0,0.0,0.0,0.0,0.0,0.0,0.0,0.0,0.0,0.0,0.0,0.0,0.0,0.0,0.0,0.0,0.0,0.0,0.0,0.0,0.0,0.0,0.0,0.0,0.0,5.133,5.953,6.5794,6.7275,6.7465,6.7465,6.7465,6.55,6.2305,5.7855,0.0,0.0,0.0,0.0,0.0,0.0,0.0,0.0,0.0,0.0,0.0,0.0,0.0,0.0,0.0,0.0,0.0,0.0,0.0,0.0,0.0,0.0,0.0,0.0,0.0,0.0,0.0,0.0,0.0,0.0,0.0,0.0,0.0,0.0,0.0,0.0,0.0,0.0,0.0,0.0,0.0,0.0,0.0,0.0,0.0,0.0,0.0,0.0,0.0,0.0,0.0,0.0,0.0,0.0,0.0,0.0,0.0,0.0,0.0,0.0,0.0,0.0,0.0,0.0,0.0,0.0,0.0,0.0,0.0,0.0,0.0,0.0,0.0,0.0,0.0,0.0,0.0,0.0,0.0,0.0,0.0,0.0,0.0,0.0,0.0,0.0,0.0,0.0,0.0,0.0,0.0,0.0,0.0,0.0,0.0,0.0,0.0,0.0,0.0,0.0,0.0,0.0,4.9677,5.8898,6.5355,6.5272,6.6052,6.6129,6.5263,6.4314,6.0554,5.3013,0.0,0.0,0.0,0.0,0.0,0.0,0.0,0.0,0.0,0.0,0.0,0.0,0.0,0.0,0.0,0.0,0.0,0.0,0.0,0.0,0.0,0.0,0.0,0.0,0.0,0.0,0.0,0.0,0.0,0.0,0.0,0.0,0.0,0.0,0.0,0.0,0.0,0.0,0.0,0.0,0.0,0.0,0.0,0.0,0.0,0.0,0.0,0.0,0.0,0.0,0.0,0.0,0.0,0.0,0.0,0.0,0.0,0.0,0.0,0.0,0.0,0.0,0.0,0.0,0.0,0.0,0.0,0.0,0.0,0.0,0.0,0.0,0.0,0.0,0.0,0.0,0.0,0.0,0.0,0.0,0.0,0.0,0.0,0.0,0.0,0.0,0.0,0.0,0.0,0.0,0.0,0.0,0.0,0.0,0.0,0.0,0.0,0.0,0.0,0.0,0.0,0.0,4.7623,5.7267,6.3705,6.2762,6.3723,6.4111,6.3061,6.2795,5.875,4.9426,0.0,0.0,0.0,0.0,0.0,0.0,0.0,0.0,0.0,0.0,0.0,0.0,0.0,0.0,0.0,0.0,0.0,0.0,0.0,0.0,0.0,0.0,0.0,0.0,0.0,0.0,0.0,0.0,0.0,0.0,0.0,0.0,0.0,0.0,0.0,0.0,0.0,0.0,0.0,0.0,0.0,0.0,0.0,0.0,0.0,0.0,0.0,0.0,0.0,0.0,0.0,0.0,0.0,0.0,0.0,0.0,0.0,0.0,0.0,0.0,0.0,0.0,0.0,0.0,0.0,0.0,0.0,0.0,0.0,0.0,0.0,0.0,0.0,0.0,0.0,0.0,0.0,0.0,0.0,0.0,0.0,0.0,0.0,0.0,0.0,0.0,0.0,0.0,0.0,0.0,0.0,0.0,0.0,0.0,0.0,0.0,0.0,0.0,0.0,0.0,0.0,0.0,4.4913,5.3835,6.01,6.01,6.0821,6.1314,6.1314,6.0555,5.6642,0.0,0.0,0.0,0.0,0.0,0.0,0.0,0.0,0.0,0.0,0.0,0.0,0.0,0.0,0.0,0.0,0.0,0.0,0.0,0.0,0.0,0.0,0.0,0.0,0.0,0.0,0.0,0.0,0.0,0.0,0.0,0.0,0.0,0.0,0.0,0.0,0.0,0.0,0.0,0.0,0.0,0.0,0.0,0.0,0.0,0.0,0.0,0.0,0.0,0.0,0.0,0.0,0.0,0.0,0.0,0.0,0.0,0.0,0.0,0.0,0.0,0.0,0.0,0.0,0.0,0.0,0.0,0.0,0.0,0.0,0.0,0.0,0.0,0.0,0.0,0.0,0.0,0.0,0.0,0.0,0.0,0.0,0.0,0.0,0.0,0.0,0.0,0.0,0.0,0.0,0.0,0.0,0.0,0.0,0.0,0.0,0.0,0.0,0.0,0.0,0.0,0.0,0.0,4.4724,5.3071,5.8947,5.9075,5.991,6.0441,6.0441,5.9644,5.5765,4.7678,0.0,0.0,0.0,0.0,0.0,0.0,0.0,0.0,0.0,0.0,0.0,0.0,0.0,0.0,0.0,0.0,0.0,0.0,0.0,0.0,0.0,0.0,0.0,0.0,0.0,0.0,0.0,0.0,0.0,0.0,0.0,0.0,0.0,0.0,0.0,0.0,0.0,0.0,0.0,0.0,0.0,0.0,0.0,0.0,0.0,0.0,0.0,0.0,0.0,0.0,0.0,0.0,0.0,0.0,0.0,0.0,0.0,0.0,0.0,0.0,0.0,0.0,0.0,0.0,0.0,0.0,0.0,0.0,0.0,0.0,0.0,0.0,0.0,0.0,0.0,0.0,0.0,0.0,0.0,0.0,0.0,0.0,0.0,0.0,0.0,0.0,0.0,0.0,0.0,0.0,0.0,0.0,0.0,0.0,0.0,0.0,0.0,0.0,0.0,0.0,0.0,0.0,0.0,5.036,5.5553,5.679,5.7632,5.8455,5.922,5.8964,5.5464,4.7461,0.0,0.0,0.0,0.0,0.0,0.0,0.0,0.0,0.0,0.0,0.0,0.0,0.0,0.0,0.0,0.0,0.0,0.0,0.0,0.0,0.0,0.0,0.0,0.0,0.0,0.0,0.0,0.0,0.0,0.0,0.0,0.0,0.0,0.0,0.0,0.0,0.0,0.0,0.0,0.0,0.0,0.0,0.0,0.0,0.0,0.0,0.0,0.0,0.0,0.0,0.0,0.0,0.0,0.0,0.0,0.0,0.0,0.0,0.0,0.0,0.0,0.0,0.0,0.0,0.0,0.0,0.0,0.0,0.0,0.0,0.0,0.0,0.0,0.0,0.0,0.0,0.0,0.0,0.0,0.0,0.0,0.0,0.0,0.0,0.0,0.0,0.0,0.0,0.0,0.0,0.0,0.0,0.0,0.0,0.0,0.0,0.0,0.0,0.0,0.0,0.0,0.0,0.0,4.6344,5.1026,5.3418,5.4572,5.5855,5.7776,5.8528,5.5477,4.7703,4.6926,0.0,0.0,0.0,0.0,0.0,0.0,0.0,0.0,0.0,0.0,0.0,0.0,0.0,0.0,0.0,0.0,0.0,0.0,0.0,0.0,0.0,0.0,0.0,0.0,0.0,0.0,0.0,0.0,0.0,0.0,0.0,0.0,0.0,0.0,0.0,0.0,0.0,0.0,0.0,0.0,0.0,0.0,0.0,0.0,0.0,0.0,0.0,0.0,0.0,0.0,0.0,0.0,0.0,0.0,0.0,0.0,0.0,0.0,0.0,0.0,0.0,0.0,0.0,0.0,0.0,0.0,0.0,0.0,0.0,0.0,0.0,0.0,0.0,0.0,0.0,0.0,0.0,0.0,0.0,0.0,0.0,0.0,0.0,0.0,0.0,0.0,0.0,0.0,0.0,0.0,0.0,0.0,0.0,0.0,0.0,0.0,0.0,0.0,0.0,0.0,0.0,0.0,4.6546,5.1481,5.2696,5.4318,5.604,5.7961,5.8321,5.5274,4.7733,4.5883,0.0,0.0,0.0,0.0,0.0,0.0,0.0,0.0,0.0,0.0,0.0,0.0,0.0,0.0,0.0,0.0,0.0,0.0,0.0,0.0,0.0,0.0,0.0,0.0,0.0,0.0,0.0,0.0,0.0,0.0,0.0,0.0,0.0,0.0,0.0,0.0,0.0,0.0,0.0,0.0,0.0,0.0,0.0,0.0,0.0,0.0,0.0,0.0,0.0,0.0,0.0,0.0,0.0,0.0,0.0,0.0,0.0,0.0,0.0,0.0,0.0,0.0,0.0,0.0,0.0,0.0,0.0,0.0,0.0,0.0,0.0,0.0,0.0,0.0,0.0,0.0,0.0,0.0,0.0,0.0,0.0,0.0,0.0,0.0,0.0,0.0,0.0,0.0,0.0,0.0,0.0,0.0,0.0,0.0,0.0,0.0,0.0,0.0,0.0,0.0,0.0,0.0,4.0851,4.7191,5.1481,5.3751,5.5818,5.8099,5.905,5.6047,4.7978,4.6091,0.0,0.0,0.0,0.0,0.0,0.0,0.0,0.0,0.0,0.0,0.0,0.0,0.0,0.0,0.0,0.0,0.0,0.0,0.0,0.0,0.0,0.0,0.0,0.0,0.0,0.0,0.0,0.0,0.0,0.0,0.0,0.0,0.0,0.0,0.0,0.0,0.0,0.0,0.0,0.0,0.0,0.0,0.0,0.0,0.0,0.0,0.0,0.0,0.0,0.0,0.0,0.0,0.0,0.0,0.0,0.0,0.0,0.0,0.0,0.0,0.0,0.0,0.0,0.0,0.0,0.0,0.0,0.0,0.0,0.0,0.0,0.0,0.0,0.0,0.0,0.0,0.0,0.0,0.0,0.0,0.0,0.0,0.0,0.0,0.0,0.0,0.0,0.0,0.0,0.0,0.0,0.0,0.0,0.0,0.0,0.0,0.0,0.0,0.0,0.0,0.0,0.0,0.0,4.0851,4.9431,5.2532,5.5077,5.7898,5.9706,5.6864,4.7969,0.0,0.0,0.0,0.0,0.0,0.0,0.0,0.0,0.0,0.0,0.0,0.0,0.0,0.0,0.0,0.0,0.0,0.0,0.0,0.0,0.0,0.0,0.0,0.0,0.0,0.0,0.0,0.0,0.0,0.0,0.0,0.0,0.0,0.0,0.0,0.0,0.0,0.0,0.0,0.0,0.0,0.0,0.0,0.0,0.0,0.0,0.0,0.0,0.0,0.0,0.0,0.0,0.0,0.0,0.0,0.0,0.0,0.0,0.0,0.0,0.0,0.0,0.0,0.0,0.0,0.0,0.0,0.0,0.0,0.0,0.0,0.0,0.0,0.0,0.0,0.0,0.0,0.0,0.0,0.0,0.0,0.0,0.0,0.0,0.0,0.0,0.0,0.0,0.0,0.0,0.0,0.0,0.0,0.0,0.0,0.0,0.0,0.0,0.0,0.0,0.0,0.0,0.0,0.0,3.5878,4.4904,5.0224,5.3945,5.5993,5.7936,5.5455,4.7009,0.0,0.0,0.0,0.0,0.0,0.0,0.0,0.0,0.0,0.0,0.0,0.0,0.0,0.0]}]]]